     2.10           OBSERVATION DATA    G (GPS)             RINEX VERSION / TYPE
teqc 2002Apr3 20050812 22:29:26UTC                          PGM / RUN BY / DATE
                                                            COMMENT
L2: 1 -> 1; 5 -> 5; 40 -> 9                                 COMMENT
L2: 1 -> 1; 5 -> 5; 40 -> 9                                 COMMENT
L2: 1 -> 1; 5 -> 5; 40 -> 9                                 COMMENT
L2: 1 -> 1; 5 -> 5; 40 -> 9                                 COMMENT
Original Marker Name: DUNE                                  COMMENT
Campaign Name: USGS Coachella Subsidence 1996-2000          COMMENT
4-Character Station Name: DUNE                              COMMENT
6-Character Antenna Code: DMRCHT                            COMMENT
Vertical Measurement Point: BPA                             COMMENT
Vertical Offset to Rinex Ref. Point: 0.0000                 COMMENT
Radial Measurement Point: RRP                               COMMENT
Radial Offset to Rinex Ref. Point: 0.0000                   COMMENT
Antenna Height from Field Measurement: 2.0000 m             COMMENT
Additional Antenna Identification Info.:                    COMMENT
Turborogue and Ashtech Choke Ring                           COMMENT
Original XYZ: -2349694.4300 -4760711.5900 3523067.2700      COMMENT
New XYZ position is based on association with SCEC monument COMMENT
E1D0T6W6+0011. Position of that monument is believed to be  COMMENT
valid to within 1 m horizontally; vertical accuracy         COMMENT
should be no worse than 3-times this value.                 COMMENT
                                                            COMMENT
Revised Rinex header created by UCSD GPS archive for        COMMENT
GSAC on 20-Apr-2005 (2005:110) 16:26:45 GMT                 COMMENT
For assistance contact dagnew@ucsd.edu                      COMMENT
or anderson@python.ucsd.edu                                 COMMENT
                                                            COMMENT
DUNEPORT 1987                                               MARKER NAME
AHC US GEOLOGICAL SURVEY WATER RESOURC.                     OBSERVER / AGENCY
621 ASHTECH L-XII 7A                                        REC # / TYPE / VERS
713 DORNE-MARGOL. TYPE T                                    ANT # / TYPE
 -2349693.0000 -4760657.0000  3523044.0000                  APPROX POSITION XYZ
        2.0000        0.0000        0.0000                  ANTENNA: DELTA H/E/N
     1     1     0                                          WAVELENGTH FACT L1/2
     4    C1    L1    L2    S1                              # / TYPES OF OBSERV
     0                                                      INTERVAL
  1996     6    11    14    35   45.000000                  TIME OF FIRST OBS
  1996     6    11    20    35   15.000000                  TIME OF LAST OBS
                                                            END OF HEADER
 96  6 11 14 35 45.0000000  0  4G 2G19G 7G15
  21127778.683   -12234887.342 9    -21386.04521       126.000
  21880006.647    14065713.484 9    150174.36321        88.000
  21184441.646     -477020.504 9   -226920.46426       104.000
  23636293.095   -10928479.616 7   -128831.43125        50.000
 96  6 11 14 36  0.0000000  0  4G 2G19G 7G15
  21127201.613   -12237929.287 9    -23755.61221       126.000
  21886547.668    14100069.101 9    176951.35221        88.000
  21178102.445     -510331.121 9   -252876.80327       106.000
  23633157.086   -10944989.765 7   -141696.48725        50.000
 96  6 11 14 36 15.0000000  0  5G 2G19G 7G27G15
  21126656.050   -12240792.506 9    -25986.24625       126.000
  21893126.434    14134638.171 9    203895.24421        88.000
  21171810.670     -543407.451 9   -278650.56528       106.000
  20156666.460    17696659.502 9     20941.54923       120.000
  23630064.427   -10961244.720 7   -154362.65425        50.000
 96  6 11 14 36 30.0000000  0  5G 2G19G 7G27G15
  21126143.255   -12243473.935 9    -28075.66626       126.000
  21899735.059    14169425.531 9    231000.61021        88.000
  21165558.649     -576242.271 9   -304236.12028       106.000
  20157949.002    17703388.615 9     26184.89426       122.000
  23627020.214   -10977237.737 7   -166824.71825        52.000
 96  6 11 14 36 45.0000000  0  6G 2G19G 7G26G27G15
  21125667.395   -12245969.301 9    -30020.12727       124.000
  21906403.163    14204437.659 9    258285.07921        88.000
  21159360.350     -608827.700 9   -329627.37329       106.000
  23707755.073   -20745522.582 7   -125286.72121        58.000
  20159280.471    17710381.685 9     31634.03827       122.000
  23624028.675   -10992963.478 7   -179078.54625        50.000
 96  6 11 14 37  0.0000000  0  6G 2G19G 7G26G27G15
  21125231.347   -12248275.948 9    -31817.51327       126.000
  21913114.287    14239676.849 9    285737.28221        90.000
  21153206.840     -641160.359 9   -354821.65429       106.000
  23702080.871   -20775341.066 7   -148521.44921        54.000
  20160659.516    17717641.873 9     37291.31228       120.000
  23621089.480   -11008420.555 7   -191122.98325        52.000
 96  6 11 14 37 15.0000000  0  6G 2G19G 7G26G27G15
  21124829.325   -12250404.955 9    -33476.47128       126.000
  21919862.165    14275133.629 9    313365.89423        90.000
  21147102.436     -673254.436 9   -379830.01529       108.000
  23696453.107   -20804906.436 7   -171559.44722        54.000
  20162089.016    17725159.537 9     43149.22829       122.000
  23618197.352   -11023620.126 7   -202966.78025        52.000
 96  6 11 14 37 30.0000000  0  6G 2G19G 7G26G27G15
  21124457.223   -12252340.788 9    -34984.91529       124.000
  21926655.342    14310822.178 9    341175.12525        92.000
  21141039.883     -705094.142 9   -404640.16629       104.000
  23690873.040   -20834204.500 7   -194389.12723        52.000
  20163576.646    17732951.298 9     49220.73929       122.000
  23615350.673   -11038547.090 7   -214598.17625        50.000
 96  6 11 14 37 45.0000000  0  6G 2G19G 7G26G27G15
  21124129.130   -12254077.352 9    -36338.12329       126.000
  21933486.683    14346741.871 9    369164.46925        88.000
  21135030.933     -736671.687 9   -429246.07929       106.000
  23685348.464   -20863234.400 7   -217009.83825        56.000
  20165109.785    17741021.335 9     55509.03129       122.000
  23612566.440   -11053197.507 7   -226014.10125        52.000
 96  6 11 14 38  0.0000000  0  6G 2G19G 7G26G27G15
  21123833.324   -12255630.869 9    -37548.63329       128.000
  21940360.954    14382880.375 9    397324.33526        90.000
  21129070.069     -767999.885 9   -453657.63229       104.000
  23679877.552   -20892011.332 7   -239433.38825        54.000
  20166694.068    17749355.751 9     62003.39229       122.000
  23609830.415   -11067585.313 7   -237225.36125        54.000
 96  6 11 14 38 15.0000000  0  6G 2G19G 7G26G27G15
  21123570.227   -12257015.194 9    -38627.32529       126.000
  21947282.113    14419230.848 9    425649.38326        90.000
  21123152.975     -799087.745 9   -477881.93729       104.000
  23674448.820   -20920545.879 7   -261668.09725        54.000
  20168330.545    17757944.062 9     68695.58629       122.000
  23607130.304   -11081719.827 7   -248239.25325        52.000
 96  6 11 14 38 30.0000000  0  6G 2G19G 7G26G27G15
  21123342.684   -12258204.881 9    -39554.37029       126.000
  21954243.833    14455821.572 9    454161.62026        86.000
  21117290.234     -829905.745 9   -501895.95629       106.000
  23669066.406   -20948811.097 7   -283692.93925        56.000
  20170016.068    17766810.606 9     75604.57229       122.000
  23604495.518   -11095574.249 7   -259034.92325        54.000
 96  6 11 14 38 45.0000000  0  6G 2G19G 7G26G27G15
  21123149.078   -12259211.600 9    -40338.82529       128.000
  21961245.846    14492639.272 9    482850.71726        88.000
  21111475.819     -860467.587 9   -525710.38429       104.000
  23663740.563   -20976819.948 7   -305518.02925        56.000
  20171754.955    17775939.256 9     82717.78629       122.000
  23601913.255   -11109161.954 7   -269622.74625        52.000
 96  6 11 14 39  0.0000000  0  6G 2G19G 7G26G27G15
  21122992.497   -12260040.249 9    -40984.55529       126.000
  21968296.515    14529672.733 9    511707.91826        86.000
  21105704.485     -890780.677 9   -549330.99129       102.000
  23658453.064   -21004582.571 7   -327151.28225        58.000
  20173540.728    17785321.609 9     90028.67829       122.000
  23599378.120   -11122490.623 7   -280008.76225        52.000
 96  6 11 14 39 15.0000000  0  6G 2G19G 7G26G27G15
  21122869.012   -12260690.755 9    -41491.44029       126.000
  21975379.411    14566922.794 8    540733.96126        82.000
  21099983.665     -920847.898 9   -572759.98929       104.000
  23653218.837   -21032097.903 7   -348591.79625        58.000
  20175371.471    17794957.077 9     97536.82829       124.000
  23596894.820   -11135560.874 7   -290193.34925        52.000
 96  6 11 14 39 30.0000000  0  6G 2G19G 7G26G27G15
  21122778.745   -12261167.960 9    -41863.27729       128.000
  21982511.504    14604383.799 8    569924.31926        78.000
  21094308.804     -950670.579 9   -595998.42629       104.000
  23648031.918   -21059369.271 7   -369842.21926        60.000
  20177253.208    17804839.448 9    105237.38329       124.000
  23594451.301   -11148376.666 7   -300179.66625        52.000
 96  6 11 14 39 45.0000000  0  6G 2G19G 7G26G27G15
  21122720.315   -12261481.814 9    -42107.85529       128.000
  21989679.422    14642044.273 8    599270.12726        80.000
  21088678.672     -980257.069 9   -619052.85529       100.000
  23642886.880   -21086406.393 7   -390910.12326        60.000
  20179180.064    17814960.099 9    113123.58029       124.000
  23592062.195   -11160947.418 7   -309975.07526        54.000
 96  6 11 14 40  0.0000000  0  6G 2G19G 7G26G27G15
  21122689.227   -12261635.510 9    -42227.61729       126.000
  21996880.347    14679905.027 8    628771.99626        80.000
  21083091.410    -1009615.184 9   -641929.28629       102.000
  23637786.661   -21113209.505 7   -411795.61126        58.000
  20181152.249    17825316.475 9    121193.49829       122.000
  23589716.469   -11173275.602 7   -319581.44126        54.000
 96  6 11 14 40 15.0000000  0  6G 2G19G 7G26G27G15
  21122692.854   -12261628.431 9    -42222.11029       126.000
  22004130.587    14717972.535 8    658434.96426        80.000
  21077549.356    -1038745.804 9   -664628.47229       104.000
  23632728.652   -21139775.515 7   -432496.45026        56.000
  20183164.816    17835910.609 9    129448.64629       122.000
  23587410.555   -11185357.664 7   -328996.04026        56.000
 96  6 11 14 40 30.0000000  0  6G 2G19G 7G26G27G15
  21122722.354   -12261475.768 9    -42103.15229       126.000
  22011407.060    14756226.825 8    688243.48826        82.000
  21072047.325    -1067663.794 9   -687161.97129       102.000
  23627715.523   -21166122.944 7   -453026.91626        56.000
  20185220.463    17846724.676 9    137875.19029       122.000
  23585156.746   -11197211.020 7   -338232.44526        54.000
 96  6 11 14 40 45.0000000  0  6G 2G19G 7G26G27G15
  21122777.366   -12261168.947 9    -41864.08329       126.000
  22018727.602    14794672.928 8    718201.46826        80.000
  21066586.875    -1096361.426 9   -709523.76029       104.000
  23622743.735   -21192245.622 7   -473382.23126        54.000
  20187323.147    17857768.188 9    146480.51629       124.000
  23582944.427   -11208828.007 7   -347284.65826        54.000
 96  6 11 14 41  0.0000000  0  6G 2G19G 7G26G27G15
  21122867.873   -12260705.328 9    -41502.81129       124.000
  22026077.284    14833310.432 8    748308.61926        78.000
  21061164.559    -1124839.006 9   -731714.06629       102.000
  23617817.515   -21218143.125 7   -493562.09926        58.000
  20189469.331    17869045.744 9    155268.22129       126.000
  23580784.153   -11220205.964 7   -356150.60526        54.000
 96  6 11 14 41 15.0000000  0  6G 2G19G 7G26G27G15
  21122984.552   -12260094.172 9    -41026.57729       124.000
  22033456.226    14872132.999 8    778559.94626        74.000
  21055786.103    -1153106.326 9   -753740.55429       106.000
  23612924.602   -21243820.719 7   -513570.60226        56.000
  20191661.534    17880553.896 9    164235.61229       126.000
  23578660.303   -11231351.875 7   -364835.71426        52.000
 96  6 11 14 41 30.0000000  0  6G 2G19G 7G26G27G15
  21123124.735   -12259343.597 9    -40441.73229       124.000
  22040884.543    14911136.811 8    808952.50126        74.000
  21050449.287    -1181169.828 9   -775608.23329       106.000
  23608080.586   -21269282.981 7   -533411.37026        56.000
  20193896.456    17892288.248 9    173379.23929       126.000
  23576581.422   -11242270.746 7   -373343.89926        54.000
 96  6 11 14 41 45.0000000  0  6G 2G19G 7G26G27G15
  21123294.867   -12258457.332 9    -39751.14029       126.000
  22048343.110    14950316.146 8    839481.84626        72.000
  21045144.400    -1209032.483 9   -797319.38929       104.000
  23603278.930   -21294535.306 7   -553088.50726        54.000
  20196169.693    17904247.321 9    182697.98529       126.000
  23574544.722   -11252965.390 7   -381677.35226        52.000
 96  6 11 14 42  0.0000000  0  6G 2G19G 7G26G27G15
  21123492.910   -12257424.162 9    -38946.07329       126.000
  22055833.514    14989681.967 8    870156.47527        76.000
  21039880.944    -1236689.137 9   -818870.02229       106.000
  23598513.549   -21319569.817 7   -572595.91226        52.000
  20198490.116    17916439.590 9    192198.44229       128.000
  23572562.944   -11263425.874 7   -389828.37926        56.000
 96  6 11 14 42 15.0000000  0  6G 2G19G 7G26G27G15
  21123715.866   -12256262.733 9    -38041.08029       126.000
  22063359.024    15029216.969 8    900962.93327        76.000
  21034656.670    -1264154.090 9   -840271.29229       104.000
  23593789.060   -21344405.092 7   -591948.09426        54.000
  20200851.222    17928843.443 9    201863.76829       126.000
  23570607.098   -11273670.085 7   -397810.88926        54.000
 96  6 11 14 42 30.0000000  0  6G 2G19G 7G26G27G15
  21123956.090   -12254962.854 9    -37028.19929       126.000
  22070919.370    15068928.930 8    931907.31527        74.000
  21029470.231    -1291409.845 9   -861509.54229       108.000
  23589103.543   -21369030.560 7   -611136.77026        56.000
  20203253.549    17941467.821 9    211700.92929       124.000
  23568709.562   -11283688.226 7   -405617.23226        58.000
 96  6 11 14 42 45.0000000  0  6G 2G19G 7G26G27G15
  21124235.106   -12253524.113 9    -35907.11029       126.000
  22078499.773    15108815.357 8    962987.61527        72.000
  21024321.595    -1318455.840 9   -882584.36029       106.000
  23584457.000   -21393445.883 7   -630161.69826        56.000
  20205697.127    17954314.686 9    221711.45929       126.000
  23566835.859   -11293481.460 7   -413248.31226        56.000
 96  6 11 14 43  0.0000000  0  6G 2G19G 7G26G27G15
  21124532.441   -12251958.980 9    -34687.52629       124.000
  22086122.775    15148864.599 8    994194.80427        72.000
  21019212.472    -1345304.686 9   -903505.52929       108.000
  23579844.393   -21417660.947 7   -649030.58126        56.000
  20208181.837    17967372.081 9    231886.04929       126.000
  23565011.892   -11303061.195 7   -420713.02526        56.000
 96  6 11 14 43 15.0000000  0  6G 2G19G 7G26G27G15
  21124855.167   -12250269.293 9    -33370.89329       126.000
  22093774.228    15189074.306 8   1025527.02027        70.000
  21014141.842    -1371958.970 9   -924275.09429       108.000
  23575282.871   -21441677.236 7   -667744.57626        60.000
  20210705.670    17980634.124 9    242220.11229       126.000
  23563237.300   -11312431.630 7   -428014.65426        56.000
 96  6 11 14 43 30.0000000  0  6G 2G19G 7G26G27G15
  21125196.541   -12248457.751 9    -31959.31029       124.000
  22101458.808    15229444.836 8   1056984.54727        72.000
  21009103.320    -1398417.456 9   -944892.09429       110.000
  23570747.191   -21465499.127 7   -686307.08226        58.000
  20213271.144    17994095.932 9    252709.82229       124.000
  23561492.088   -11321596.060 7   -435155.76026        56.000
 96  6 11 14 43 45.0000000  0  6G 2G19G 7G26G27G15
  21125570.562   -12246515.384 9    -30445.75129       122.000
  22109172.348    15269984.439 8   1088573.85427        74.000
  21004109.977    -1424668.722 9   -965347.61329       108.000
  23566249.975   -21489123.410 7   -704715.60726        56.000
  20215868.665    18007760.909 9    263357.86829       128.000
  23559787.708   -11330547.655 7   -442131.02625        56.000
 96  6 11 14 44  0.0000000  0  6G 2G19G 7G26G27G15
  21125960.142   -12244447.644 9    -28834.54429       122.000
  22116920.844    15310690.003 8   1120292.44027        76.000
  20999155.307    -1450716.525 9   -985644.61329       108.000
  23561790.202   -21512556.304 7   -722974.99626        56.000
  20218505.010    18021623.102 9    274159.55929       126.000
  23558119.094   -11339290.980 7   -448944.01625        54.000
 96  6 11 14 44 15.0000000  0  6G 2G19G 7G26G27G15
  21126377.303   -12242253.810 9    -27125.07229       120.000
  22124693.653    15351563.053 8   1152141.54627        76.000
  20994235.803    -1476560.303 9  -1005782.63529       110.000
  23557368.803   -21535796.398 7   -741084.21126        54.000
  20221185.485    18035683.369 9    285115.59529       126.000
  23556498.236   -11347825.229 7   -455594.08526        54.000
 96  6 11 14 44 30.0000000  0  6G 2G19G 7G26G27G15
  21126821.716   -12239941.131 9    -25322.97429       120.000
  22132506.994    15392596.107 8   1184115.36327        78.000
  20989357.490    -1502206.608 9  -1025766.74429       108.000
  23552982.240   -21558848.228 7   -759046.66226        54.000
  20223895.848    18049938.945 9    296223.84329       126.000
  23554912.453   -11356157.628 7   -462086.85426        54.000
 96  6 11 14 44 45.0000000  0  6G 2G19G 7G26G27G15
  21127282.407   -12237510.293 9    -23428.85929       122.000
  22140344.109    15433784.870 8   1216210.45227        78.000
  20984510.686    -1527664.561 9  -1045604.14329       108.000
  23548629.673   -21581713.789 7   -776864.00126        52.000
  20226640.988    18064391.700 9    307485.70929       124.000
  23553359.858   -11364290.925 7   -468424.47026        56.000
 96  6 11 14 45  0.0000000  0  6G 2G19G 7G26G27G15
  21127768.400   -12234956.035 9    -21438.51429       122.000
  22148211.532    15475135.570 8   1248431.76627        78.000
  20979698.477    -1552933.245 9  -1065294.00529       106.000
  23544317.398   -21604388.726 7   -794532.76026        52.000
  20229434.904    18079047.168 9    318905.55729       126.000
  23551859.517   -11372218.639 7   -474601.92725        58.000
 96  6 11 14 45 15.0000000  0  6G 2G19G 7G26G27G15
  21128278.437   -12232281.616 9    -19354.55429       122.000
  22156107.226    15516649.139 8   1280779.97327        76.000
  20974927.220    -1578016.506 9  -1084839.41729       108.000
  23540036.782   -21626874.431 7   -812054.08326        50.000
  20232262.096    18093900.027 9    330479.19929       126.000
  23550385.437   -11379942.074 7   -480620.22125        58.000
 96  6 11 14 45 30.0000000  0  6G 2G19G 7G26G27G15
  21128804.543   -12229501.665 9    -17188.38329       124.000
  22164043.422    15558314.816 8   1313246.69627        80.000
  20970188.071    -1602929.275 9  -1104251.97629       108.000
  23535794.389   -21649184.749 7   -829438.80526        56.000
  20235122.176    18108936.962 9    342196.26429       124.000
  23548954.288   -11387473.768 7   -486489.09025        58.000
 96  6 11 14 45 45.0000000  0  6G 2G19G 7G26G27G15
  21129355.292   -12226609.617 9    -14934.84629       124.000
  22171999.374    15600139.627 8   1345837.44527        78.000
  20965481.659    -1627662.766 9  -1123524.84129       106.000
  23531581.135   -21671309.493 7   -846678.87026        54.000
  20238020.150    18124167.856 9    354064.48029       124.000
  23547565.560   -11394802.691 7   -492199.93425        58.000
 96  6 11 14 46  0.0000000  0  6G 2G19G 7G26G27G15
  21129926.636   -12223612.549 9    -12599.44729       122.000
  22179985.815    15642114.004 8   1378544.74227        80.000
  20960811.402    -1652224.678 9  -1142663.97229       108.000
  23527408.474   -21693251.488 7   -863776.52226        56.000
  20240952.600    18139587.217 9    366079.57629       122.000
  23546202.343   -11401933.748 7   -497756.59125        58.000
 96  6 11 14 46 15.0000000  0  6G 2G19G 7G26G27G15
  21130519.566   -12220510.122 9    -10181.99229       124.000
  22188002.026    15684234.495 8   1411365.88227        80.000
  20956165.638    -1676617.841 9  -1161671.64529       104.000
  23523265.072   -21715008.583 7   -880730.11926        58.000
  20243924.623    18155195.548 9    378241.89529       122.000
  23544880.139   -11408866.737 7   -503158.90425        58.000
 96  6 11 14 46 30.0000000  0  6G 2G19G 7G26G27G15
  21131127.305   -12217305.177 9     -7684.62729       122.000
  22196044.498    15726494.943 8   1444296.08727        78.000
  20951555.610    -1700846.580 9  -1180551.16329       104.000
  23519158.395   -21736584.351 7   -897542.35626        54.000
  20246926.804    18170988.723 9    390548.27429       122.000
  23543597.627   -11415606.426 7   -508410.61025        56.000
 96  6 11 14 46 45.0000000  0  6G 2G19G 7G26G27G15
  21131754.501   -12214002.873 9     -5111.39529       122.000
  22204113.952    15768892.613 8   1477333.21226        76.000
  20946976.100    -1724911.997 9  -1199303.42529       104.000
  23515088.143   -21757982.556 7   -914216.30126        58.000
  20249968.019    18186960.465 9    402993.78529       124.000
  23542350.700   -11422155.799 7   -513514.03025        58.000
 96  6 11 14 47  0.0000000  0  6G 2G19G 7G26G27G15
  21132400.284   -12210601.162 9     -2460.73629       120.000
  22212204.871    15811432.343 8   1510481.00726        78.000
  20942430.017    -1748808.063 9  -1217923.75929       104.000
  23511054.646   -21779200.583 7   -930749.85826        58.000
  20253043.290    18203110.987 9    415578.57829       122.000
  23541142.356   -11428509.689 7   -518465.12825        56.000
 96  6 11 14 47 15.0000000  0  6G 2G19G 7G26G27G15
  21133068.521   -12207105.490 9       263.15529       124.000
  22220323.370    15854111.164 8   1543737.21926        76.000
  20937914.693    -1772532.753 9  -1236410.53329       102.000
  23507042.703   -21800238.603 7   -947143.15526        56.000
  20256148.120    18219434.936 9    428298.52829       124.000
  23539970.168   -11434669.941 7   -523265.33425        56.000
 96  6 11 14 47 30.0000000  0  6G 2G19G 7G26G27G15
  21133750.009   -12203526.838 9      3051.72429       124.000
  22228477.605    15896916.041 8   1577091.65526        80.000
  20933431.927    -1796097.702 9  -1254772.81829       104.000
  23503070.183   -21821108.711 7   -963405.55426        54.000
  20259286.648    18235921.210 9    441144.96829       122.000
  23538829.937   -11440648.638 7   -527924.04226        54.000
 96  6 11 14 47 45.0000000  0  6G 2G19G 7G26G27G15
  21134447.177   -12199856.230 9      5911.92529       122.000
  22236650.217    15939851.098 8   1610547.52126        82.000
  20928977.670    -1819491.184 9  -1273001.50029       104.000
  23499139.724   -21841802.255 7   -979530.40326        54.000
  20262455.634    18252582.155 9    454127.51229       122.000
  23537727.241   -11446437.079 7   -532434.51026        56.000
 96  6 11 14 48  0.0000000  0  6G 2G19G 7G26G27G15
  21135163.651   -12196097.517 9      8840.77629       124.000
  22244833.952    15982909.018 8   1644099.13826        78.000
  20924559.689    -1842717.887 9  -1291100.23729       102.000
  23495237.056   -21862325.016 7   -995522.16726        56.000
  20265656.968    18269412.630 9    467242.16229       122.000
  23536664.536   -11452041.879 7   -536801.90526        58.000
 96  6 11 14 48 15.0000000  0  6G 2G19G 7G26G27G15
  21135896.523   -12192242.571 9     11844.62529       122.000
  22253061.666    16026096.534 8   1677751.71726        78.000
  20920172.736    -1865774.508 9  -1309066.43129       104.000
  23491360.380   -21882673.603 7  -1011378.21326        56.000
  20268896.375    18286416.913 9    480492.25329       124.000
  23535633.340   -11457459.734 7   -541023.62025        60.000
 96  6 11 14 48 30.0000000  0  6G 2G19G 7G26G27G15
  21136646.064   -12188287.122 9     14926.79929       122.000
  22261297.265    16069419.533 8   1711509.89126        74.000
  20915816.362    -1888660.166 9  -1326899.39929       104.000
  23487523.846   -21902844.451 7  -1027095.78026        58.000
  20272164.922    18303599.736 9    493881.46129       122.000
  23534641.087   -11462688.159 7   -545097.73225        60.000
 96  6 11 14 48 45.0000000  0  6G 2G19G 7G26G27G15
  21137419.799   -12184237.475 9     18082.37329       124.000
  22269570.457    16112873.723 8   1745370.28326        72.000
  20911493.354    -1911378.861 9  -1344602.27529       104.000
  23483715.432   -21922840.082 7  -1042676.77526        58.000
  20275465.397    18320956.167 9    507405.95529       120.000
  23533680.522   -11467731.363 7   -549027.47525        58.000
 96  6 11 14 49  0.0000000  0  6G 2G19G 7G26G27G15
  21138208.403   -12180098.387 9     21307.63329       122.000
  22277859.269    16156451.408 8   1779326.91326        70.000
  20907198.528    -1933935.945 9  -1362179.20529       102.000
  23479942.514   -21942664.592 7  -1058124.47126        58.000
  20278802.447    18338481.263 9    521061.86529       118.000
  23532757.521   -11472594.625 7   -552817.04326        60.000
 96  6 11 14 49 15.0000000  0  6G 2G19G 7G26G27G15
  21139009.358   -12175870.262 9     24602.25029       122.000
  22286175.842    16200148.283 8   1813376.38426        68.000
  20902938.627    -1956333.313 9  -1379631.72129       104.000
  23476203.592   -21962318.767 7  -1073439.42126        60.000
  20282170.615    18356175.521 9    534849.57029       120.000
  23531861.801   -11477279.850 7   -556467.89126        58.000
 96  6 11 14 49 30.0000000  0  6G 2G19G 7G26G27G15
  21139833.308   -12171545.421 9     27972.25229       120.000
  22294516.637    16243971.102 8   1847524.00626        68.000
  20898707.176    -1978565.723 9  -1396955.66829       104.000
  23472489.644   -21981796.886 7  -1088617.17326        60.000
  20285570.682    18374046.317 9    548774.86729       120.000
  23531010.331   -11481780.921 7   -559975.22326        58.000
 96  6 11 14 49 45.0000000  0  6G 2G19G 7G26G27G15
  21140675.425   -12167133.786 9     31409.87729       122.000
  22302875.720    16287909.018 8   1881761.31726        68.000
  20894507.084    -2000643.602 9  -1414159.21829       106.000
  23468823.631   -22001112.532 7  -1103668.34326        62.000
  20289003.095    18392084.760 9    562830.77929       118.000
  23530177.417   -11486109.046 7   -563347.80226        56.000
 96  6 11 14 50  0.0000000  0  6G 2G19G 7G26G27G15
  21141531.752   -12162628.416 9     34920.54729       124.000
  22311263.284    16331970.391 8   1916094.80826        70.000
  20890332.414    -2022556.829 9  -1431234.45729       104.000
  23465182.892   -22020256.876 7  -1118586.03526        62.000
  20292470.735    18410295.946 9    577021.29629       118.000
  23529391.961   -11490256.499 7   -566579.59926        56.000
 96  6 11 14 50 15.0000000  0  6G 2G19G 7G26G27G15
  21142408.405   -12158035.380 9     38499.57029       124.000
  22319670.753    16376152.066 8   1950522.10326        70.000
  20886195.398    -2044312.027 9  -1448186.53129       104.000
  23461563.947   -22039234.972 7  -1133374.13226        58.000
  20295965.655    18428670.215 9    591338.93629       118.000
  23528630.218   -11494229.043 7   -569675.04926        54.000
 96  6 11 14 50 30.0000000  0  6G 2G19G 7G26G27G15
  21143297.350   -12153352.584 9     42148.50629       124.000
  22328097.590    16420455.717 8   1985044.40026        66.000
  20882086.682    -2065906.358 9  -1465013.27729       104.000
  23457987.933   -22058042.725 7  -1148029.51626        58.000
  20299491.844    18447212.302 9    605787.30929       118.000
  23527912.725   -11498022.424 7   -572630.94426        54.000
 96  6 11 14 50 45.0000000  0  6G 2G19G 7G26G27G15
  21144205.571   -12148584.883 9     45863.57429       124.000
  22336555.544    16464877.034 8   2019658.37526        68.000
  20878010.314    -2087340.298 9  -1481715.05129       104.000
  23454441.748   -22076683.774 7  -1162555.02526        58.000
  20303051.250    18465919.481 9    620364.30829       118.000
  23527225.721   -11501638.998 7   -575449.07026        54.000
 96  6 11 14 51  0.0000000  0  6G 2G19G 7G26G27G15
  21145125.035   -12143731.843 9     49645.15129       122.000
  22345027.080    16509415.852 7   2054363.93226        62.000
  20873961.467    -2108609.295 9  -1498288.30129       108.000
  23450929.589   -22095158.699 7  -1176951.08926        60.000
  20306642.974    18484791.600 9    635069.84129       116.000
  23526575.980   -11505077.206 7   -578128.18926        58.000
 96  6 11 14 51 15.0000000  0  6G 2G19G 7G26G27G15
  21146067.912   -12138798.552 9     53489.26129       126.000
  22353519.301    16554067.868 7   2089157.65726        62.000
  20869940.741    -2129722.567 9  -1514740.19529       108.000
  23447446.630   -22113475.428 7  -1191223.87626        60.000
  20310265.276    18503823.324 9    649899.74929       114.000
  23525958.408   -11508343.168 7   -580673.13326        58.000
 96  6 11 14 51 30.0000000  0  6G 2G19G 7G26G27G15
  21147018.284   -12133780.259 9     57399.62529       124.000
  22362042.640    16598841.433 8   2124046.13826        64.000
  20865954.280    -2150677.732 9  -1531068.87529       108.000
  23443986.876   -22131630.653 7  -1205370.80826        58.000
  20313919.296    18523018.923 9    664857.36429       114.000
  23525363.859   -11511432.182 7   -583080.16426        58.000
 96  6 11 14 51 45.0000000  0  6G 2G19G 7G26G27G15
  21147989.791   -12128679.773 9     61374.01029       124.000
  22370590.053    16643733.531 8   2159026.95126        64.000
  20861998.129    -2171480.142 9  -1547278.56329       110.000
  23440562.316   -22149629.790 7  -1219396.11126        60.000
  20317603.656    18542375.412 9    679940.30929       116.000
  23524812.571   -11514348.025 7   -585352.28726        58.000
 96  6 11 14 52  0.0000000  0  6G 2G19G 7G26G27G15
  21148975.149   -12123500.109 9     65410.11029       124.000
  22379157.552    16688740.476 8   2194097.27426        68.000
  20858065.841    -2192133.985 9  -1563372.46029       108.000
  23437161.411   -22167476.211 7  -1233302.41326        60.000
  20321312.268    18561887.000 9    695144.12429       112.000
  23524291.472   -11517094.959 7   -587492.76226        58.000
 96  6 11 14 52 15.0000000  0  6G 2G19G 7G26G27G15
  21149976.726   -12118234.579 9     69513.11029       124.000
  22387740.580    16733869.556 8   2229262.76626        66.000
  20854167.820    -2212637.309 9  -1579349.06729       110.000
  23433797.440   -22185163.804 7  -1247084.94826        58.000
  20325059.104    18581560.005 9    710473.73129       112.000
  23523802.810   -11519666.521 7   -589496.57326        56.000
 96  6 11 14 52 30.0000000  0  6G 2G19G 7G26G27G15
  21150998.359   -12112892.904 9     73675.46129       126.000
  22396348.221    16779110.199 8   2264515.20826        66.000
  20850289.945    -2233003.027 9  -1595218.44729       110.000
  23430461.919   -22202703.888 7  -1260752.51226        60.000
  20328831.633    18601386.686 9    725923.08829       112.000
  23523345.387   -11522072.016 7   -591370.99226        56.000
 96  6 11 14 52 45.0000000  0  6G 2G19G 7G26G27G15
  21152028.865   -12107469.205 9     77901.70129       124.000
  22404982.124    16824467.177 8   2299858.28926        68.000
  20846444.327    -2253225.295 9  -1610976.05729       110.000
  23427152.630   -22220091.719 7  -1274301.51826        62.000
  20332632.881    18621372.755 9    741496.64129       112.000
  23522921.061   -11524305.730 7   -593111.59326        56.000
 96  6 11 14 53  0.0000000  0  6G 2G19G 7G26G27G15
  21153072.982   -12101966.113 9     82189.82629       124.000
  22413634.134    16869938.327 8   2335290.31826        66.000
  20842620.054    -2273306.285 9  -1626623.57229       110.000
  23423869.003   -22237329.538 7  -1287733.58926        62.000
  20336469.715    18641516.169 9    757192.81129       112.000
  23522518.559   -11526370.107 7   -594720.19426        52.000
 96  6 11 14 53 15.0000000  0  6G 2G19G 7G26G27G15
  21154139.674   -12096376.880 9     86545.06229       124.000
  22422309.558    16915531.988 8   2370817.82226        68.000
  20838826.690    -2293239.289 9  -1642155.79529       110.000
  23420624.799   -22254408.483 7  -1301041.86126        62.000
  20340332.181    18661824.419 9    773017.40729       112.000
  23522161.656   -11528257.675 7   -596191.01626        54.000
 96  6 11 14 53 30.0000000  0  6G 2G19G 7G26G27G15
  21155216.618   -12090708.234 9     90962.19729       122.000
  22431004.858    16961243.021 8   2406436.80026        70.000
  20835060.848    -2313029.235 9  -1657576.52929       110.000
  23417400.261   -22271334.670 7  -1314231.06026        62.000
  20344226.305    18682293.171 9    788967.08129       112.000
  23521838.150   -11529973.881 7   -597528.34426        52.000
 96  6 11 14 53 45.0000000  0  6G 2G19G 7G26G27G15
  21156307.083   -12084963.004 9     95438.99929       122.000
  22439729.988    17007069.697 8   2442145.89126        72.000
  20831325.194    -2332672.530 9  -1672882.98129       110.000
  23414209.120   -22288107.309 7  -1327300.66026        62.000
  20348158.173    18702924.192 9    805043.20229       112.000
  23521543.664   -11531518.124 7   -598731.62726        54.000
 96  6 11 14 54  0.0000000  0  6G 2G19G 7G26G27G15
  21157419.104   -12079146.973 9     99970.94029       122.000
  22448474.754    17053006.253 8   2477940.55526        74.000
  20827611.215    -2352169.489 9  -1688075.43829       110.000
  23411046.160   -22304729.517 7  -1340253.04926        60.000
  20352107.729    18723712.976 9    821242.21229       112.000
  23521281.706   -11532893.828 7   -599803.65426        54.000
 96  6 11 14 54 15.0000000  0  6G 2G19G 7G26G27G15
  21158534.571   -12073273.225 9    104547.90729       120.000
  22457231.332    17099041.337 8   2513812.08626        74.000
  20823928.984    -2371529.156 9  -1703160.85229       110.000
  23407908.472   -22321208.957 8  -1353094.16226        64.000
  20356094.549    18744648.968 9    837555.99729       110.000
  23521046.788   -11534110.712 7   -600751.87626        52.000
 96  6 11 14 54 30.0000000  0  6G 2G19G 7G26G27G15
  21159665.808   -12067340.006 9    109171.17829       122.000
  22466014.442    17145175.866 8   2549761.03726        74.000
  20820272.026    -2390745.331 9  -1718134.50329       110.000
  23404805.650   -22337542.246 7  -1365821.41526        62.000
  20360105.172    18765738.677 9    853989.52129       110.000
  23520846.377   -11535164.682 7   -601573.16726        54.000
 96  6 11 14 54 45.0000000  0  6G 2G19G 7G26G27G15
  21160805.379   -12061342.540 9    113844.51629       122.000
  22474806.995    17191415.915 8   2585792.21926        72.000
  20816645.556    -2409806.036 9  -1732987.01329       110.000
  23401726.512   -22353720.598 8  -1378427.93126        64.000
  20364149.852    18786990.549 9    870549.40629       112.000
  23520682.810   -11536048.927 7   -602262.20226        52.000
 96  6 11 14 55  0.0000000  0  6G 2G19G 7G26G27G15
  21161956.462   -12055286.684 9    118563.36029       122.000
  22483627.129    17237757.608 8   2621902.59826        74.000
  20813045.828    -2428715.917 9  -1747721.98729       108.000
  23398672.046   -22369747.797 7  -1390916.67026        62.000
  20368226.550    18808401.416 9    887233.17529       112.000
  23520543.976   -11536769.057 7   -602823.38326        54.000
 96  6 11 14 55 15.0000000  0  6G 2G19G 7G26G27G15
  21163119.867   -12049175.873 9    123325.02129       122.000
  22492462.043    17284203.801 8   2658094.41626        72.000
  20809475.570    -2447473.971 9  -1762338.65229       110.000
  23395650.498   -22385623.210 7  -1403287.12826        62.000
  20372328.730    18829972.305 9    904041.64529       112.000
  23520437.640   -11537324.155 7   -603255.91226        52.000
 96  6 11 14 55 30.0000000  0  6G 2G19G 7G26G27G15
  21164291.786   -12043017.330 9    128123.90729       120.000
  22501320.100    17330745.308 8   2694360.52626        72.000
  20805933.702    -2466089.617 9  -1776844.33229       108.000
  23392657.550   -22401356.759 8  -1415547.03626        66.000
  20376462.089    18851693.096 9    920966.94729       112.000
  23520354.028   -11537722.512 7   -603566.35625        52.000
 96  6 11 14 55 45.0000000  0  6G 2G19G 7G26G27G15
  21165477.285   -12036804.858 9    132964.75929       124.000
  22510195.066    17377386.324 8   2730704.12626        74.000
  20802423.582    -2484557.838 9  -1791235.17829       108.000
  23389689.275   -22416940.480 8  -1427690.22326        66.000
  20380625.517    18873567.544 9    938011.93729       110.000
  23520322.819   -11537957.870 7   -603749.79525        52.000
 96  6 11 14 56  0.0000000  0  6G 2G19G 7G26G27G15
  21166664.673   -12030536.638 9    137849.10629       120.000
  22519089.249    17424123.244 8   2767122.51126        74.000
  20798935.916    -2502880.865 9  -1805512.82229       110.000
  23386753.198   -22432374.368 8  -1439716.62926        66.000
  20384817.305    18895593.270 9    955174.85829       110.000
  23520302.014   -11538031.806 7   -603807.37425        48.000
 96  6 11 14 56 15.0000000  0  6G 2G19G 7G26G27G15
  21167870.019   -12024208.678 9    142779.97429       122.000
  22528005.856    17470957.650 8   2803616.80726        74.000
  20795474.483    -2521056.231 9  -1819675.45629       108.000
  23383844.611   -22447656.904 8  -1451625.09226        66.000
  20389039.881    18917768.750 9    972454.44429       110.000
  23520316.344   -11537942.668 7   -603737.93225        52.000
 96  6 11 14 56 30.0000000  0  6G 2G19G 7G26G27G15
  21169087.925   -12017821.234 9    147757.21129       124.000
  22536937.063    17517888.475 8   2840186.27626        74.000
  20792044.917    -2539089.867 9  -1833727.63329       110.000
  23380969.721   -22462789.079 8  -1463416.36626        66.000
  20393283.893    18940093.178 9    989850.10029       112.000
  23520360.803   -11537691.793 7   -603542.44425        50.000
 96  6 11 14 56 45.0000000  0  6G 2G19G 7G26G27G15
  21170315.156   -12011374.246 9    152780.81929       124.000
  22545882.001    17564915.357 8   2876830.56826        72.000
  20788636.426    -2556986.358 9  -1847672.95729       108.000
  23378114.078   -22477772.746 8  -1475091.96326        64.000
  20397562.561    18962563.209 9   1007359.19229       112.000
  23520444.055   -11537281.437 7   -603222.72925        54.000
 96  6 11 14 57  0.0000000  0  6G 2G19G 7G26G27G15
  21171554.048   -12004859.662 9    157857.11029       122.000
  22554856.138    17612043.998 8   2913554.14626        74.000
  20785260.823    -2574743.685 9  -1861509.82929       108.000
  23375294.081   -22492602.362 7  -1486647.50626        62.000
  20401864.523    18985181.427 9   1024983.75929       114.000
  23520557.317   -11536706.709 7   -602774.89525        54.000
 96  6 11 14 57 15.0000000  0  6G 2G19G 7G26G27G15
  21172804.303   -11998279.344 9    162984.63829       124.000
  22563834.532    17659266.474 8   2950350.88026        68.000
  20781907.285    -2592367.853 9  -1875242.94129       106.000
  23372505.171   -22507284.216 7  -1498087.93126        62.000
  20406196.134    19007939.794 9   1042717.55629       112.000
  23520696.900   -11535972.071 7   -602202.49125        54.000
 96  6 11 14 57 30.0000000  0  6G 2G19G 7G26G27G15
  21174071.825   -11991627.189 9    168168.13129       122.000
  22572844.195    17706581.483 8   2987219.68726        70.000
  20778578.270    -2609855.292 9  -1888869.52129       108.000
  23369735.569   -22521815.107 7  -1509410.71126        62.000
  20410555.686    19030838.892 9   1060561.00129       116.000
  23520869.131   -11535074.396 7   -601502.97925        54.000
 96  6 11 14 57 45.0000000  0  6G 2G19G 7G26G27G15
  21175350.860   -11984903.139 9    173407.64629       122.000
  22581868.937    17753981.544 8   3024154.79226        70.000
  20775272.098    -2627209.700 9  -1902392.43129       106.000
  23366998.823   -22536198.487 7  -1520618.54126        62.000
  20414939.611    19053876.191 9   1078512.14229       114.000
  23521059.619   -11534018.633 7   -600680.31825        54.000
 96  6 11 14 58  0.0000000  0  6G 2G19G 7G26G27G15
  21176649.860   -11978100.064 9    178708.76629       124.000
  22590894.819    17801476.815 7   3061164.08926        62.000
  20772000.853    -2644421.646 9  -1915804.29829       104.000
  23364291.997   -22550426.501 7  -1531705.28526        60.000
  20419349.379    19077063.340 9   1096580.06729       118.000
  23521295.316   -11532796.179 7   -599727.72125        52.000
 96  6 11 14 58 15.0000000  0  6G 2G19G 7G26G27G15
  21177953.748   -11971228.937 9    184062.88829       122.000
  22599951.309    17849061.045 7   3098242.67726        62.000
  20768750.263    -2661499.104 9  -1929111.40829       104.000
  23361610.923   -22564512.267 7  -1542681.21626        62.000
  20423788.286    19100393.413 9   1114759.33229       118.000
  23521567.857   -11531415.910 7   -598652.23325        56.000
 96  6 11 14 58 30.0000000  0  6G 2G19G 7G26G27G15
  21179270.706   -11964292.588 9    189467.81629       122.000
  22609022.160    17896735.037 7   3135391.19126        62.000
  20765526.685    -2678444.191 9  -1942315.38629       104.000
  23358954.492   -22578457.378 8  -1553547.57126        64.000
  20428259.061    19123865.364 9   1133049.13929       118.000
  23521852.241   -11529879.309 7   -597454.91125        54.000
 96  6 11 14 58 45.0000000  0  6G 2G19G 7G26G27G15
  21180603.313   -11957293.325 9    194921.77329       120.000
  22618116.574    17944497.897 7   3172608.97526        62.000
  20762326.131    -2695257.650 9  -1955416.78629       104.000
  23356330.769   -22592264.242 8  -1564306.18526        64.000
  20432752.320    19147480.273 9   1151450.34829       120.000
  23522181.682   -11528187.455 7   -596136.58925        54.000
 96  6 11 14 59  0.0000000  0  6G 2G19G 7G26G27G15
  21181948.662   -11950229.379 9    200426.14329       120.000
  22627221.151    17992352.584 7   3209898.32426        60.000
  20759154.416    -2711930.469 9  -1968408.57929       104.000
  23353728.930   -22605929.409 8  -1574954.37326        64.000
  20437273.160    19171241.844 9   1169965.85629       122.000
  23522530.671   -11526336.239 7   -594694.09725        52.000
 96  6 11 14 59 15.0000000  0  6G 2G19G 7G26G27G15
  21183307.921   -11943099.164 9    205982.16329       122.000
  22636346.413    18040302.266 7   3247261.70326        58.000
  20756007.315    -2728454.421 9  -1981284.37429       102.000
  23351156.351   -22619448.592 8  -1585488.77526        64.000
  20441821.192    19195153.510 9   1188598.32429       122.000
  23522905.202   -11524321.385 7   -593124.05126        52.000
 96  6 11 14 59 30.0000000  0  6G 2G19G 7G26G27G15
  21184675.484   -11935916.540 9    211578.99929       120.000
  22645481.539    18088338.390 7   3284692.42926        58.000
  20752887.465    -2744838.232 9  -1994050.98429       102.000
  23348611.653   -22632830.624 7  -1595916.34426        62.000
  20446398.903    19219205.554 9   1207340.15729       124.000
  23523326.560   -11522152.560 7   -591434.07725        52.000
 96  6 11 14 59 45.0000000  0  6G 2G19G 7G26G27G15
  21186051.562   -11928676.911 9    217220.26529       120.000
  22654650.961    18136471.921 7   3322199.02726        60.000
  20749803.590    -2761075.885 9  -2006703.70529       104.000
  23346092.347   -22646067.807 7  -1606231.04226        62.000
  20451004.194    19243406.045 9   1226197.67229       124.000
  23523770.283   -11519823.302 7   -589619.09025        52.000
 96  6 11 15  0  0.0000000  0  6G 2G19G 7G26G27G15
  21187439.901   -11921389.837 9    222898.52029       120.000
  22663826.949    18184702.522 7   3359781.29626        58.000
  20746740.281    -2777173.493 9  -2019247.27529       102.000
  23343597.414   -22659167.481 7  -1616438.56926        62.000
  20455636.677    19267748.318 9   1245165.68429       126.000
  23524242.606   -11517338.321 7   -587682.76625        54.000
 96  6 11 15  0 15.0000000  0  6G 2G19G 7G26G27G15
  21188829.289   -11914062.477 9    228608.15129       120.000
  22673023.802    18233028.866 7   3397438.16526        60.000
  20743700.745    -2793133.908 9  -2031683.95329       102.000
  23341135.278   -22672132.205 7  -1626540.94226        60.000
  20460291.795    19292225.592 9   1264238.88029       122.000
  23524746.287   -11514700.302 7   -585627.14525        54.000
 96  6 11 15  0 30.0000000  0  6G 2G19G 7G26G27G15
  21190231.688   -11906691.629 9    234351.66829       120.000
  22682240.622    18281449.922 7   3435168.83526        60.000
  20740689.180    -2808955.840 9  -2044012.72929       102.000
  23338693.739   -22684957.807 7  -1636534.92526        62.000
  20464978.001    19316834.479 9   1283414.62729       126.000
  23525272.573   -11511908.608 7   -583451.83525        54.000
 96  6 11 15  0 45.0000000  0  6G 2G19G 7G26G27G15
  21191642.991   -11899278.800 9    240127.87329       120.000
  22691468.413    18329958.694 7   3472967.83526        60.000
  20737702.497    -2824642.446 9  -2056236.07429       104.000
  23336276.002   -22697644.291 7  -1646420.52526        58.000
  20469685.731    19341570.539 9   1302689.45229       124.000
  23525832.675   -11508966.850 7   -581159.57026        56.000
 96  6 11 15  1  0.0000000  0  6G 2G19G 7G26G27G15
  21193064.157   -11891821.443 9    245938.80429       120.000
  22700722.857    18378556.230 8   3510836.04826        64.000
  20734746.424    -2840190.141 9  -2068351.14329       104.000
  23333884.798   -22710185.592 7  -1656192.95426        58.000
  20474414.328    19366436.017 9   1322065.14529       124.000
  23526424.405   -11505871.356 7   -578747.49726        56.000
 96  6 11 15  1 15.0000000  0  6G 2G19G 7G26G27G15
  21194491.499   -11884307.785 9    251793.58229       118.000
  22709983.176    18427252.329 7   3548781.00926        60.000
  20731814.963    -2855591.467 9  -2080352.19429       104.000
  23331536.853   -22722568.740 7  -1665842.16326        62.000
  20479176.291    19391437.624 9   1341546.90529       126.000
  23527048.124   -11502611.937 7   -576207.72326        58.000
 96  6 11 15  1 30.0000000  0  6G 2G19G 7G26G27G15
  21195931.882   -11876741.770 9    257689.19729       120.000
  22719271.016    18476039.718 7   3586797.12726        62.000
  20728911.833    -2870857.764 9  -2092247.98529       106.000
  23329205.667   -22734802.659 7  -1675375.06326        60.000
  20483954.773    19416568.234 9   1361129.20129       124.000
  23527693.247   -11499195.762 7   -573545.74525        56.000
 96  6 11 15  1 45.0000000  0  6G 2G19G 7G26G27G15
  21197382.487   -11869131.499 9    263619.28629       118.000
  22728565.871    18524909.803 7   3624877.71626        62.000
  20726028.069    -2886001.814 9  -2104048.53629       106.000
  23326905.809   -22746900.163 7  -1684801.70726        62.000
  20488763.204    19441820.239 9   1380806.08329       124.000
  23528373.596   -11495632.647 7   -570769.31526        54.000
 96  6 11 15  2  0.0000000  0  6G 2G19G 7G26G27G15
  21198840.738   -11861472.815 9    269587.08929       120.000
  22737880.813    18573863.550 7   3663023.48226        62.000
  20723169.009    -2901020.866 9  -2115751.69029       106.000
  23324626.517   -22758860.032 7  -1694121.07626        62.000
  20493589.713    19467196.260 9   1400579.60229       126.000
  23529073.641   -11491919.474 7   -567875.92526        54.000
 96  6 11 15  2 15.0000000  0  6G 2G19G 7G26G27G15
  21200308.702   -11853759.149 9    275597.74029       120.000
  22747215.450    18622903.125 8   3701236.11826        66.000
  20720338.128    -2915907.252 9  -2127351.45629       104.000
  23322384.069   -22770675.846 7  -1703328.18326        62.000
  20498443.983    19492703.017 9   1420454.99129       124.000
  23529815.658   -11488050.103 7   -564860.81626        52.000
 96  6 11 15  2 30.0000000  0  6G 2G19G 7G26G27G15
  21201790.036   -11845983.410 9    281656.76229       122.000
  22756563.849    18672026.685 8   3739514.19126        64.000
  20717528.773    -2930658.780 9  -2138846.15529       104.000
  23320158.590   -22782344.470 7  -1712420.61926        60.000
  20503324.963    19518344.738 9   1440435.55429       124.000
  23530583.876   -11484022.950 7   -561722.76326        52.000
 96  6 11 15  2 45.0000000  0  6G 2G19G 7G26G27G15
  21203275.208   -11838150.883 9    287760.00929       122.000
  22765920.671    18721224.734 8   3777850.29926        66.000
  20714746.399    -2945283.872 9  -2150242.34329       106.000
  23317967.407   -22793872.173 7  -1721403.23726        62.000
  20508228.009    19544117.206 9   1460517.97629       124.000
  23531376.557   -11479844.872 7   -558467.11626        50.000
 96  6 11 15  3  0.0000000  0  6G 2G19G 7G26G27G15
  21204777.558   -11830262.826 9    293906.55429       122.000
  22775305.914    18770500.672 8   3816247.11126        66.000
  20711986.750    -2959782.340 9  -2161539.84429       104.000
  23315798.918   -22805257.610 7  -1730274.99526        58.000
  20513156.207    19570025.840 9   1480706.51929       124.000
  23532201.646   -11475512.884 7   -555091.54826        52.000
 96  6 11 15  3 15.0000000  0  6G 2G19G 7G26G27G15
  21206288.992   -11822324.645 9    300092.12929       122.000
  22784691.936    18819850.787 8   3854701.69026        64.000
  20709252.373    -2974161.748 9  -2172744.57829       106.000
  23313656.242   -22816508.679 7  -1739042.06026        60.000
  20518115.164    19596067.449 9   1500998.65529       126.000
  23533050.058   -11471032.380 7   -551600.28226        50.000
 96  6 11 15  3 30.0000000  0  6G 2G19G 7G26G27G15
  21207808.909   -11814333.824 9    306318.75129       122.000
  22794099.963    18869278.112 8   3893216.49126        68.000
  20706536.613    -2988420.434 9  -2183855.23629       106.000
  23311541.835   -22827626.690 7  -1747705.45926        60.000
  20523096.876    19622248.463 9   1521399.45429       124.000
  23533933.037   -11466400.810 7   -547991.24226        50.000
 96  6 11 15  3 45.0000000  0  6G 2G19G 7G26G27G15
  21209337.941   -11806290.291 9    312586.44829       122.000
  22803512.727    18918786.554 7   3931794.47326        62.000
  20703847.595    -3002552.839 9  -2194867.49329       106.000
  23309456.389   -22838609.892 7  -1756263.77526        60.000
  20528111.834    19648576.866 9   1541915.09029       126.000
  23534844.196   -11461615.038 7   -544262.07026        50.000
 96  6 11 15  4  0.0000000  0  6G 2G19G 7G26G27G15
  21210880.523   -11798194.555 9    318894.81229       124.000
  22812952.022    18968376.938 8   3970436.32426        64.000
  20701183.759    -3016556.306 9  -2205779.28429       106.000
  23307388.930   -22849453.233 7  -1764713.13026        62.000
  20533145.079    19675053.978 9   1562546.59329       122.000
  23535788.183   -11456673.508 7   -540411.54726        50.000
 96  6 11 15  4 15.0000000  0  6G 2G19G 7G26G27G15
  21212427.482   -11790048.946 9    325242.02329       122.000
  22822403.249    19018044.902 7   4009138.60426        62.000
  20698542.947    -3030432.382 9  -2216591.81229       106.000
  23305350.851   -22860155.921 8  -1773052.88326        64.000
  20538211.002    19701675.525 9   1583290.64029       124.000
  23536750.577   -11451578.339 7   -536441.32826        50.000
 96  6 11 15  4 30.0000000  0  6G 2G19G 7G26G27G15
  21213991.889   -11781840.612 9    331638.12329       120.000
  22831873.933    19067804.727 8   4047912.45726        64.000
  20695931.785    -3044166.927 9  -2227294.06129       110.000
  23303348.448   -22870702.247 8  -1781270.77926        68.000
  20543307.714    19728455.820 9   1604158.39829       124.000
  23537749.185   -11446316.139 7   -532340.92726        48.000
 96  6 11 15  4 45.0000000  0  6G 2G19G 7G26G27G15
  21215565.050   -11773581.020 9    338074.16229       120.000
  22841356.368    19117647.983 8   4086751.32426        64.000
  20693341.458    -3057772.694 9  -2237895.95429       108.000
  23301365.500   -22881101.149 8  -1789373.81426        64.000
  20548433.056    19755383.693 9   1625141.14429       124.000
  23538782.930   -11440896.241 7   -528117.66226        50.000
 96  6 11 15  5  0.0000000  0  6G 2G19G 7G26G27G15
  21217147.474   -11765274.652 9    344546.63329       120.000
  22850863.386    19167575.365 8   4125655.72826        66.000
  20690777.363    -3071250.084 9  -2248397.83529       108.000
  23299415.800   -22891356.015 8  -1797364.61826        66.000
  20553580.013    19782457.933 9   1646237.92929       122.000
  23539849.351   -11435320.095 7   -523772.63826        54.000
 96  6 11 15  5 15.0000000  0  6G 2G19G 7G26G27G15
  21218735.445   -11756922.904 9    351054.51429       120.000
  22860372.623    19217585.198 8   4164624.44826        64.000
  20688236.472    -3084602.844 9  -2258802.55729       108.000
  23297489.933   -22901474.732 8  -1805249.31726        64.000
  20558761.536    19809674.623 9   1667445.76029       120.000
  23540939.007   -11429592.108 7   -519309.23926        50.000
 96  6 11 15  5 30.0000000  0  6G 2G19G 7G26G27G15
  21220331.990   -11748526.382 9    357597.25629       120.000
  22869910.610    19267672.936 8   4203653.82826        64.000
  20685718.365    -3097832.857 9  -2269111.65429       108.000
  23295586.521   -22911462.897 7  -1813032.30226        62.000
  20563969.590    19837027.089 9   1688759.35429       124.000
  23542057.922   -11423716.376 7   -514730.74826        50.000
 96  6 11 15  5 45.0000000  0  6G 2G19G 7G26G27G15
  21221939.597   -11740078.444 9    364180.06129       122.000
  22879458.640    19317846.870 8   4242750.36826        64.000
  20683225.441    -3110930.733 9  -2279317.79129       110.000
  23293708.231   -22921312.399 7  -1820707.25026        60.000
  20569197.041    19864518.063 9   1710180.88129       122.000
  23543210.534   -11417685.635 7   -510031.46826        52.000
 96  6 11 15  6  0.0000000  0  6G 2G19G 7G26G27G15
  21223556.647   -11731579.907 9    370802.30229       120.000
  22889020.521    19368104.933 8   4281912.51226        64.000
  20680755.541    -3123897.036 9  -2289421.39029       110.000
  23291862.649   -22931024.472 8  -1828275.07926        66.000
  20574456.120    19892140.762 9   1731705.07129       120.000
  23544378.316   -11411501.320 7   -505212.50826        48.000
 96  6 11 15  6 15.0000000  0  6G 2G19G 7G26G27G15
  21225186.529   -11723027.829 9    377466.24129       122.000
  22898604.136    19418445.583 8   4321138.93226        64.000
  20678315.380    -3136733.964 9  -2299424.20729       112.000
  23290042.789   -22940601.276 8  -1835737.52526        64.000
  20579734.896    19919890.665 9   1753328.35429       118.000
  23545586.869   -11405164.053 7   -500274.38726        52.000
 96  6 11 15  6 30.0000000  0  6G 2G19G 7G26G27G15
  21226825.315   -11714415.734 9    384176.97829       122.000
  22908199.953    19468873.838 7   4360433.63526        60.000
  20675900.372    -3149434.596 9  -2309320.78729       112.000
  23288253.328   -22950039.176 8  -1843091.72226        70.000
  20585039.783    19947775.414 9   1775056.72929       116.000
  23546825.282   -11398668.032 7   -495212.55326        52.000
 96  6 11 15  6 45.0000000  0  6G 2G19G 7G26G27G15
  21228473.214   -11705750.765 9    390928.87529       122.000
  22917808.571    19519381.503 7   4399790.21326        60.000
  20673509.077    -3162008.902 9  -2319118.98029       112.000
  23286479.486   -22959349.689 8  -1850346.70726        70.000
  20590372.252    19975787.029 9   1796883.92229       118.000
  23548090.196   -11392021.957 7   -490033.83226        54.000
 96  6 11 15  7  0.0000000  0  6G 2G19G 7G26G27G15
  21230131.276   -11697026.634 9    397726.90329       120.000
  22927432.329    19569972.326 7   4439211.62426        60.000
  20671138.678    -3174453.176 9  -2328815.79729       114.000
  23284728.458   -22968531.734 8  -1857501.53126        70.000
  20595727.325    20003930.019 9   1818813.53229       116.000
  23549385.000   -11385222.121 7   -484735.23826        52.000
 96  6 11 15  7 15.0000000  0  6G 2G19G 7G26G27G15
  21231803.968   -11688244.591 9    404570.05329       120.000
  22937078.091    19620643.056 7   4478695.28526        58.000
  20668793.792    -3186768.615 9  -2338412.24429       112.000
  23283002.343   -22977589.280 8  -1864559.36226        68.000
  20601105.362    20032201.155 9   1840842.96529       116.000
  23550708.584   -11378272.107 7   -479319.64426        52.000
 96  6 11 15  7 30.0000000  0  6G 2G19G 7G26G27G15
  21233486.073   -11679399.353 9    411462.46729       118.000
  22946735.815    19671397.113 7   4518243.90726        58.000
  20666477.415    -3198948.590 9  -2347903.11029       112.000
  23281306.597   -22986513.143 8  -1871512.99426        68.000
  20606514.037    20060604.055 9   1862975.11729       116.000
  23552057.110   -11371165.103 7   -473781.68626        52.000
 96  6 11 15  7 45.0000000  0  6G 2G19G 7G26G27G15
  21235179.091   -11670502.178 9    418395.31029       122.000
  22956409.878    19722226.454 7   4557851.12926        56.000
  20664184.663    -3210998.717 9  -2357292.84329       112.000
  23279632.496   -22995306.507 8  -1878364.98026        68.000
  20611939.921    20089130.193 9   1885203.24629       116.000
  23553434.027   -11363908.216 7   -468126.99726        52.000
 96  6 11 15  8  0.0000000  0  6G 2G19G 7G26G27G15
  21236882.122   -11661555.207 9    425366.96829       120.000
  22966094.104    19773131.330 7   4597517.21826        56.000
  20661916.973    -3222919.957 9  -2366582.12329       112.000
  23277984.567   -23003964.420 8  -1885111.42326        64.000
  20617392.306    20117782.574 9   1907529.76529       114.000
  23554845.030   -11356500.420 7   -462354.71126        52.000
 96  6 11 15  8 15.0000000  0  6G 2G19G 7G26G27G15
  21238595.766   -11652558.466 9    432377.43529       120.000
  22975794.878    19824109.188 7   4637240.19626        54.000
  20659669.458    -3234714.435 9  -2375772.60129       112.000
  23276363.019   -23012484.928 8  -1891750.78226        66.000
  20622873.382    20146562.782 9   1929955.91529       116.000
  23556283.704   -11348942.714 7   -456465.56926        52.000
 96  6 11 15  8 30.0000000  0  6G 2G19G 7G26G27G15
  21240316.335   -11643508.314 9    439429.48029       118.000
  22985509.413    19875161.729 7   4677021.37526        56.000
  20657455.281    -3246377.037 9  -2384860.36429       114.000
  23274775.019   -23020860.696 8  -1898277.38026        68.000
  20628371.096    20175477.591 9   1952486.90829       114.000
  23557749.899   -11341231.185 7   -450456.60726        50.000
 96  6 11 15  8 45.0000000  0  6G 2G19G 7G26G27G15
  21242048.026   -11634410.904 9    446518.36329       120.000
  22995244.004    19926286.296 7   4716858.66426        56.000
  20655253.815    -3257912.078 9  -2393848.71029       114.000
  23273205.575   -23029095.012 8  -1904693.74026        68.000
  20633900.858    20204525.367 9   1975121.52629       114.000
  23559249.671   -11333369.385 7   -444330.52626        54.000
 96  6 11 15  9  0.0000000  0  6G 2G19G 7G26G27G15
  21243788.471   -11625266.940 9    453643.53629       118.000
  23004973.498    19977485.658 7   4756754.26126        52.000
  20653088.324    -3269318.884 9  -2402737.13029       112.000
  23271667.490   -23037186.828 8  -1910999.05126        74.000
  20639454.213    20233705.238 9   1997859.07729       114.000
  23560773.906   -11325356.542 7   -438086.75226        50.000
 96  6 11 15  9 15.0000000  0  6G 2G19G 7G26G27G15
  21245538.300   -11616073.894 9    460806.96129       118.000
  23014738.458    20028764.797 7   4796712.00226        54.000
  20650940.791    -3280590.986 9  -2411520.57829       112.000
  23270148.202   -23045129.132 8  -1917187.83226        72.000
  20645030.653    20263021.841 9   2020703.18129       112.000
  23562320.985   -11317186.828 7   -431720.72625        50.000
 96  6 11 15  9 30.0000000  0  6G 2G19G 7G26G27G15
  21247295.174   -11606836.729 9    468004.73429       118.000
  23024509.444    20080119.009 7   4836728.21526        54.000
  20648818.620    -3291731.003 9  -2420201.11929       110.000
  23268667.107   -23052922.889 8  -1923260.90326        74.000
  20650633.894    20292470.643 9   2043650.27929       112.000
  23563914.771   -11308862.684 7   -425234.42425        52.000
 96  6 11 15  9 45.0000000  0  6G 2G19G 7G26G27G15
  21249060.352   -11597559.942 9    475233.38129       118.000
  23034295.509    20131545.048 7   4876800.42226        54.000
  20646721.902    -3302746.206 9  -2428784.40529       112.000
  23267212.064   -23060571.698 8  -1929221.04926        70.000
  20656266.214    20322048.174 9   2066697.68429       116.000
  23565527.385   -11300387.054 7   -418630.06125        52.000
 96  6 11 15 10  0.0000000  0  6G 2G19G 7G26G27G15
  21250834.523   -11588238.455 9    482496.91329       118.000
  23044095.335    20183047.983 7   4916932.59626        56.000
  20644651.805    -3313634.931 9  -2437269.09129       110.000
  23265789.039   -23068070.933 8  -1935064.56626        70.000
  20661920.090    20351758.112 9   2089848.30829       118.000
  23567169.318   -11291756.275 7   -411904.73725        52.000
 96  6 11 15 10 15.0000000  0  6G 2G19G 7G26G27G15
  21252616.820   -11578874.118 9    489793.77429       116.000
  23053919.084    20234622.020 7   4957120.11326        58.000
  20642603.923    -3324400.194 9  -2445657.63129       112.000
  23264383.462   -23075429.328 8  -1940798.40226        64.000
  20667594.712    20381597.641 9   2113099.85729       118.000
  23568840.421   -11282974.861 7   -405062.11625        52.000
 96  6 11 15 10 30.0000000  0  6G 2G19G 7G26G27G15
  21254404.122   -11569468.969 9    497122.47429       116.000
  23063742.174    20286267.142 7   4997363.07026        56.000
  20640580.533    -3335040.727 9  -2453948.93929       110.000
  23263013.411   -23082653.456 8  -1946427.57826        66.000
  20673299.523    20411566.675 9   2136452.36729       120.000
  23570541.803   -11274043.994 7   -398102.99125        54.000
 96  6 11 15 10 45.0000000  0  6G 2G19G 7G26G27G15
  21256203.956   -11560027.083 9    504479.79029       120.000
  23073586.608    20337985.819 7   5037663.32626        58.000
  20638577.200    -3345556.855 9  -2462143.33229       110.000
  23261662.786   -23089746.583 8  -1951954.69626        66.000
  20679025.888    20441666.239 9   2159906.56329       118.000
  23572267.019   -11264963.920 7   -391027.55825        54.000
 96  6 11 15 11  0.0000000  0  6G 2G19G 7G26G27G15
  21258006.638   -11550546.096 9    511867.56029       116.000
  23083435.360    20389783.945 7   5078025.45626        56.000
  20636599.799    -3355946.399 9  -2470239.08629       110.000
  23260335.335   -23096706.650 8  -1957378.15326        68.000
  20684779.925    20471896.278 9   2183462.41229       120.000
  23574027.041   -11255730.479 7   -383832.61325        50.000
 96  6 11 15 11 15.0000000  0  6G 2G19G 7G26G27G15
  21259816.096   -11541033.703 9    519279.80029       116.000
  23093306.716    20441649.495 7   5118440.12226        60.000
  20634646.831    -3366217.682 9  -2478242.68429       110.000
  23259036.394   -23103540.354 8  -1962703.11826        66.000
  20690556.266    20502244.586 9   2207110.43229       122.000
  23575808.377   -11246352.849 7   -376525.36625        52.000
 96  6 11 15 11 30.0000000  0  6G 2G19G 7G26G27G15
  21261635.806   -11531484.642 9    526720.61129       118.000
  23103192.972    20493587.878 7   5158911.57826        58.000
  20632713.050    -3376366.111 9  -2486150.55529       108.000
  23257763.355   -23110241.073 8  -1967924.48526        72.000
  20696352.184    20532716.605 9   2230854.84929       118.000
  23577622.302   -11236825.629 7   -369101.56825        52.000
 96  6 11 15 11 45.0000000  0  6G 2G19G 7G26G27G15
  21263459.743   -11521898.191 9    534190.58129       116.000
  23113089.211    20545601.194 7   5199441.42926        58.000
  20630807.359    -3386393.016 9  -2493963.72129       106.000
  23256515.889   -23116808.493 8  -1973041.95826        72.000
  20702173.913    20563312.805 9   2254696.03729       120.000
  23579462.038   -11227149.516 7   -361561.77625        52.000
 96  6 11 15 12  0.0000000  0  6G 2G19G 7G26G27G15
  21265288.567   -11512276.658 9    541687.86829       116.000
  23122999.301    20597689.120 7   5240029.38726        58.000
  20628921.785    -3396298.022 9  -2501681.91229       108.000
  23255287.280   -23123245.500 8  -1978057.80226        72.000
  20708021.155    20594032.114 9   2278633.14329       120.000
  23581325.908   -11217327.435 7   -353908.22625        50.000
 96  6 11 15 12 15.0000000  0  6G 2G19G 7G26G27G15
  21267126.235   -11502612.348 9    549218.50729       116.000
  23132930.765    20649855.018 7   5280678.14126        60.000
  20627059.504    -3406070.016 9  -2509296.45029       108.000
  23254088.889   -23129548.448 8  -1982969.17626        70.000
  20713894.030    20624882.323 9   2302672.27129       122.000
  23583235.166   -11207353.420 7   -346136.23825        52.000
 96  6 11 15 12 30.0000000  0  6G 2G19G 7G26G27G15
  21268977.243   -11492906.693 9    556781.35929       118.000
  23142877.489    20702098.447 7   5321387.28126        58.000
  20625229.301    -3415709.311 9  -2516807.57129       108.000
  23252914.872   -23135718.560 8  -1987777.05226        68.000
  20719788.789    20655864.706 9   2326814.37829       122.000
  23585155.846   -11197227.632 7   -338246.00425        52.000
 96  6 11 15 12 45.0000000  0  6G 2G19G 7G26G27G15
  21270835.237   -11483159.465 9    564376.59429       118.000
  23152827.481    20754417.859 7   5362155.62126        58.000
  20623418.015    -3425220.547 9  -2524218.92929       108.000
  23251756.864   -23141750.574 7  -1992477.33026        62.000
  20725705.103    20686975.129 9   2351056.24429       120.000
  23587113.731   -11186950.192 7   -330237.61525        54.000
 96  6 11 15 13  0.0000000  0  6G 2G19G 7G26G27G15
  21272693.531   -11473364.723 9    572008.83229       118.000
  23162798.368    20806810.549 7   5402981.04126        58.000
  20621633.500    -3434604.404 9  -2531531.03829       108.000
  23250648.921   -23147639.251 8  -1997065.93226        64.000
  20731652.386    20718210.117 9   2375395.17829       122.000
  23589098.477   -11176520.109 7   -322110.28425        52.000
 96  6 11 15 13 15.0000000  0  6G 2G19G 7G26G27G15
  21274568.613   -11463521.114 9    579679.17529       118.000
  23172781.847    20859270.624 7   5443858.99526        56.000
  20619869.671    -3443862.342 9  -2538745.01329       108.000
  23249550.601   -23153387.355 7  -2001544.98926        62.000
  20737619.275    20749569.030 9   2399830.68329       124.000
  23591111.074   -11165940.048 7   -313866.11425        54.000
 96  6 11 15 13 30.0000000  0  6G 2G19G 7G26G27G15
  21276450.140   -11453630.382 9    587386.24729       118.000
  23182785.322    20911798.065 7   5484789.45726        58.000
  20618133.663    -3452992.621 9  -2545859.50029       108.000
  23248479.862   -23158994.616 8  -2005914.26626        64.000
  20743610.207    20781057.030 9   2424366.79029       124.000
  23593148.343   -11155211.060 7   -305505.84925        52.000
 96  6 11 15 13 45.0000000  0  6G 2G19G 7G26G27G15
  21278342.100   -11443693.927 9    595128.95329       116.000
  23192780.762    20964392.027 7   5525771.74426        54.000
  20616420.679    -3461997.121 9  -2552875.97829       108.000
  23247453.103   -23164464.284 8  -2010176.33726        68.000
  20749624.284    20812674.063 9   2449003.43229       124.000
  23595220.689   -11144335.002 7   -297030.98825        54.000
 96  6 11 15 14  0.0000000  0  6G 2G19G 7G26G27G15
  21280239.607   -11433705.227 9    602912.34529       116.000
  23202807.740    21017050.978 7   5566804.68326        52.000
  20614732.518    -3470872.571 9  -2559791.91729       108.000
  23246429.402   -23169793.058 8  -2014328.62326        70.000
  20755668.100    20844423.195 9   2473743.00829       124.000
  23597321.035   -11133308.715 7   -288439.04425        54.000
 96  6 11 15 14 15.0000000  0  6G 2G19G 7G26G27G15
  21282151.203   -11423665.568 9    610735.45129       116.000
  23212833.760    21069768.120 7   5607882.97126        50.000
  20613062.674    -3479621.365 9  -2566609.15829       108.000
  23245442.785   -23174984.292 8  -2018373.74026        70.000
  20761737.578    20876302.187 9   2498583.75829       124.000
  23599447.522   -11122134.332 7   -279731.77725        56.000
 96  6 11 15 14 30.0000000  0  6G 2G19G 7G26G27G15
  21284070.804   -11413576.614 9    618596.98729       114.000
  23222880.374    21122541.639 7   5649005.14826        52.000
  20611424.128    -3488250.418 9  -2573333.07229       108.000
  23244479.941   -23180038.794 8  -2022312.30526        72.000
  20767826.483    20908309.335 9   2523524.39929       126.000
  23601604.679   -11110813.885 7   -270910.62225        52.000
 96  6 11 15 14 45.0000000  0  6G 2G19G 7G26G27G15
  21286002.787   -11403434.533 9    626499.88429       116.000
  23232931.456    21175380.086 7   5690177.89926        50.000
  20609803.990    -3496754.914 9  -2579959.96629       110.000
  23243544.349   -23184946.318 8  -2026136.37326        66.000
  20773940.480    20940449.368 9   2548568.55329       122.000
  23603785.819   -11099341.110 7   -261970.81225        56.000
 96  6 11 15 15  0.0000000  0  6G 2G19G 7G26G27G15
  21287939.236   -11393246.573 9    634438.55529       116.000
  23243002.384    21228276.942 7   5731396.21426        50.000
  20608213.171    -3505139.338 9  -2586493.28929       108.000
  23242641.494   -23189713.168 8  -2029850.80826        70.000
  20780084.007    20972715.753 9   2573711.18329       122.000
  23605989.923   -11087722.644 7   -252917.49425        52.000
 96  6 11 15 15 15.0000000  0  6G 2G19G 7G26G27G15
  21289887.917   -11383011.204 9    642414.15829       120.000
  23253072.923    21281238.178 7   5772664.67526        46.000
  20606639.021    -3513397.681 9  -2592928.35829       110.000
  23241762.473   -23194340.568 8  -2033456.58026        66.000
  20786247.710    21005116.434 9   2598958.45329       120.000
  23608228.953   -11075954.310 7   -243747.35725        54.000
 96  6 11 15 15 30.0000000  0  6G 2G19G 7G26G27G15
  21291843.344   -11372728.462 9    650426.68429       116.000
  23263173.530    21334267.473 7   5813986.16826        48.000
  20605089.423    -3521529.070 9  -2599264.50129       108.000
  23240903.747   -23198827.035 8  -2036952.51626        64.000
  20792435.666    21037653.017 9   2624311.63329       120.000
  23610502.219   -11064034.637 7   -234459.32225        56.000
 96  6 11 15 15 45.0000000  0  6G 2G19G 7G26G27G15
  21293807.464   -11362401.830 9    658473.44529       118.000
  23273268.981    21387361.746 7   5855358.34326        46.000
  20603565.548    -3529541.660 9  -2605508.06429       108.000
  23240074.911   -23203177.485 8  -2040342.47226        64.000
  20798655.820    21070315.982 9   2649763.30129       122.000
  23612800.398   -11051968.584 7   -225057.19725        56.000
 96  6 11 15 16  0.0000000  0  6G 2G19G 7G26G27G15
  21295786.634   -11352029.768 9    666555.54729       118.000
  23283387.306    21440517.814 7   5896778.61126        46.000
  20602062.179    -3537439.365 9  -2611662.10129       108.000
  23239275.994   -23207394.603 8  -2043628.54226        64.000
  20804894.052    21103102.422 9   2675311.16929       118.000
  23615120.942   -11039757.024 7   -215541.65925        54.000
 96  6 11 15 16 15.0000000  0  6G 2G19G 7G26G27G15
  21297765.324   -11341613.745 9    674671.90829       120.000
  23293516.004    21493741.233 7   5938251.34326        46.000
  20600587.290    -3545217.969 9  -2617723.36729       110.000
  23238497.313   -23211477.065 8  -2046809.69626        66.000
  20811153.298    21136015.861 9   2700957.96729       120.000
  23617473.144   -11027397.159 7   -205910.64725        56.000
 96  6 11 15 16 30.0000000  0  6G 2G19G 7G26G27G15
  21299751.689   -11331165.385 9    682813.45229       120.000
  23303660.322    21547029.288 7   5979774.45726        48.000
  20599126.222    -3552882.682 9  -2623695.88929       110.000
  23237747.052   -23215433.489 8  -2049892.66126        68.000
  20817443.634    21169049.752 9   2726698.64629       118.000
  23619850.378   -11014895.482 7   -196169.11425        56.000
 96  6 11 15 16 45.0000000  0  6G 2G19G 7G26G27G15
  21301749.716   -11320683.594 9    690981.09429       120.000
  23313807.337    21600387.012 7   6021351.89226        48.000
  20597688.267    -3560428.345 9  -2629575.61429       108.000
  23237015.679   -23219260.140 8  -2052874.45626        68.000
  20823753.875    21202206.148 9   2752534.78829       118.000
  23622259.510   -11002247.291 7   -186313.38825        54.000
 96  6 11 15 17  0.0000000  0  6G 2G19G 7G26G27G15
  21303754.488   -11310163.055 9    699178.92829       120.000
  23323980.224    21653820.145 7   6062988.08826        50.000
  20596278.193    -3567845.270 9  -2635355.00929       108.000
  23236314.015   -23222952.695 8  -2055751.74326        68.000
  20830083.543    21235489.514 9   2778469.89829       116.000
  23624701.649   -10989446.770 7   -176338.95825        56.000
 96  6 11 15 17 15.0000000  0  6G 2G19G 7G26G27G15
  21305756.742   -11299608.673 9    707403.10829       120.000
  23334159.168    21707320.625 7   6104676.77526        50.000
  20594887.816    -3575142.322 9  -2641041.02929       106.000
  23235634.685   -23226522.522 8  -2058533.41626        68.000
  20836440.852    21268892.855 9   2804498.46529       116.000
  23627162.256   -10976501.125 7   -166251.44025        54.000
 96  6 11 15 17 30.0000000  0  6G 2G19G 7G26G27G15
  21307773.895   -11289014.127 9    715658.59229       118.000
  23344359.336    21760895.214 7   6146423.17726        52.000
  20593526.069    -3582315.154 9  -2646630.25229       108.000
  23234978.019   -23229962.298 8  -2061213.78326        66.000
  20842823.224    21302421.574 9   2830624.71929       116.000
  23629652.722   -10963404.780 7   -156046.48826        56.000
 96  6 11 15 17 45.0000000  0  6G 2G19G 7G26G27G15
  21309791.288   -11278391.898 9    723935.64329       118.000
  23354565.711    21814533.422 7   6188219.13225        52.000
  20592184.287    -3589371.848 9  -2652128.98129       106.000
  23234348.545   -23233280.198 8  -2063799.18226        66.000
  20849227.000    21336064.707 9   2856840.12129       116.000
  23632169.749   -10950167.306 7   -145731.58726        56.000
 96  6 11 15 18  0.0000000  0  6G 2G19G 7G26G27G15
  21311822.862   -11267735.589 9    732239.26929       118.000
  23364783.297    21868243.900 7   6230071.44825        52.000
  20590862.562    -3596300.331 9  -2657527.78229       108.000
  23233747.132   -23236467.459 8  -2066282.75326        68.000
  20855651.253    21369834.071 9   2883153.91729       114.000
  23634721.043   -10936779.176 7   -135299.29125        56.000
 96  6 11 15 18 15.0000000  0  6G 2G19G 7G26G27G15
  21313853.356   -11257052.315 9    740563.88429       120.000
  23375017.132    21922020.780 7   6271975.46825        52.000
  20589569.528    -3603100.383 9  -2662826.52129       108.000
  23233156.780   -23239527.992 8  -2068667.58826        66.000
  20862101.078    21403726.372 9   2909563.48729       114.000
  23637292.723   -10923244.108 7   -124752.51025        56.000
 96  6 11 15 18 30.0000000  0  6G 2G19G 7G26G27G15
  21315889.187   -11246351.325 9    748902.32129       118.000
  23385263.289    21975853.621 7   6313923.14525        50.000
  20588297.628    -3609782.232 9  -2668033.14329       108.000
  23232597.697   -23242470.030 7  -2070960.09026        62.000
  20868573.267    21437729.152 9   2936059.15829       116.000
  23639896.510   -10909572.139 7   -114099.01925        54.000
 96  6 11 15 18 45.0000000  0  6G 2G19G 7G26G27G15
  21317935.690   -11235622.672 9    757262.29029       120.000
  23395511.784    22029743.469 7   6355915.19725        50.000
  20587049.232    -3616344.208 9  -2673146.37529       106.000
  23232061.608   -23245286.833 8  -2073155.02426        70.000
  20875064.074    21471846.629 9   2962644.19329       114.000
  23642526.799   -10895758.669 7   -103335.28725        60.000
 96  6 11 15 19  0.0000000  0  6G 2G19G 7G26G27G15
  21319982.643   -11224859.503 9    765649.16129       118.000
  23405781.984    22083693.541 7   6397954.17925        50.000
  20585819.963    -3622783.213 9  -2678163.78929       108.000
  23231552.681   -23247971.928 8  -2075247.30826        68.000
  20881577.785    21506083.629 9   2989322.34229       114.000
  23645182.990   -10881800.198 7    -92458.58125        56.000
 96  6 11 15 19 15.0000000  0  6G 2G19G 7G26G27G15
  21322038.560   -11214057.540 9    774066.25229       122.000
  23416056.981    22137706.559 7   6440042.18925        50.000
  20584618.185    -3629099.861 9  -2683085.86929       106.000
  23231066.627   -23250521.479 8  -2077234.01126        68.000
  20888118.057    21540443.120 9   3016095.95029       114.000
  23647860.587   -10867695.897 7    -81468.25925        54.000
 96  6 11 15 19 30.0000000  0  6G 2G19G 7G26G27G15
  21324102.721   -11203215.629 9    782514.52729       122.000
  23426350.625    22191780.364 7   6482177.62225        48.000
  20583440.001    -3635297.105 9  -2687914.85029       110.000
  23230611.572   -23252933.399 8  -2079113.40726        68.000
  20894676.017    21574925.635 9   3042965.46329       112.000
  23650577.246   -10853445.816 7    -70364.26626        58.000
 96  6 11 15 19 45.0000000  0  6G 2G19G 7G26G27G15
  21326173.387   -11192332.174 9    790995.10829       122.000
  23436647.686    22245916.683 7   6524361.75225        48.000
  20582285.500    -3641370.822 9  -2692647.61629       108.000
  23230175.524   -23255205.342 8  -2080883.74526        66.000
  20901266.025    21609531.692 9   3069931.19529       114.000
  23653314.411   -10839047.672 7    -59144.95825        60.000
 96  6 11 15 20  0.0000000  0  6G 2G19G 7G26G27G15
  21328249.450   -11181409.258 9    799506.48129       122.000
  23446963.935    22300109.367 7   6566589.80325        48.000
  20581153.664    -3647325.131 9  -2697287.32929       108.000
  23229769.365   -23257343.256 8  -2082549.63726        64.000
  20907872.791    21644257.848 9   3096990.53729       114.000
  23656079.967   -10824505.495 7    -47813.40425        56.000
 96  6 11 15 20 15.0000000  0  6G 2G19G 7G26G27G15
  21330342.211   -11170437.348 9    808056.01229       122.000
  23457281.622    22354361.267 7   6608863.98625        50.000
  20580042.993    -3653157.336 9  -2701831.90329       108.000
  23229392.646   -23259342.366 8  -2084107.40226        66.000
  20914503.241    21679108.839 9   3124147.15229       112.000
  23658880.598   -10809814.272 7    -36365.71225        56.000
 96  6 11 15 20 30.0000000  0  6G 2G19G 7G26G27G15
  21332438.360   -11159410.525 9    816648.31029       122.000
  23467625.811    22408675.843 7   6651186.99225        52.000
  20578954.027    -3658867.058 9  -2706281.05529       108.000
  23229037.572   -23261198.389 7  -2085553.66626        62.000
  20921160.192    21714086.377 9   3151402.34429       112.000
  23661707.401   -10794971.059 7    -24799.58026        58.000
 96  6 11 15 20 45.0000000  0  6G 2G19G 7G26G27G15
  21334546.681   -11148325.829 9    825285.73129       122.000
  23477979.653    22463057.071 7   6693561.95125        50.000
  20577894.080    -3664452.883 9  -2710633.64129       108.000
  23228707.980   -23262907.644 8  -2086885.58026        64.000
  20927843.975    21749195.425 9   3178760.02629       110.000
  23664555.759   -10779972.578 7    -13112.47526        58.000
 96  6 11 15 21  0.0000000  0  6G 2G19G 7G26G27G15
  21336664.894   -11137197.422 9    833957.23929       124.000
  23488335.684    22517492.837 7   6735979.40425        50.000
  20576855.120    -3669924.554 9  -2714897.25629       108.000
  23228411.755   -23264483.692 8  -2088113.66826        64.000
  20934542.718    21784424.485 9   3206211.24529       108.000
  23667438.953   -10764831.151 7     -1313.96226        58.000
 96  6 11 15 21 15.0000000  0  6G 2G19G 7G26G27G15
  21338790.363   -11126029.320 9    842659.60929       124.000
  23498702.597    22571980.028 7   6778436.89525        48.000
  20575831.778    -3675283.173 9  -2719072.82229       108.000
  23228142.512   -23265930.000 8  -2089240.69026        68.000
  20941272.968    21819768.204 9   3233751.76329       112.000
  23670353.026   -10749549.763 7     10593.57826        58.000
 96  6 11 15 21 30.0000000  0  6G 2G19G 7G26G27G15
  21340923.956   -11114818.568 9    851395.25729       122.000
  23509078.114    22626519.196 7   6820934.94325        46.000
  20574833.889    -3680527.030 9  -2723158.94229       110.000
  23227884.270   -23267246.018 8  -2090266.15826        66.000
  20948020.277    21855228.046 9   3261382.79529       112.000
  23673289.103   -10734124.917 7     22612.93426        58.000
 96  6 11 15 21 45.0000000  0  6G 2G19G 7G26G27G15
  21343061.506   -11103565.971 9    860163.51829       122.000
  23519469.010    22681111.916 7   6863474.69625        48.000
  20573861.902    -3685651.628 9  -2727152.12629       108.000
  23227657.777   -23268432.750 8  -2091190.87826        68.000
  20954789.291    21890805.698 9   3289105.63929       110.000
  23676242.478   -10718553.964 7     34746.13626        58.000
 96  6 11 15 22  0.0000000  0  6G 2G19G 7G26G27G15
  21345213.656   -11092278.634 9    868958.85229       124.000
  23529855.890    22735752.847 7   6906052.03325        42.000
  20572902.566    -3690660.934 9  -2731055.47629       110.000
  23227457.666   -23269497.468 8  -2092020.52826        64.000
  20961579.950    21926494.709 9   3316915.25729       112.000
  23679232.698   -10702843.241 7     46988.27526        56.000
 96  6 11 15 22 15.0000000  0  6G 2G19G 7G26G27G15
  21347367.275   -11080950.394 9    877786.03429       122.000
  23540275.446    22790446.632 7   6948670.52925        42.000
  20571978.845    -3695549.463 9  -2734864.72529       110.000
  23227275.092   -23270432.563 7  -2092749.20226        62.000
  20968388.926    21962299.843 9   3344815.33529       110.000
  23682254.696   -10686987.757 7     59343.17326        58.000
 96  6 11 15 22 30.0000000  0  6G 2G19G 7G26G27G15
  21349531.927   -11069582.293 9    886644.29629       122.000
  23550689.757    22845193.954 7   6991330.75225        42.000
  20571069.125    -3700319.140 9  -2738581.35329       110.000
  23227123.637   -23271237.227 7  -2093376.22926        62.000
  20975225.034    21998217.525 9   3372803.12629       112.000
  23685297.919   -10670988.103 7     71810.42926        60.000
 96  6 11 15 22 45.0000000  0  6G 2G19G 7G26G27G15
  21351700.505   -11058174.938 9    895533.14429       122.000
  23561118.697    22900000.743 6   7034037.30625        40.000
  20570183.508    -3704966.825 9  -2742202.92329       110.000
  23226997.454   -23271908.825 7  -2093899.55326        62.000
  20982083.236    22034250.609 9   3400880.83629       112.000
  23688369.053   -10654842.202 7     84391.65526        60.000
 96  6 11 15 23  0.0000000  0  6G 2G19G 7G26G27G15
  21353883.384   -11046728.217 9    904452.65829       122.000
  23571557.141    22954866.212 6   7076789.59925        40.000
  20569322.175    -3709489.519 9  -2745727.08329       112.000
  23226892.317   -23272447.724 7  -2094319.46626        62.000
  20988963.443    22070399.536 9   3429048.82829       114.000
  23691464.740   -10638549.113 7     97087.55626        54.000
 96  6 11 15 23 15.0000000  0  6G 2G19G 7G26G27G15
  21356068.122   -11035245.345 9    913400.35829       126.000
  23582007.366    23009785.894 6   7119584.09125        40.000
  20568485.664    -3713892.575 9  -2749158.03229       112.000
  23226818.148   -23272856.270 7  -2094637.81326        62.000
  20995861.518    22106658.305 9   3457302.39729       110.000
  23694599.760   -10622113.251 7    109894.71226        58.000
 96  6 11 15 23 30.0000000  0  6G 2G19G 7G26G27G15
  21358255.377   -11023730.914 9    922372.62429       124.000
  23592475.579    23064758.989 6   7162420.26925        40.000
  20567669.838    -3718181.422 9  -2752499.98729       112.000
  23226764.516   -23273137.330 8  -2094856.82626        66.000
  21002782.616    22143026.416 9   3485641.16329       114.000
  23697754.326   -10605536.871 7    122811.36726        54.000
 96  6 11 15 23 45.0000000  0  6G 2G19G 7G26G27G15
  21360452.736   -11012185.029 9    931369.41429       124.000
  23602941.634    23119788.199 6   7205300.12825        38.000
  20566874.459    -3722354.104 9  -2755751.43029       112.000
  23226737.474   -23273290.074 8  -2094975.86826        68.000
  21009726.559    22179506.566 9   3514067.24429       114.000
  23700932.036   -10588819.253 7    135838.08826        52.000
 96  6 11 15 24  0.0000000  0  6G 2G19G 7G26G27G15
  21362658.040   -11000602.509 9    940394.74029       122.000
  23613429.423    23174879.256 6   7248228.14925        40.000
  20566101.954    -3726405.483 9  -2758908.36229       110.000
  23226726.232   -23273309.881 8  -2094991.32126        64.000
  21016691.457    22216103.214 9   3542584.07729       118.000
  23704139.756   -10571956.407 7    148977.95326        52.000
 96  6 11 15 24 15.0000000  0  6G 2G19G 7G26G27G15
  21364872.007   -10988980.671 9    949450.74029       124.000
  23623924.917    23230031.583 7   7291203.95525        42.000
  20565355.740    -3730337.538 9  -2761972.27829       110.000
  23226754.053   -23273192.454 8  -2094899.80026        68.000
  21023677.641    22252820.225 9   3571194.74229       116.000
  23707374.636   -10554947.354 7    162231.77126        54.000
 96  6 11 15 24 30.0000000  0  6G 2G19G 7G26G27G15
  21367088.253   -10977322.855 9    958534.74829       122.000
  23634429.435    23285242.441 6   7334225.38525        38.000
  20564626.615    -3734156.634 9  -2764948.18829       110.000
  23226806.037   -23272940.952 8  -2094703.82926        66.000
  21030690.356    22289656.893 9   3599898.62629       118.000
  23710642.464   -10537793.872 7    175598.13726        54.000
 96  6 11 15 24 45.0000000  0  6G 2G19G 7G26G27G15
  21369313.882   -10965630.341 9    967645.77229       124.000
  23644944.715    23340513.881 6   7377293.98325        40.000
  20563923.482    -3737861.986 9  -2767835.47529       110.000
  23226874.929   -23272556.958 8  -2094404.63626        66.000
  21037722.288    22326618.175 9   3628699.60229       118.000
  23713933.975   -10520494.430 7    189078.18226        54.000
 96  6 11 15 25  0.0000000  0  6G 2G19G 7G26G27G15
  21371543.169   -10953904.608 9    976782.71129       124.000
  23655467.970    23395842.639 6   7420407.28125        38.000
  20563239.176    -3741453.056 9  -2770633.70629       110.000
  23226973.831   -23272042.261 8  -2094003.56426        66.000
  21044778.563    22363704.845 9   3657598.30029       116.000
  23717253.007   -10503050.260 7    202671.05126        52.000
 96  6 11 15 25 15.0000000  0  6G 2G19G 7G26G27G15
  21373780.220   -10942146.098 9    985945.18129       124.000
  23666010.832    23451222.510 6   7463560.39625        40.000
  20562576.215    -3744933.122 9  -2773345.43529       110.000
  23227094.347   -23271400.179 8  -2093503.25626        64.000
  21051859.571    22400912.569 9   3686591.32729       116.000
  23720598.391   -10485465.030 7    216373.83126        52.000
 96  6 11 15 25 30.0000000  0  6G 2G19G 7G26G27G15
  21376025.575   -10930353.054 9    995134.55029       126.000
  23676565.865    23506657.272 6   7506756.26625        40.000
  20561940.115    -3748302.503 9  -2775970.94129       110.000
  23227243.164   -23270630.734 8  -2092903.73926        68.000
  21058959.556    22438245.112 9   3715681.59429       114.000
  23723973.275   -10467737.150 7    230187.73726        54.000
 96  6 11 15 25 45.0000000  0  6G 2G19G 7G26G27G15
  21378277.946   -10918520.701 9   1004354.56129       126.000
  23687120.268    23562149.271 6   7549996.72425        38.000
  20561320.924    -3751556.853 9  -2778506.79729       112.000
  23227412.097   -23269733.630 8  -2092204.67826        68.000
  21066091.618    22475705.670 9   3744871.62629       116.000
  23727379.157   -10449864.009 7    244114.89626        54.000
 96  6 11 15 26  0.0000000  0  6G 2G19G 7G26G27G15
  21380541.439   -10906641.955 9   1013610.72729       126.000
  23697683.515    23617699.199 6   7593282.36725        40.000
  20560723.407    -3754692.835 9  -2780950.41329       112.000
  23227608.221   -23268706.132 8  -2091404.02526        70.000
  21073245.476    22513295.923 9   3774162.72229       114.000
  23730806.774   -10431842.649 7    258157.48026        50.000
 96  6 11 15 26 15.0000000  0  6G 2G19G 7G26G27G15
  21382807.450   -10894721.592 9   1022899.30729       124.000
  23708272.724    23673300.883 6   7636608.31225        40.000
  20560141.660    -3757716.877 9  -2783306.82329       108.000
  23227830.937   -23267552.228 8  -2090504.90926        72.000
  21080422.087    22551011.174 9   3803551.20229       116.000
  23734260.593   -10413677.115 7    272312.43026        52.000
 96  6 11 15 26 30.0000000  0  6G 2G19G 7G26G27G15
  21385081.646   -10882769.766 9   1032212.38929       126.000
  23718860.375    23728946.066 7   7679968.15425        42.000
  20559592.290    -3760638.666 9  -2785583.54329       110.000
  23228065.195   -23266280.321 8  -2089513.82326        68.000
  21087622.593    22588840.638 9   3833028.68029       118.000
  23737742.593   -10395377.212 7    286572.07426        50.000
 96  6 11 15 26 45.0000000  0  6G 2G19G 7G26G27G15
  21387362.137   -10870774.853 9   1041559.11329       124.000
  23729456.989    23784645.142 7   7723370.04125        42.000
  20559053.413    -3763446.210 9  -2787771.20729       110.000
  23228335.098   -23264881.977 8  -2088424.17426        66.000
  21094841.835    22626788.997 9   3862598.84729       118.000
  23741252.113   -10376933.360 7    300943.94126        48.000
 96  6 11 15 27  0.0000000  0  6G 2G19G 7G26G27G15
  21389655.010   -10858731.718 9   1050943.35829       124.000
  23740069.852    23840402.376 7   7766817.17325        46.000
  20558542.207    -3766131.690 9  -2789863.79729       110.000
  23228625.357   -23263352.317 8  -2087232.25426        64.000
  21102085.240    22664857.677 9   3892262.72829       116.000
  23744793.741   -10358342.656 7    315430.19826        52.000
 96  6 11 15 27 15.0000000  0  6G 2G19G 7G26G27G15
  21391956.786   -10846638.280 9   1060366.81129       124.000
  23750692.368    23896218.941 7   7810310.60225        46.000
  20558056.694    -3768695.715 9  -2791861.74829       110.000
  23228943.227   -23261688.585 8  -2085935.84226        68.000
  21109352.329    22703044.869 9   3922018.97729       116.000
  23748360.372   -10339604.905 7    330031.03726        50.000
 96  6 11 15 27 30.0000000  0  6G 2G19G 7G26G27G15
  21394268.606   -10834506.812 9   1069819.89929       126.000
  23761325.407    23952087.527 7   7853844.52725        46.000
  20557586.919    -3771148.418 9  -2793772.94229       110.000
  23229280.824   -23259899.554 8  -2084541.79926        64.000
  21116638.365    22741341.836 9   3951860.75829       116.000
  23751947.509   -10320728.766 7    344739.72226        48.000
 96  6 11 15 27 45.0000000  0  6G 2G19G 7G26G27G15
  21396584.203   -10822335.316 9   1079304.19029       124.000
  23771969.868    24008011.361 7   7897421.54225        50.000
  20557145.234    -3773484.806 9  -2795593.49029       112.000
  23229646.900   -23257981.229 8  -2083047.00626        66.000
  21123950.723    22779753.146 9   3981791.64529       114.000
  23755567.533   -10301710.115 7    359559.43826        50.000
 96  6 11 15 28  0.0000000  0  6G 2G19G 7G26G27G15
  21398904.866   -10810123.246 9   1088820.07529       124.000
  23782619.725    24063988.995 7   7941040.43425        48.000
  20556724.566    -3775702.481 9  -2797321.54329       112.000
  23230036.660   -23255930.857 8  -2081449.31926        68.000
  21131279.779    22818276.973 9   4011810.19929       112.000
  23759215.258   -10282548.290 7    374490.72226        50.000
 96  6 11 15 28 15.0000000  0  6G 2G19G 7G26G27G15
  21401235.633   -10797875.584 9   1098363.71129       126.000
  23793283.343    24120017.448 7   7984698.94125        48.000
  20556321.825    -3777803.722 9  -2798958.86429       110.000
  23230455.141   -23253748.427 8  -2079748.73026        68.000
  21138625.804    22856909.284 9   4041913.29529       110.000
  23762886.606   -10263245.374 7    389531.93826        48.000
 96  6 11 15 28 30.0000000  0  6G 2G19G 7G26G27G15
  21403573.055   -10785591.505 9   1107935.72029       126.000
  23803948.130    24176099.509 7   8028399.23525        46.000
  20555945.825    -3779783.611 9  -2800501.64229       110.000
  23230895.326   -23251430.399 8  -2077942.48926        70.000
  21146004.626    22895650.983 9   4072101.61429       112.000
  23766590.002   -10243799.557 7    404684.54426        48.000
 96  6 11 15 28 45.0000000  0  6G 2G19G 7G26G27G15
  21405913.774   -10773276.204 9   1117532.05929       126.000
  23814631.474    24232229.047 7   8072136.50025        48.000
  20555597.616    -3781644.187 9  -2801951.42729       112.000
  23231359.644   -23248982.789 8  -2076035.25626        64.000
  21153399.576    22934495.775 9   4102370.27629       112.000
  23770312.825   -10224216.184 7    419944.29526        50.000
 96  6 11 15 29  0.0000000  0  6G 2G19G 7G26G27G15
  21408267.595   -10760925.733 9   1127155.79529       126.000
  23825326.839    24288408.957 7   8115913.03325        46.000
  20555263.887    -3783379.716 9  -2803303.78829       110.000
  23231852.803   -23246402.604 8  -2074024.73826        72.000
  21160808.137    22973449.688 9   4132723.96129       112.000
  23774069.464   -10204490.739 7    435314.76226        50.000
 96  6 11 15 29 15.0000000  0  6G 2G19G 7G26G27G15
  21410623.904   -10748539.802 9   1136807.15229       126.000
  23836023.524    24344639.862 7   8159729.27525        44.000
  20554956.120    -3784989.560 9  -2804558.22429       112.000
  23232366.857   -23243687.755 8  -2071909.28926        66.000
  21168242.151    23012517.185 9   4163166.14529       112.000
  23777847.749   -10184621.575 7    450797.22026        50.000
 96  6 11 15 29 30.0000000  0  6G 2G19G 7G26G27G15
  21412985.968   -10736117.470 9   1146486.88129       126.000
  23846739.156    24400923.061 7   8203586.28125        46.000
  20554672.097    -3786472.299 9  -2805713.61329       110.000
  23232916.167   -23240834.990 8  -2069686.37426        68.000
  21175700.747    23051701.514 9   4193699.36229       112.000
  23781657.361   -10164605.307 7    466394.28126        48.000
 96  6 11 15 29 45.0000000  0  6G 2G19G 7G26G27G15
  21415355.198   -10723666.471 9   1156188.94529       126.000
  23857453.199    24457245.756 7   8247474.04425        42.000
  20554416.973    -3787835.419 9  -2806775.79229       110.000
  23233481.785   -23237855.250 8  -2067364.52826        68.000
  21183174.693    23090993.867 9   4224316.75629       108.000
  23785487.719   -10144451.076 7    482098.85626        50.000
 96  6 11 15 30  0.0000000  0  6G 2G19G 7G26G27G15
  21417731.803   -10711176.997 9   1165920.99129       128.000
  23868184.809    24513611.787 7   8291395.58525        42.000
  20554182.116    -3789073.800 9  -2807740.76129       110.000
  23234066.860   -23234742.565 8  -2064939.07126        68.000
  21190678.199    23130398.356 9   4255021.53929       110.000
  23789351.415   -10124153.535 7    497915.10726        46.000
 96  6 11 15 30 15.0000000  0  6G 2G19G 7G26G27G15
  21420118.780   -10698647.123 9   1175684.55129       128.000
  23878910.364    24570025.818 6   8335354.54825        38.000
  20553969.083    -3790187.931 9  -2808608.89929       112.000
  23234687.401   -23231493.960 8  -2062407.69126        68.000
  21198194.865    23169915.030 9   4285813.75829       108.000
  23793244.699   -10103710.812 7    513844.48826        46.000
 96  6 11 15 30 30.0000000  0  6G 2G19G 7G26G27G15
  21422510.525   -10686078.187 9   1185478.51629       128.000
  23889663.800    24626488.058 6   8379351.05625        40.000
  20553776.377    -3791178.776 9  -2809380.99029       112.000
  23235333.933   -23228111.309 8  -2059771.87026        70.000
  21205732.547    23209546.731 9   4316695.57129       104.000
  23797163.047   -10083124.085 7    529886.11126        48.000
 96  6 11 15 30 45.0000000  0  6G 2G19G 7G26G27G15
  21424909.104   -10673468.594 9   1195304.18329       126.000
  23900414.627    24683003.179 6   8423388.79025        38.000
  20553609.932    -3792045.182 9  -2810056.10429       112.000
  23236004.659   -23224591.889 8  -2057029.46926        72.000
  21213299.458    23249297.826 9   4347670.46129       106.000
  23801114.641   -10062390.722 7    546041.95026        46.000
 96  6 11 15 31  0.0000000  0  6G 2G19G 7G26G27G15
  21427312.510   -10660826.344 9   1205155.28129       126.000
  23911177.746    24739561.605 6   8467460.23425        38.000
  20553470.468    -3792800.390 9  -2810644.58229       114.000
  23236695.620   -23220944.930 8  -2054187.68326        70.000
  21220889.544    23289160.445 9   4378732.21729       108.000
  23805073.311   -10041519.584 7    562305.16726        44.000
 96  6 11 15 31 15.0000000  0  6G 2G19G 7G26G27G15
  21429726.889   -10648145.606 9   1215036.35329       124.000
  23921952.167    24796169.939 6   8511570.58225        36.000
  20553349.472    -3793441.820 9  -2811144.40229       114.000
  23237418.240   -23217165.514 8  -2051242.71826        72.000
  21228492.820    23329140.403 9   4409885.40129       108.000
  23809072.992   -10020505.864 7    578679.50126        44.000
 96  6 11 15 31 30.0000000  0  6G 2G19G 7G26G27G15
  21432146.784   -10635430.586 9   1224944.14329       122.000
  23932726.228    24852823.879 6   8555716.44925        36.000
  20553245.414    -3793973.592 9  -2811558.78129       114.000
  23238157.438   -23213256.267 8  -2048196.57426        68.000
  21236127.695    23369232.449 9   4441125.93729       108.000
  23813103.941    -9999353.388 7    595161.88826        46.000
 96  6 11 15 31 45.0000000  0  6G 2G19G 7G26G27G15
  21434572.314   -10622678.530 9   1234880.83329       124.000
  23943516.748    24909524.973 6   8599899.09325        36.000
  20553169.567    -3794392.965 9  -2811885.54229       112.000
  23238930.873   -23209218.386 8  -2045050.16626        70.000
  21243776.240    23409436.433 9   4472453.72829       108.000
  23817155.606    -9978060.509 7    611753.75226        46.000
 96  6 11 15 32  0.0010000  0  6G 2G19G 7G26G27G15
  21437011.995   -10609888.241 9   1244847.28429       126.000
  23954318.630    24966278.900 6   8644122.90125        36.000
  20553107.120    -3794701.907 9  -2812126.26629       112.000
  23239722.535   -23205052.771 8  -2041804.26126        70.000
  21251446.460    23449754.287 9   4503870.22029       108.000
  23821238.270    -9956626.465 7    628455.59826        44.000
 96  6 11 15 32 15.0010000  0  6G 2G19G 7G26G27G15
  21439448.349   -10597068.434 9   1254836.76229       126.000
  23965129.356    25023076.741 6   8688380.94325        36.000
  20553069.046    -3794906.597 9  -2812285.74629       112.000
  23240538.780   -23200764.533 8  -2038462.74826        70.000
  21259136.376    23490174.330 9   4535366.36529       106.000
  23825342.249    -9935060.025 7    645260.60826        52.000
 96  6 11 15 32 30.0010000  0  6G 2G19G 7G26G27G15
  21441898.013   -10584206.697 9   1264858.87629       124.000
  23975941.641    25079934.052 6   8732685.28225        36.000
  20553054.327    -3794992.652 9  -2812352.82129       112.000
  23241376.310   -23196343.183 8  -2035017.56026        70.000
  21266848.657    23530712.501 9   4566954.52929       106.000
  23829472.190    -9913346.853 7    662179.95826        46.000
 96  6 11 15 32 45.0010000  0  6G 2G19G 7G26G27G15
  21444351.754   -10571306.863 9   1274910.69029       126.000
  23986776.230    25136845.740 6   8777031.97825        36.000
  20553056.425    -3794964.889 9  -2812331.19929       112.000
  23242245.588   -23191795.154 8  -2031473.67126        72.000
  21274583.842    23571363.594 9   4598630.68329       104.000
  23833630.101    -9891491.108 7    679210.38526        48.000
 96  6 11 15 33  0.0010000  0  6G 2G19G 7G26G27G15
  21446809.932   -10558371.000 9   1284990.59829       124.000
  23997619.334    25193805.927 6   8821416.50925        38.000
  20553087.154    -3794829.033 9  -2812225.31129       110.000
  23243130.665   -23187124.094 8  -2027833.89026        70.000
  21282345.289    23612120.358 9   4630389.20329       108.000
  23837818.951    -9869496.685 7    696348.88226        48.000
 96  6 11 15 33 15.0010000  0  6G 2G19G 7G26G27G15
  21449280.852   -10545387.920 9   1295107.25329       124.000
  24008467.624    25250823.407 6   8865845.67425        36.000
  20553131.673    -3794573.329 9  -2812026.08529       112.000
  23244046.681   -23182323.334 8  -2024093.07426        68.000
  21290119.717    23652992.752 9   4662237.78729       108.000
  23842028.907    -9847353.942 7    713602.95726        44.000
 96  6 11 15 33 30.0010000  0  6G 2G19G 7G26G27G15
  21451759.476   -10532368.606 9   1305252.18229       124.000
  24019329.794    25307889.472 6   8910312.72125        40.000
  20553203.353    -3794204.075 9  -2811738.34429       114.000
  23244982.394   -23177399.657 8  -2020256.41726        68.000
  21297919.087    23693973.716 9   4694171.00229       106.000
  23846269.681    -9825070.663 7    730966.52726        44.000
 96  6 11 15 33 45.0010000  0  6G 2G19G 7G26G27G15
  21454245.445   -10519310.765 9   1315427.10329       126.000
  24030187.527    25365005.780 6   8954818.85525        36.000
  20553292.482    -3793720.033 9  -2811361.18329       110.000
  23245943.798   -23172349.455 8  -2016321.25226        68.000
  21305740.433    23735066.586 9   4726191.38029       108.000
  23850534.109    -9802644.309 7    748441.58026        46.000
 96  6 11 15 34  0.0010000  0  6G 2G19G 7G26G27G15
  21456734.652   -10506217.473 9   1325629.65829       124.000
  24041079.497    25422169.845 6   8999362.27425        40.000
  20553405.204    -3793125.734 9  -2810898.09529       110.000
  23246928.976   -23167177.148 8  -2012290.89726        66.000
  21313582.674    23776268.835 9   4758297.00329       110.000
  23854829.055    -9780078.480 7    766025.31826        46.000
 96  6 11 15 34 15.0010000  0  6G 2G19G 7G26G27G15
  21459236.660   -10493093.825 9   1335855.88029       126.000
  24051954.978    25479375.665 6   9043938.18425        40.000
  20553539.661    -3792426.100 9  -2810352.92429       112.000
  23247932.111   -23161885.438 8  -2008167.51826        66.000
  21321442.512    23817575.605 9   4790484.10029       110.000
  23859153.022    -9757377.881 7    783714.09426        42.000
 96  6 11 15 34 30.0010000  0  6G 2G19G 7G26G27G15
  21461735.730   -10479934.116 9   1346110.21329       124.000
  24062853.393    25536622.717 6   9088546.22325        40.000
  20553696.542    -3791615.276 9  -2809721.08829       112.000
  23248965.346   -23156469.348 8  -2003947.16526        68.000
  21329326.664    23858991.247 9   4822756.03529       110.000
  23863497.854    -9734537.989 7    801511.42326        44.000
 96  6 11 15 34 45.0010000  0  6G 2G19G 7G26G27G15
  21464251.018   -10466736.716 9   1356393.90329       126.000
  24073752.648    25593912.550 7   9133187.65225        42.000
  20553869.612    -3790692.085 9  -2809001.71029       110.000
  23250018.397   -23150924.767 8  -1999626.73826        70.000
  21337226.825    23900518.969 9   4855115.28129       110.000
  23867869.788    -9711556.465 7    819419.07026        44.000
 96  6 11 15 35  0.0010000  0  6G 2G19G 7G26G27G15
  21466767.026   -10453505.669 9   1366703.79929       124.000
  24084669.350    25651241.411 7   9177859.44925        42.000
  20554068.105    -3789659.060 9  -2808196.77429       110.000
  23251100.738   -23145252.626 8  -1995206.90726        70.000
  21345148.002    23942155.519 9   4887559.32329       108.000
  23872265.494    -9688437.590 7    837433.74826        42.000
 96  6 11 15 35 15.0010000  0  6G 2G19G 7G26G27G15
  21469294.966   -10440239.466 9   1377041.10129       126.000
  24095587.672    25708610.369 7   9222562.52825        46.000
  20554285.994    -3788511.523 9  -2807302.56629       110.000
  23252204.694   -23139450.840 8  -1990686.04426        70.000
  21353089.534    23983905.559 9   4920091.81729       108.000
  23876691.241    -9665180.069 6    855556.51226        40.000
 96  6 11 15 35 30.0010000  0  6G 2G19G 7G26G27G15
  21471824.495   -10426942.608 9   1387402.28329       124.000
  24106499.668    25766016.900 7   9267294.86425        44.000
  20554526.188    -3787251.097 9  -2806320.42329       110.000
  23253333.172   -23133520.834 8  -1986065.26326        70.000
  21361060.955    24025765.767 9   4952710.13929       110.000
  23881145.677    -9641786.565 7    873785.19726        42.000
 96  6 11 15 35 45.0010000  0  6G 2G19G 7G26G27G15
  21474357.472   -10413609.955 9   1397791.37129       124.000
  24117439.574    25823465.527 7   9312060.01825        46.000
  20554790.095    -3785874.193 9  -2805247.50329       110.000
  23254485.725   -23127457.687 8  -1981340.73626        70.000
  21369043.439    24067738.395 9   4985416.07529       108.000
  23885628.653    -9618253.304 7    892122.81726        44.000
 96  6 11 15 36  0.0010000  0  6G 2G19G 7G26G27G15
  21476902.380   -10400238.461 9   1408210.71729       124.000
  24128382.538    25880957.325 7   9356858.73025        44.000
  20555070.761    -3784378.803 9  -2804082.26529       108.000
  23255668.466   -23121263.152 8  -1976513.84126        72.000
  21377054.883    24109823.105 9   5018209.34129       110.000
  23890124.461    -9594580.379 6    910569.20326        40.000
 96  6 11 15 36 15.0010000  0  6G 2G19G 7G26G27G15
  21479455.083   -10386833.788 9   1418655.91129       126.000
  24139327.062    25938486.565 7   9401686.65725        44.000
  20555375.739    -3782769.668 9  -2802828.40029       106.000
  23256870.154   -23114944.120 8  -1971589.91826        70.000
  21385085.094    24152013.483 9   5051084.94829       110.000
  23894657.503    -9570773.636 7    929119.92026        44.000
 96  6 11 15 36 30.0010000  0  6G 2G19G 7G26G27G15
  21482013.931   -10373386.491 9   1429134.30129       126.000
  24150277.431    25996060.862 7   9446549.74225        42.000
  20555709.379    -3781039.342 9  -2801480.10729       110.000
  23258093.607   -23108489.759 8  -1966560.58226        70.000
  21393131.763    24194319.401 9   5084050.56929       108.000
  23899216.896    -9546825.226 7    947780.98526        42.000
 96  6 11 15 36 45.0010000  0  6G 2G19G 7G26G27G15
  21484579.375   -10359902.839 9   1439641.06529       126.000
  24161252.683    26053678.720 7   9491446.80225        42.000
  20556059.626    -3779194.442 9  -2800042.50229       110.000
  23259347.279   -23101905.289 8  -1961429.83127        72.000
  21401206.403    24236738.073 9   5117104.09529       108.000
  23903798.864    -9522740.091 7    966548.61126        42.000
 96  6 11 15 37  0.0010000  0  6G 2G19G 7G26G27G15
  21487153.963   -10346378.916 9   1450179.17429       128.000
  24172224.427    26111346.590 6   9536382.76425        40.000
  20556431.848    -3777231.705 9  -2798513.10529       110.000
  23260626.583   -23095188.575 8  -1956196.03826        72.000
  21409302.478    24279274.192 9   5150249.09829       106.000
  23908412.760    -9498515.483 7    985424.92426        42.000
 96  6 11 15 37 15.0010000  0  6G 2G19G 7G26G27G15
  21489732.748   -10332820.482 9   1460744.17229       126.000
  24183199.260    26169055.227 6   9581350.44725        36.000
  20556827.904    -3775159.438 9  -2796898.36129       112.000
  23261931.040   -23088348.649 8  -1950866.27726        74.000
  21417412.584    24321921.276 9   5183480.56029       104.000
  23913046.682    -9474158.632 7   1004404.26526        46.000
 96  6 11 15 37 30.0010000  0  6G 2G19G 7G26G27G15
  21492319.147   -10319219.045 9   1471342.69829       126.000
  24194199.634    26226812.285 6   9626355.93025        36.000
  20557244.616    -3772972.136 9  -2795193.96229       110.000
  23263254.024   -23081378.905 8  -1945435.29226        74.000
  21425551.349    24364686.782 9   5216804.31829       102.000
  23917714.091    -9449661.080 7   1023493.27526        44.000
 96  6 11 15 37 45.0010000  0  6G 2G19G 7G26G27G15
  21494915.140   -10305584.601 9   1481966.93729       124.000
  24205180.222    26284605.423 6   9671389.53525        32.000
  20557678.595    -3770683.647 9  -2793410.72029       112.000
  23264599.313   -23074292.077 8  -1939913.08626        72.000
  21433713.439    24407558.535 9   5250210.87929       102.000
  23922394.481    -9425033.957 7   1042683.20926        46.000
 96  6 11 15 38  0.0010000  0  6G 2G19G 7G26G27G15
  21497521.775   -10291890.082 9   1492638.02129       128.000
  24216196.456    26342457.315 6   9716468.90825        30.000
  20558139.226    -3768270.554 9  -2791530.36229       112.000
  23265973.772   -23067064.088 8  -1934280.89127        70.000
  21441894.715    24450562.528 9   5283720.49729       100.000
  23927108.627    -9400252.171 7   1061993.73226        48.000
 96  6 11 15 38 15.0010000  0  6G 2G19G 7G26G27G15
  21500135.606   -10278145.898 9   1503347.72129       128.000
  24227212.240    26400357.278 6   9761585.67525        28.000
  20558621.383    -3765746.597 9  -2789563.68829       112.000
  23267380.368   -23059704.510 8  -1928546.19626        72.000
  21450101.414    24493687.656 9   5317324.41929       100.000
  23931853.023    -9375326.124 7   1081416.54226        46.000
 96  6 11 15 38 30.0010000  0  6G 2G19G 7G26G27G15
  21502760.469   -10264358.252 9   1514091.35929       126.000
  24238241.455    26458299.466 6   9806735.40625        30.000
  20559115.441    -3763120.072 9  -2787517.02329       110.000
  23268806.331   -23052217.043 8  -1922711.77926        70.000
  21458332.875    24536925.911 9   5351016.55929       102.000
  23936621.372    -9350261.737 7   1100947.25326        48.000
 96  6 11 15 38 45.0010000  0  6G 2G19G 7G26G27G15
  21505393.276   -10250526.657 9   1524869.22929       126.000
  24249277.684    26516285.175 6   9851919.03625        28.000
  20559638.458    -3760390.865 9  -2785390.35529       112.000
  23270254.178   -23044602.007 8  -1916778.02826        74.000
  21466578.217    24580276.090 9   5384795.92429       100.000
  23941419.011    -9325058.315 7   1120586.28626        48.000
 96  6 11 15 39  0.0010000  0  6G 2G19G 7G26G27G15
  21508033.308   -10236654.957 9   1535678.33129       126.000
  24260319.850    26574312.920 6   9897135.42425        28.000
  20560174.308    -3757558.530 9  -2783183.34629       112.000
  23271727.149   -23036864.053 8  -1910748.46226        72.000
  21474846.883    24623732.137 9   5418657.74329        98.000
  23946242.162    -9299717.986 7   1140331.96426        50.000
 96  6 11 15 39 15.0010000  0  6G 2G19G 7G26G27G15
  21510678.497   -10222743.667 9   1546518.29829       126.000
  24271370.020    26632376.727 6   9942379.87025        32.000
  20560735.429    -3754623.008 9  -2780895.92329       112.000
  23273222.214   -23029005.103 8  -1904624.59026        72.000
  21483137.134    24667289.500 9   5452598.54529        96.000
  23951090.495    -9274242.830 7   1160182.75326        50.000
 96  6 11 15 39 30.0010000  0  6G 2G19G 7G26G27G15
  21513333.069   -10208790.527 9   1557390.87329       126.000
  24282425.467    26690478.368 6   9987653.85625        32.000
  20561316.217    -3751581.406 9  -2778525.84129       114.000
  23274742.011   -23021021.099 8  -1898403.30626        70.000
  21491445.642    24710947.639 9   5486617.86329        96.000
  23955963.412    -9248629.516 7   1180141.16626        48.000
 96  6 11 15 39 45.0010000  0  6G 2G19G 7G26G27G15
  21515998.764   -10194789.036 9   1568301.11429       126.000
  24293493.414    26748628.110 6  10032965.30425        32.000
  20561914.093    -3748423.397 9  -2776065.06029       114.000
  23276284.833   -23012902.005 8  -1892076.75026        72.000
  21499771.358    24754712.774 9   5520720.53929        94.000
  23960858.573    -9222869.448 7   1200213.91726        52.000
 96  6 11 15 40  0.0010000  0  6G 2G19G 7G26G27G15
  21518671.084   -10180748.494 9   1579241.78129       126.000
  24304564.660    26806819.877 6  10078309.47025        36.000
  20562539.250    -3745156.357 9  -2773519.31729       112.000
  23277856.375   -23004652.361 8  -1885648.47626        72.000
  21508119.978    24798575.972 9   5554899.63129        96.000
  23965792.767    -9196971.423 7   1220394.18826        50.000
 96  6 11 15 40 15.0010000  0  6G 2G19G 7G26G27G15
  21521351.199   -10166667.667 9   1590213.85929       126.000
  24315643.190    26865060.303 6  10123691.60825        36.000
  20563182.125    -3741776.226 9  -2770885.43429       112.000
  23279449.263   -22996268.168 8  -1879115.34626        72.000
  21516487.546    24842540.180 9   5589157.45429        96.000
  23970749.176    -9170933.368 7   1240683.57926        48.000
 96  6 11 15 40 30.0010000  0  6G 2G19G 7G26G27G15
  21524036.350   -10152548.451 9   1601215.82329       124.000
  24326738.959    26923349.609 6  10169111.78825        38.000
  20563844.637    -3738278.676 9  -2768160.09029       110.000
  23281072.339   -22987749.159 8  -1872477.20226        70.000
  21524876.248    24886606.142 9   5623494.52829        94.000
  23975731.966    -9144756.090 7   1261081.44326        52.000
 96  6 11 15 40 45.0010000  0  6G 2G19G 7G26G27G15
  21526729.475   -10138395.411 9   1612244.18529       126.000
  24337838.715    26981684.267 6  10214567.33725        40.000
  20564531.581    -3734661.277 9  -2765341.32129       108.000
  23282720.688   -22979099.136 8  -1865736.90726        70.000
  21533276.253    24930773.653 9   5657910.76529        96.000
  23980731.245    -9118441.616 7   1281586.22526        48.000
 96  6 11 15 41  0.0010000  0  5G 2G 7G26G27G15
  21529430.545   -10124214.919 9   1623293.88729       124.000
  20565245.657    -3730924.834 9  -2762429.82429       108.000
  23284386.754   -22970324.044 8  -1858899.20626        70.000
  21541697.123    24975040.633 9   5692404.49129        96.000
  23985768.508    -9091994.948 7   1302193.98226        52.000
 96  6 11 15 41 15.0010000  0  5G 2G 7G26G27G15
  21532134.254   -10110003.229 9   1634367.94929       124.000
  20565983.056    -3727065.158 9  -2759422.27129       108.000
  23286084.959   -22961418.573 8  -1851959.86326        70.000
  21550146.264    25019413.780 9   5726980.97129       100.000
  23990827.086    -9065413.154 7   1322907.10226        50.000
 96  6 11 15 41 30.0010000  0  5G 2G 7G26G27G15
  21534843.868   -10095761.153 9   1645465.68429       124.000
  20566737.574    -3723085.599 9  -2756321.29529       108.000
  23287806.517   -22952383.758 8  -1844919.74826        72.000
  21558608.896    25063894.426 9   5761641.19529       100.000
  23995909.797    -9038696.269 7   1343725.43226        48.000
 96  6 11 15 41 45.0010000  0  5G 2G 7G26G27G15
  21537561.097   -10081485.003 9   1656589.95229       122.000
  20567519.493    -3718980.910 9  -2753122.84529       108.000
  23289546.512   -22943214.585 8  -1837774.96126        70.000
  21567094.761    25108490.146 9   5796391.08429       102.000
  24001017.811    -9011838.588 7   1364653.50126        50.000
 96  6 11 15 42  0.0010000  0  5G 2G 7G26G27G15
  21540281.413   -10067175.304 9   1667740.34229       122.000
  20568322.876    -3714752.243 9  -2749827.79629       110.000
  23291322.243   -22933914.343 8  -1830528.05126        70.000
  21575606.319    25153203.995 9   5831233.01429       102.000
  24006165.607    -8984841.600 7   1385690.10226        48.000
 96  6 11 15 42 15.0010000  0  6G 4G 2G 7G26G27G15
  24434040.316    -3697668.352 7  -3553087.69825        42.000
  21543013.362   -10052835.231 9   1678914.41329       122.000
  20569147.845    -3710403.796 9  -2746439.41229       108.000
  23293109.126   -22924492.383 8  -1823186.27226        68.000
  21584137.213    25198031.604 9   5866163.60629       102.000
  24011324.676    -8957710.361 7   1406831.31726        50.000
 96  6 11 15 42 30.0010000  0  6G 4G 2G 7G26G27G15
  24425609.193    -3741910.386 6  -3587561.96425        38.000
  21545747.919   -10038466.259 9   1690111.01729       122.000
  20570001.594    -3705937.021 9  -2742958.80429       108.000
  23294926.648   -22914954.744 8  -1815754.36627        72.000
  21592687.384    25242969.077 9   5901179.79829       100.000
  24016515.912    -8930446.554 7   1428075.84826        52.000
 96  6 11 15 42 45.0010000  0  6G 4G 2G 7G26G27G15
  24417189.132    -3786151.565 6  -3622035.56025        38.000
  21548487.213   -10024063.554 9   1701333.90229       122.000
  20570872.971    -3701346.288 9  -2739381.59729       108.000
  23296760.868   -22905295.766 8  -1808227.88627        70.000
  21601258.750    25288020.191 9   5936284.55229       102.000
  24021725.705    -8903043.800 7   1449428.65026        52.000
 96  6 11 15 43  0.0010000  0  6G 4G 2G 7G26G27G15
  24408785.889    -3830400.790 6  -3656515.41125        38.000
  21551233.432   -10009633.084 9   1712578.42929       120.000
  20571763.085    -3696645.052 9  -2735718.28929       108.000
  23298619.012   -22895523.979 8  -1800613.50026        70.000
  21609851.431    25333173.624 9   5971469.04529       102.000
  24026964.039    -8875510.151 7   1470883.43226        50.000
 96  6 11 15 43 15.0010000  0  6G 4G 2G 7G26G27G15
  24400365.738    -3874656.782 6  -3691000.58325        40.000
  21553987.805    -9995168.811 9   1723849.28229       120.000
  20572684.347    -3691830.852 9  -2731966.96929       108.000
  23300503.057   -22885632.707 8  -1792906.05126        72.000
  21618459.672    25378430.987 9   6006734.51229       102.000
  24032230.073    -8847841.266 7   1492443.59126        54.000
 96  6 11 15 43 30.0010000  0  6G 4G 2G 7G26G27G15
  24391933.536    -3918917.792 6  -3725489.62325        34.000
  21556743.887    -9980665.959 9   1735150.20329       120.000
  20573621.438    -3686905.856 9  -2728129.29729       108.000
  23302409.707   -22875619.965 8  -1785103.93626        76.000
  21627093.575    25423790.929 9   6042079.91629       102.000
  24037532.802    -8820034.569 7   1514111.14025        56.000
 96  6 11 15 43 45.0010000  0  6G 4G 2G 7G26G27G15
  24383512.456    -3963188.212 6  -3759986.04025        34.000
  21559511.361    -9966130.194 9   1746476.76629       118.000
  20574578.766    -3681876.823 9  -2724210.57229       108.000
  23304337.133   -22865490.912 8  -1777211.18026        72.000
  21635744.236    25469244.493 9   6077498.26729       106.000
  24042837.060    -8792095.882 7   1535881.55525        52.000
 96  6 11 15 44  0.0010000  0  6G 4G 2G 7G26G27G15
  24375080.073    -4007458.303 6  -3794482.20825        32.000
  21562284.411    -9951553.531 9   1757835.20829       118.000
  20575554.290    -3676737.545 9  -2720205.93229       110.000
  23306293.519   -22855238.500 8  -1769222.28526        74.000
  21644414.384    25514800.074 9   6112996.11529       104.000
  24048177.593    -8764019.476 7   1557759.26725        54.000
 96  6 11 15 44 15.0010000  0  6G 4G 2G 7G26G27G15
  24366669.336    -4051728.076 6  -3828978.06225        34.000
  21565069.423    -9936935.864 9   1769225.61929       118.000
  20576555.447    -3671489.229 9  -2716116.31329       110.000
  23308264.085   -22844863.502 8  -1761137.85526        74.000
  21653100.780    25560452.813 9   6148569.68029       102.000
  24053549.724    -8735807.275 7   1579742.82625        54.000
 96  6 11 15 44 30.0010000  0  6G 4G 2G 7G26G27G15
  24358236.893    -4096003.420 6  -3863478.31025        34.000
  21567857.853    -9922281.350 9   1780644.67829       118.000
  20577571.204    -3666138.514 9  -2711946.94729       108.000
  23310256.595   -22834367.396 8  -1752959.13227        70.000
  21661804.295    25606194.624 9   6184212.60829       102.000
  24058940.922    -8707464.684 7   1601827.92025        56.000
 96  6 11 15 44 45.0010000  0  6G 4G 2G 7G26G27G15
  24349807.149    -4140280.061 6  -3897979.52025        34.000
  21570651.169    -9907586.791 9   1792094.98929       116.000
  20578607.526    -3660685.795 9  -2707698.06129       110.000
  23312281.094   -22823745.751 8  -1744682.53727        72.000
  21670523.968    25652029.302 9   6219927.93729       102.000
  24064361.289    -8678989.744 7   1624016.20025        52.000
 96  6 11 15 45  0.0010000  0  6G 4G 2G 7G26G27G15
  24341385.949    -4184554.105 6  -3932478.72225        34.000
  21573456.087    -9892847.509 9   1803580.14229       116.000
  20579665.074    -3655131.319 9  -2703369.89929       108.000
  23314325.888   -22812994.660 8  -1736305.08027        74.000
  21679266.186    25697964.159 9   6255721.31729       102.000
  24069806.030    -8650379.220 7   1646310.11125        56.000
 96  6 11 15 45 15.0010000  0  6G 4G 2G 7G26G27G15
  24332963.550    -4228827.378 6  -3966977.32125        38.000
  21576270.299    -9878063.444 9   1815100.20429       116.000
  20580742.498    -3649478.517 9  -2698965.09529       108.000
  23316399.373   -22802115.887 8  -1727828.12327        74.000
  21688032.238    25743999.852 9   6291593.28229       104.000
  24075273.585    -8621635.387 7   1668707.90325        52.000
 96  6 11 15 45 30.0010000  0  6G 4G 2G 7G26G27G15
  24324546.097    -4273090.812 6  -4001468.28425        38.000
  21579092.515    -9863231.219 9   1826657.76929       118.000
  20581840.608    -3643724.084 9  -2694481.13529       110.000
  23318491.834   -22791106.692 8  -1719249.55526        74.000
  21696806.983    25790144.532 9   6327550.14529       100.000
  24080770.190    -8592753.662 7   1691213.12525        52.000
 96  6 11 15 45 45.0010000  0  6G 4G 2G 7G26G27G15
  24316118.392    -4317340.082 7  -4035948.16525        42.000
  21581921.657    -9848350.574 9   1838253.09229       116.000
  20582953.258    -3637867.252 9  -2689917.34029       108.000
  23320610.467   -22779967.776 8  -1710569.88126        72.000
  21705612.727    25836400.057 9   6363593.41529       102.000
  24086289.609    -8563733.347 7   1713826.38925        52.000
 96  6 11 15 46  0.0010000  0  6G 4G 2G 7G26G27G15
  24307697.611    -4361578.894 6  -4070419.98425        40.000
  21584764.319    -9833424.696 9   1849883.62429       116.000
  20584087.073    -3631907.240 9  -2685273.20029       110.000
  23322750.476   -22768702.002 8  -1701791.39626        72.000
  21714433.820    25882764.590 9   6399721.59729       102.000
  24091838.018    -8534577.290 7   1736545.36525        50.000
 96  6 11 15 46 15.0010000  0  6G 4G 2G 7G26G27G15
  24299286.874    -4405813.866 7  -4104888.79125        42.000
  21587612.077    -9818459.133 9   1861545.07829       116.000
  20585239.775    -3625847.854 9  -2680551.62029       112.000
  23324923.851   -22757316.466 8  -1692919.58626        74.000
  21723276.049    25929229.242 9   6435927.77929       100.000
  24097420.663    -8505291.535 7   1759365.41425        52.000
 96  6 11 15 46 30.0010000  0  6G 4G 2G 7G26G27G15
  24290862.016    -4450046.622 7  -4139355.79125        42.000
  21590469.459    -9803454.654 9   1873236.89429       120.000
  20586411.034    -3619688.587 9  -2675752.16729       112.000
  23327111.077   -22745811.566 8  -1683954.71526        72.000
  21732135.995    25975793.095 9   6472211.31429        98.000
  24103012.452    -8475875.916 7   1782286.71025        48.000
 96  6 11 15 46 45.0010000  0  6G 4G 2G 7G26G27G15
  24282445.733    -4494274.012 7  -4173818.68225        42.000
  21593330.918    -9788411.136 9   1884959.12029       116.000
  20587601.300    -3613427.661 9  -2670873.51929       110.000
  23329325.014   -22734183.058 8  -1674893.55626        76.000
  21741018.156    26022462.992 9   6508577.44429        96.000
  24108635.929    -8446327.277 7   1805311.62725        50.000
 96  6 11 15 47  0.0010000  0  6G 4G 2G 7G26G27G15
  24274035.715    -4538496.312 7  -4208277.56525        44.000
  21596200.651    -9773330.356 9   1896710.36129       116.000
  20588812.252    -3607063.978 9  -2665914.80429       112.000
  23331560.387   -22722429.497 8  -1665734.96126        72.000
  21749919.234    26069239.065 9   6545026.32829        96.000
  24114281.920    -8416644.762 7   1828440.86825        46.000
 96  6 11 15 47 15.0010000  0  6G 4G 2G 7G26G27G15
  24265620.720    -4582717.750 7  -4242735.84725        44.000
  21599077.610    -9758214.615 9   1908488.83729       116.000
  20590042.900    -3600595.553 9  -2660874.49329       112.000
  23333819.473   -22710549.392 8  -1656477.75027        72.000
  21758844.985    26116117.671 9   6581555.08029        96.000
  24119962.447    -8386829.701 7   1851673.37325        48.000
 96  6 11 15 47 30.0010000  0  6G 4G 2G 7G26G27G15
  24257204.797    -4626934.341 7  -4277190.27225        42.000
  21601958.795    -9743061.692 9   1920296.32829       114.000
  20591300.349    -3594013.425 9  -2655745.54929       114.000
  23336109.228   -22698539.302 8  -1647119.24126        76.000
  21767780.539    26163098.193 9   6618163.26829        94.000
  24125663.631    -8356877.243 7   1875012.93625        46.000
 96  6 11 15 47 45.0010000  0  6G 4G 2G 7G26G27G15
  24248785.935    -4671156.884 7  -4311649.40125        44.000
  21604850.353    -9727880.827 9   1932125.57429       116.000
  20592570.210    -3587321.209 9  -2650530.81829       112.000
  23338415.831   -22686406.719 8  -1637665.28726        74.000
  21776737.588    26210170.297 9   6654842.81329        92.000
  24131384.750    -8326795.977 7   1898452.89625        48.000
 96  6 11 15 48  0.0010000  0  6G 4G 2G 7G26G27G15
  24240369.801    -4715394.085 7  -4346119.93525        44.000
  21607739.453    -9712679.388 9   1943970.82829       114.000
  20593864.474    -3580522.575 9  -2645233.20929       110.000
  23340748.576   -22674156.509 8  -1628119.71226        74.000
  21785711.426    26257325.484 9   6691587.07129        92.000
  24137128.624    -8296593.484 7   1921987.30725        44.000
 96  6 11 15 48 15.0010000  0  6G 4G 2G 7G26G27G15
  24231952.139    -4759635.516 7  -4380593.77925        42.000
  21610639.466    -9697447.232 9   1955840.05129       112.000
  20595180.773    -3573609.549 9  -2639846.42229       114.000
  23343099.279   -22661780.623 8  -1618476.15326        72.000
  21794700.103    26304576.370 9   6728405.94429        92.000
  24142903.586    -8266260.104 7   1945623.67725        48.000
 96  6 11 15 48 30.0010000  0  6G 4G 2G 7G26G27G15
  24223526.801    -4803878.370 6  -4415068.66825        40.000
  21613541.457    -9682186.027 9   1967731.90029       112.000
  20596516.079    -3566584.024 9  -2634371.97729       112.000
  23345480.830   -22649278.643 8  -1608734.35526        76.000
  21803714.293    26351927.625 9   6765303.01229        92.000
  24148701.932    -8235794.870 7   1969362.84425        44.000
 96  6 11 15 48 45.0010000  0  6G 4G 2G 7G26G27G15
  24215112.466    -4848120.661 7  -4449543.14825        44.000
  21616451.332    -9666893.389 9   1979648.24629       114.000
  20597875.727    -3559447.152 9  -2628810.76029       112.000
  23347884.956   -22636647.280 8  -1598891.72226        72.000
  21812743.892    26399383.624 9   6802281.71029        94.000
  24154515.387    -8205195.851 7   1993206.24525        42.000
 96  6 11 15 49  0.0010000  0  6G 4G 2G 7G26G27G15
  24206691.446    -4892362.159 7  -4484017.02425        44.000
  21619371.161    -9651566.126 9   1991591.55329       114.000
  20599258.250    -3552199.285 9  -2623163.07329       112.000
  23350316.422   -22623886.287 8  -1588948.09926        74.000
  21821790.459    26446941.593 9   6839339.84629        92.000
  24160373.362    -8174463.511 7   2017153.51325        44.000
 96  6 11 15 49 15.0010000  0  6G 4G 2G 7G26G27G15
  24198286.975    -4936605.960 7  -4518492.67425        42.000
  21622295.037    -9636204.391 9   2003561.74329       112.000
  20600652.405    -3544842.805 9  -2617430.74229       110.000
  23352768.155   -22611004.231 8  -1578910.13626        74.000
  21830862.179    26494595.104 9   6876472.44329        94.000
  24166244.917    -8143602.015 6   2041201.43025        38.000
 96  6 11 15 49 30.0010000  0  6G 4G 2G 7G26G27G15
  24189866.044    -4980842.657 7  -4552962.81525        42.000
  21625225.808    -9620799.943 9   2015565.18529       114.000
  20602074.980    -3537371.312 9  -2611608.81529       114.000
  23355240.783   -22597998.484 8  -1568775.83026        72.000
  21839949.008    26542353.039 9   6913686.39529        92.000
  24172143.453    -8112604.865 6   2065354.99525        40.000
 96  6 11 15 49 45.0010000  0  6G 4G 2G 7G26G27G15
  24181437.919    -5025079.854 6  -4587433.35025        40.000
  21628164.583    -9605362.652 9   2027594.25329       114.000
  20603517.342    -3529796.764 9  -2605706.54429       114.000
  23357737.395   -22584880.583 8  -1558554.08826        72.000
  21849057.542    26590208.965 9   6950976.72129        92.000
  24178063.425    -8081482.781 7   2089605.96425        42.000
 96  6 11 15 50  0.0010000  0  6G 4G 2G 7G26G27G15
  24173020.886    -5069311.393 6  -4621899.46425        40.000
  21631107.466    -9589886.977 9   2039653.22229       114.000
  20604979.669    -3522120.477 9  -2599725.01529       112.000
  23360257.001   -22571645.483 8  -1548241.02126        74.000
  21858180.646    26638169.983 9   6988348.94829        92.000
  24184005.731    -8050232.407 6   2113956.95925        38.000
 96  6 11 15 50 15.0010000  0  6G 4G 2G 7G26G27G15
  24164607.780    -5113536.906 7  -4656360.84025        42.000
  21634064.499    -9574370.855 9   2051743.70429       116.000
  20606460.524    -3514346.404 9  -2593667.29929       112.000
  23362792.315   -22558294.752 8  -1537837.86626        70.000
  21867329.053    26686238.231 9   7025804.68928        92.000
  24189985.422    -8018852.172 6   2138409.06225        40.000
 96  6 11 15 50 30.0010000  0  6G 4G 2G 7G26G27G15
  24156197.522    -5157759.180 7  -4690819.70925        42.000
  21637022.581    -9558814.509 9   2063865.53329       116.000
  20607957.358    -3506476.383 9  -2587534.80829       112.000
  23365355.091   -22544830.462 8  -1527346.21326        74.000
  21876499.555    26734411.097 9   7063341.98528        94.000
  24195982.830    -7987344.225 6   2162960.70725        38.000
 96  6 11 15 50 45.0010000  0  6G 4G 2G 7G26G27G15
  24147775.903    -5201974.211 7  -4725272.95525        42.000
  21639990.526    -9543212.709 9   2076022.75129       114.000
  20609474.967    -3498505.517 9  -2581323.75729       112.000
  23367944.219   -22531245.537 8  -1516760.59726        72.000
  21885684.446    26782686.250 9   7100958.95028        90.000
  24201999.724    -7955705.700 6   2187614.03725        40.000
 96  6 11 15 51  0.0010000  0  6G 4G 2G 7G26G27G15
  24139360.369    -5246181.673 6  -4759720.32925        38.000
  21642967.645    -9527562.735 9   2088217.51929       114.000
  20611008.226    -3490433.461 9  -2575033.85429       114.000
  23370550.704   -22517542.929 8  -1506083.25726        74.000
  21894890.803    26831061.103 9   7138653.61628        94.000
  24208039.643    -7923937.721 6   2212368.29726        36.000
 96  6 11 15 51 15.0010000  0  6G 4G 2G 7G26G27G15
  24130956.047    -5290383.757 7  -4794163.49725        42.000
  21645956.396    -9511870.162 9   2100445.48929       114.000
  20612562.290    -3482262.472 9  -2568666.86329       112.000
  23373179.285   -22503731.817 8  -1495321.38126        72.000
  21904110.800    26879531.826 9   7176422.99128        94.000
  24214106.993    -7892044.695 6   2237219.97326        38.000
 96  6 11 15 51 30.0010000  0  6G 4G 2G 7G26G27G15
  24122547.168    -5334575.633 7  -4828598.67125        42.000
  21648947.306    -9496134.434 9   2112707.12229       114.000
  20614139.228    -3473988.559 9  -2562219.62729       112.000
  23375826.842   -22489807.999 8  -1484471.64626        72.000
  21913356.819    26928104.851 9   7214272.12328        94.000
  24220202.493    -7860022.552 6   2262172.29926        40.000
 96  6 11 15 51 45.0010000  0  6G 4G 2G 7G26G27G15
  24114133.912    -5378764.522 7  -4863031.55425        42.000
  21651949.038    -9480364.662 9   2124995.24729       114.000
  20615731.336    -3465620.891 9  -2555699.37329       114.000
  23378498.053   -22475776.864 8  -1473538.29826        74.000
  21922615.999    26976771.686 9   7252194.31228        94.000
  24226317.030    -7827879.794 6   2287218.59226        38.000
 96  6 11 15 52  0.0010000  0  6G 4G 2G 7G26G27G15
  24105726.413    -5422934.809 7  -4897449.94125        42.000
  21654957.665    -9464544.220 9   2137322.85629       114.000
  20617341.971    -3457142.448 9  -2549092.80529       114.000
  23381192.377   -22461623.271 8  -1462509.55126        72.000
  21931894.096    27025546.005 9   7290200.24628        94.000
  24232467.662    -7795600.827 6   2312371.02026        40.000
 96  6 11 15 52 15.0010000  0  6G 4G 2G 7G26G27G15
  24097321.162    -5467093.240 7  -4931859.06125        42.000
  21657977.174    -9448678.190 9   2149686.00829       116.000
  20618978.598    -3448557.101 9  -2542402.91129       114.000
  23383906.099   -22447353.098 8  -1451389.94726        72.000
  21941194.527    27074416.799 9   7328281.38628        94.000
  24238632.444    -7763191.680 6   2337624.89526        38.000
 96  6 11 15 52 30.0010000  0  6G 4G 2G 7G26G27G15
  24088927.423    -5511237.516 7  -4966257.18125        42.000
  21661008.886    -9432764.182 9   2162086.51529       114.000
  20620632.403    -3439860.851 9  -2535626.60829       114.000
  23386638.617   -22432965.697 8  -1440178.99526        72.000
  21950516.424    27123382.776 9   7366436.67228        94.000
  24244826.726    -7730651.887 7   2362980.58626        44.000
 96  6 11 15 52 45.0010000  0  6G 4G 2G 7G26G27G15
  24080532.364    -5555361.866 7  -5000639.76725        44.000
  21664043.715    -9416802.162 9   2174524.45829       114.000
  20622310.701    -3431050.418 9  -2528761.34229       112.000
  23389408.669   -22418459.521 8  -1428875.49426        72.000
  21959850.672    27172442.540 9   7404665.05728        92.000
  24251034.708    -7697981.321 6   2388438.13826        38.000
 96  6 11 15 53  0.0010000  0  6G 4G 2G 7G26G27G15
  24072134.488    -5599466.702 7  -5035007.14725        42.000
  21667092.364    -9400795.197 9   2186997.40329       116.000
  20624007.347    -3422128.730 9  -2521809.39129       110.000
  23392187.835   -22403837.453 8  -1417481.71726        72.000
  21969204.047    27221595.479 9   7442966.02028        92.000
  24257278.635    -7665180.551 7   2413997.16626        42.000
 96  6 11 15 53 15.0010000  0  6G 4G 2G 7G26G27G15
  24063750.912    -5643562.032 7  -5069367.16525        44.000
  21670144.041    -9384752.691 9   2199498.06029       118.000
  20625721.710    -3413103.450 9  -2514776.69329       112.000
  23394987.207   -22389108.370 8  -1406004.52426        70.000
  21978575.229    27270836.309 9   7481335.49328        94.000
  24263549.214    -7632257.311 6   2439651.64126        40.000
 96  6 11 15 53 30.0010000  0  6G 4G 2G 7G26G27G15
  24055366.586    -5687646.532 7  -5103718.67825        46.000
  21673202.734    -9368674.369 9   2212026.61929       116.000
  20627461.436    -3403970.326 9  -2507659.96829       114.000
  23397815.809   -22374262.751 8  -1394436.50226        70.000
  21987962.390    27320167.232 9   7519775.16028        90.000
  24269842.787    -7599208.803 7   2465403.70726        44.000
 96  6 11 15 53 45.0010000  0  6G 4G 2G 7G26G27G15
  24046970.149    -5731719.304 7  -5138061.08625        44.000
  21676270.210    -9352555.826 9   2224586.51229       118.000
  20629219.269    -3394729.058 9  -2500458.98929       112.000
  23400669.534   -22359293.101 8  -1382771.86626        70.000
  21997367.509    27369591.150 9   7558287.27828        92.000
  24276154.228    -7566032.561 7   2491255.31526        48.000
 96  6 11 15 54  0.0010000  0  6G 4G 2G 7G26G27G15
  24038581.746    -5775774.918 7  -5172390.07425        42.000
  21679346.351    -9336390.468 9   2237182.93229       118.000
  20630998.747    -3385373.110 9  -2493168.61529       112.000
  23403535.699   -22344192.610 8  -1371005.25326        68.000
  22006790.556    27419113.414 9   7596876.06128        92.000
  24282487.853    -7532722.402 7   2517211.31626        46.000
 96  6 11 15 54 15.0010000  0  6G 4G 2G 7G26G27G15
  24030205.095    -5819813.885 7  -5206706.13525        42.000
  21682431.125    -9320179.520 9   2249814.81529       118.000
  20632805.446    -3375904.846 9  -2485790.75629       114.000
  23406433.463   -22328961.001 8  -1359136.51526        66.000
  22016234.768    27468731.968 9   7635539.84428        90.000
  24288852.807    -7499279.467 7   2543270.73926        46.000
 96  6 11 15 54 30.0010000  0  6G 4G 2G 7G26G27G15
  24021825.386    -5863844.290 7  -5241015.52425        42.000
  21685523.484    -9303931.921 9   2262475.27129       120.000
  20634622.788    -3366334.905 9  -2478333.66929       112.000
  23409360.697   -22313604.253 8  -1347170.21426        68.000
  22025690.522    27518439.004 9   7674272.57928        88.000
  24295246.961    -7465711.763 7   2569427.37426        52.000
 96  6 11 15 54 45.0010000  0  6G 4G 2G 7G26G27G15
  24013453.412    -5907864.533 7  -5275317.01425        42.000
  21688623.009    -9287650.050 9   2275162.43829       120.000
  20636462.614    -3356663.994 9  -2470797.89329       112.000
  23412306.487   -22298121.948 8  -1335106.12026        68.000
  22035169.420    27568236.162 9   7713075.53328        88.000
  24301657.513    -7432018.944 7   2595681.50126        48.000
 96  6 11 15 55  0.0010000  0  6G 4G 2G 7G26G27G15
  24005077.181    -5951874.107 7  -5309610.15425        44.000
  21691725.531    -9271333.544 9   2287876.61829       122.000
  20638324.205    -3346891.372 9  -2463182.84529       116.000
  23415275.692   -22282510.625 8  -1322941.44926        66.000
  22044660.279    27618127.130 9   7751951.61528        86.000
  24308082.874    -7398197.904 7   2622035.57526        44.000
 96  6 11 15 55 15.0010000  0  6G 4G 2G 7G26G27G15
  23996704.727    -5995873.629 7  -5343895.45525        44.000
  21694836.357    -9254979.634 9   2300619.91529       118.000
  20640205.613    -3337016.236 9  -2455487.93529       114.000
  23418263.514   -22266766.974 8  -1310673.69026        66.000
  22054176.501    27668114.520 9   7790902.80628        86.000
  24314553.145    -7364247.236 7   2648490.63326        50.000
 96  6 11 15 55 30.0010000  0  6G 4G 2G 7G26G27G15
  23988331.554    -6039864.295 7  -5378173.89925        44.000
  21697956.597    -9238591.289 9   2313390.05429       120.000
  20642101.411    -3327041.045 9  -2447715.06129       112.000
  23421288.060   -22250892.562 8  -1298304.06226        68.000
  22063707.443    27718194.631 9   7829926.25128        86.000
  24321034.808    -7330170.863 7   2675043.65826        44.000
 96  6 11 15 55 45.0010000  0  6G 4G 2G 7G26G27G15
  23979961.168    -6083836.495 7  -5412437.86325        44.000
  21701083.642    -9222161.616 9   2326192.42029       120.000
  20644017.984    -3316961.016 9  -2439860.46529       114.000
  23424339.707   -22234883.431 8  -1285829.40426        68.000
  22073250.227    27768374.379 9   7869027.36628        84.000
  24327547.559    -7295962.828 7   2701699.30526        50.000
 96  6 11 15 56  0.0010000  0  6G 4G 2G 7G26G27G15
  23971597.319    -6127803.207 7  -5446697.62325        42.000
  21704216.024    -9205703.303 9   2339017.02029       122.000
  20645953.024    -3306790.253 9  -2431935.24229       112.000
  23427406.344   -22218760.049 8  -1273265.77326        64.000
  22082815.315    27818637.386 9   7908193.28428        84.000
  24334078.118    -7261637.215 7   2728446.50626        52.000
 96  6 11 15 56 15.0010000  0  6G 4G 2G 7G26G27G15
  23963229.092    -6171757.218 7  -5480947.50725        42.000
  21707358.299    -9189210.799 9   2351868.32629       124.000
  20647907.431    -3296520.840 9  -2423933.10429       114.000
  23430499.153   -22202520.116 8  -1260611.30326        70.000
  22092397.971    27868986.655 8   7947426.44928        82.000
  24340626.035    -7227189.140 7   2755289.13926        48.000
 96  6 11 15 56 30.0010000  0  6G 4G 2G 7G26G27G15
  23954876.694    -6215691.199 7  -5515181.71125        44.000
  21710502.402    -9172675.584 9   2364752.93029       122.000
  20649882.314    -3286146.482 9  -2415849.16429       114.000
  23433611.658   -22186158.956 8  -1247862.33326        68.000
  22101995.527    27919428.661 8   7986731.93028        82.000
  24347210.377    -7192612.143 7   2782232.29326        54.000
 96  6 11 15 56 45.0010000  0  6G 4G 2G 7G26G27G15
  23946517.011    -6259609.539 7  -5549403.78625        44.000
  21713655.949    -9156103.406 9   2377666.30229       122.000
  20651873.446    -3275671.265 9  -2407686.65429       114.000
  23436742.121   -22169685.113 8  -1235025.58226        66.000
  22111614.218    27969960.396 9   8026107.28128        84.000
  24353817.443    -7157911.710 7   2809271.60126        50.000
 96  6 11 15 57  0.0010000  0  6G 4G 2G 7G26G27G15
  23938161.256    -6303513.083 7  -5583614.31525        44.000
  21716814.382    -9139495.077 9   2390607.83429       124.000
  20653887.002    -3265093.378 9  -2399444.15329       114.000
  23439902.773   -22153099.567 8  -1222101.76926        68.000
  22121247.839    28020582.641 8   8065553.17528        82.000
  24360443.576    -7123088.768 7   2836406.34426        54.000
 96  6 11 15 57 15.0010000  0  6G 4G 2G 7G26G27G15
  23929808.049    -6347398.086 7  -5617810.35825        44.000
  21719983.398    -9122844.479 9   2403582.36129       122.000
  20655922.353    -3254409.410 9  -2391118.95629       114.000
  23443078.804   -22136399.401 8  -1209088.66026        68.000
  22130898.338    28071301.414 8   8105074.30228        82.000
  24367088.865    -7088140.281 7   2863638.96426        52.000
 96  6 11 15 57 30.0010000  0  5G 4G 2G 7G26G27
  23921461.976    -6391265.450 7  -5651992.70625        42.000
  21723158.530    -9106155.005 9   2416587.12829       124.000
  20657976.291    -3243624.461 9  -2382715.12329       114.000
  23446278.099   -22119590.984 8  -1195991.23326        68.000
  22140568.923    28122113.811 9   8144668.33528        84.000
 96  6 11 15 57 45.0010000  0  5G 4G 2G 7G26G27
  23913116.834    -6435109.081 7  -5686156.55425        42.000
  21726343.166    -9089419.986 9   2429627.37829       124.000
  20660046.897    -3232731.819 9  -2374227.35129       116.000
  23449496.282   -22102670.140 8  -1182806.19726        64.000
  22150258.125    28173026.495 9   8184340.53428        84.000
 96  6 11 15 58  0.0010000  0  5G 4G 2G 7G26G27
  23904776.548    -6478941.891 7  -5720311.91225        46.000
  21729536.375    -9072650.503 9   2442694.52029       126.000
  20662134.622    -3221743.191 9  -2365664.76529       114.000
  23452738.117   -22085650.744 8  -1169544.28626        66.000
  22159963.487    28224027.170 9   8224081.32228        84.000
 96  6 11 15 58 15.0010000  0  6G 4G 2G 9G 7G26G27
  23896437.820    -6522751.309 7  -5754449.11925        42.000
  21732734.711    -9055833.496 9   2455798.67229       124.000
  24613694.964    -3824518.094 7  -3342041.24025        48.000
  20664249.208    -3210645.306 9  -2357017.06629       114.000
  23455998.750   -22068518.024 8  -1156194.14326        64.000
  22169685.156    28275129.602 9   8263901.37328        84.000
 96  6 11 15 58 30.0010000  0  6G 4G 2G 9G 7G26G27
  23888110.575    -6566534.874 7  -5788566.14325        42.000
  21735943.869    -9038968.587 9   2468940.16329       126.000
  24605779.124    -3866067.816 7  -3374417.65425        46.000
  20666385.799    -3199440.443 9  -2348285.98729       116.000
  23459282.976   -22051267.547 8  -1142752.23826        66.000
  22179430.270    28326338.311 9   8303804.25228        84.000
 96  6 11 15 58 45.0010000  0  6G 4G 2G 9G 7G26G27
  23879784.289    -6610298.725 7  -5822667.84125        46.000
  21739161.452    -9022064.006 9   2482112.52929       124.000
  24597876.504    -3907593.555 7  -3406775.39125        46.000
  20668531.893    -3188136.262 9  -2339477.55329       116.000
  23462585.970   -22033903.724 8  -1129222.02726        66.000
  22189192.322    28377649.653 9   8343787.06328        84.000
 96  6 11 15 59  0.0010000  0  6G 4G 2G 9G 7G26G27
  23871457.584    -6654038.553 7  -5856750.77025        46.000
  21742386.709    -9005115.946 9   2495318.81529       126.000
  24589977.992    -3949088.977 7  -3439109.39725        42.000
  20670704.429    -3176726.933 9  -2330587.16229       114.000
  23465914.745   -22016418.392 8  -1115597.10926        66.000
  22198980.186    28429068.750 9   8383853.88828        86.000
 96  6 11 15 59 15.0010000  0  6G 4G 2G 9G 7G26G27
  23863137.174    -6697760.443 7  -5890819.72525        46.000
  21745620.570    -8988129.851 9   2508554.74829       126.000
  24582091.412    -3990558.369 7  -3471423.21825        42.000
  20672894.983    -3165218.278 9  -2321619.35529       116.000
  23469265.466   -21998816.511 8  -1101881.34526        70.000
  22208781.151    28480589.247 9   8423999.73028        84.000
 96  6 11 15 59 30.0010000  0  6G 4G 2G 9G 7G26G27
  23854816.494    -6741466.428 7  -5924876.35025        48.000
  21748859.018    -8971108.482 9   2521818.12029       126.000
  24574199.975    -4032004.660 6  -3503719.01225        40.000
  20675101.905    -3153615.755 9  -2312578.44029       116.000
  23472633.844   -21981102.134 8  -1088077.95926        66.000
  22218608.318    28532206.019 9   8464220.55128        86.000
 96  6 11 15 59 45.0010000  0  6G 4G 2G 9G 7G26G27
  23846510.654    -6785154.177 7  -5958918.69825        50.000
  21752103.462    -8954048.328 9   2535111.74929       126.000
  24566321.999    -4073423.430 7  -3535993.34925        42.000
  20677329.153    -3141914.360 9  -2303460.46429       116.000
  23476026.235   -21963270.913 8  -1074183.52726        68.000
  22228445.467    28583919.412 9   8504516.69128        86.000
 96  6 11 16  0  0.0010000  0  6G 4G 2G 9G 7G26G27
  23838196.840    -6828824.051 7  -5992947.15325        52.000
  21755358.848    -8936947.491 9   2548437.05929       126.000
  24558439.886    -4114812.981 6  -3568244.97025        40.000
  20679575.678    -3130111.092 9  -2294263.12729       116.000
  23479443.000   -21945320.538 8  -1060196.24726        64.000
  22238305.941    28635727.340 9   8544886.47528        86.000
 96  6 11 16  0 15.0010000  0  6G 4G 2G 9G 7G26G27
  23829889.891    -6872471.898 7  -6026958.41825        50.000
  21758621.909    -8919804.046 9   2561795.58329       124.000
  24550576.869    -4156174.956 6  -3600475.03525        40.000
  20681839.171    -3118203.085 9  -2284984.15029       118.000
  23482883.058   -21927246.959 8  -1046112.94826        64.000
  22248183.623    28687628.332 9   8585328.80128        86.000
 96  6 11 16  0 30.0010000  0  6G 4G 2G 9G 7G26G27
  23821589.357    -6916107.340 7  -6060960.03025        52.000
  21761887.819    -8902628.290 9   2575179.27729       126.000
  24542711.994    -4197519.741 6  -3632691.74225        40.000
  20684128.446    -3106200.501 9  -2275631.48729       118.000
  23486341.074   -21909059.915 8  -1031941.24926        64.000
  22258070.718    28739611.148 9   8625834.87128        84.000
 96  6 11 16  0 45.0010000  0  6G 4G 2G 9G 7G26G27
  23813289.543    -6959723.808 7  -6094946.87025        52.000
  21765166.589    -8885412.432 9   2588594.22929       126.000
  24534847.179    -4238836.586 6  -3664886.64425        40.000
  20686427.045    -3094094.562 9  -2266198.28429       118.000
  23489828.980   -21890751.472 8  -1017674.94926        66.000
  22267982.007    28791681.359 9   8666409.04228        84.000
 96  6 11 16  1  0.0010000  0  6G 4G 2G 9G 7G26G27
  23804989.399    -7003321.740 7  -6128919.23125        50.000
  21768450.096    -8868156.656 9   2602040.30429       126.000
  24526990.248    -4280125.141 7  -3697059.53525        42.000
  20688749.567    -3081884.594 9  -2256684.00529       118.000
  23493328.577   -21872325.110 7  -1003316.73626        62.000
  22277906.366    28843831.866 9   8707045.80428        86.000
 96  6 11 16  1 15.0010000  0  6G 4G 2G 9G 7G26G27
  23796700.857    -7046901.740 7  -6162877.67325        50.000
  21771737.170    -8850862.127 9   2615516.52729       124.000
  24519140.452    -4321388.135 7  -3729212.51225        42.000
  20691095.772    -3069572.348 9  -2247090.07429       118.000
  23496862.591   -21853784.941 8   -988869.91026        66.000
  22287843.017    28896058.364 9   8747741.73427        84.000
 96  6 11 16  1 30.0010000  0  6G 4G 2G 9G 7G26G27
  23788412.015    -7090457.453 7  -6196817.15025        54.000
  21775039.264    -8833523.228 9   2629027.34829       126.000
  24511288.348    -4362625.274 7  -3761345.33325        42.000
  20693458.797    -3057155.592 9  -2237414.67129       118.000
  23500409.855   -21835131.287 7   -974334.61426        62.000
  22297796.547    28948361.241 9   8788497.19427        84.000
 96  6 11 16  1 45.0010000  0  6G 4G 2G 9G 7G26G27
  23780128.300    -7133992.156 7  -6230740.26925        50.000
  21778347.144    -8816141.227 9   2642571.76429       124.000
  24503441.910    -4403840.985 6  -3793461.46225        38.000
  20695840.708    -3044638.717 9  -2227661.26229       120.000
  23503981.132   -21816366.675 8   -959712.85026        64.000
  22307763.836    29000736.293 9   8829308.91627        84.000
 96  6 11 16  2  0.0010000  0  6G 4G 2G 9G 7G26G27
  23771837.479    -7177503.501 7  -6264645.19625        50.000
  21781663.478    -8798713.370 9   2656151.88929       124.000
  24495609.622    -4445033.228 6  -3825559.30325        40.000
  20698241.895    -3032016.272 9  -2217825.60829       120.000
  23507574.265   -21797489.311 8   -945003.24726        66.000
  22317747.855    29053185.288 8   8870178.22827        82.000
 96  6 11 16  2 15.0010000  0  6G 4G 2G 9G 7G26G27
  23763574.300    -7220993.131 7  -6298533.16025        52.000
  21784987.727    -8781247.000 9   2669762.04729       122.000
  24487769.270    -4486207.283 6  -3857642.92825        40.000
  20700661.610    -3019294.402 9  -2207912.44729       120.000
  23511186.284   -21778505.353 8   -930210.54726        64.000
  22327746.053    29105705.119 8   8911102.78227        82.000
 96  6 11 16  2 30.0010000  0  6G 4G 2G 9G 7G26G27
  23755301.647    -7264453.325 7  -6332398.23025        52.000
  21788321.569    -8763736.191 9   2683406.81629       120.000
  24479941.989    -4527357.164 7  -3889707.77925        44.000
  20703103.030    -3006469.555 9  -2197919.07229       120.000
  23514818.150   -21759408.175 8   -915329.66726        66.000
  22337750.547    29158305.422 8   8952089.99627        80.000
 96  6 11 16  2 45.0010000  0  6G 4G 2G 9G 7G26G27
  23747032.472    -7307886.697 7  -6366242.37025        48.000
  21791664.405    -8746182.455 9   2697085.07229       124.000
  24472119.654    -4568482.861 7  -3921753.73425        46.000
  20705560.579    -2993544.966 9  -2187847.94329       118.000
  23518473.580   -21740200.792 8   -900362.86626        64.000
  22347776.746    29210988.164 8   8993141.48327        80.000
 96  6 11 16  3  0.0010000  0  6G 4G 2G 9G 7G26G27
  23738779.155    -7351294.797 7  -6400066.86226        52.000
  21795009.969    -8728588.463 9   2710794.65029       120.000
  24464295.401    -4609587.678 7  -3953783.46625        44.000
  20708039.862    -2980525.557 9  -2177702.96229       122.000
  23522144.868   -21720887.267 8   -885313.39126        64.000
  22357812.868    29263749.506 8   9034254.18727        78.000
 96  6 11 16  3 15.0010000  0  6G 4G 2G 9G 7G26G27
  23730519.783    -7394674.670 7  -6433869.31426        48.000
  21798363.447    -8710950.679 9   2724538.37729       116.000
  24456474.955    -4650668.339 7  -3985794.33025        44.000
  20710538.363    -2967409.498 9  -2167482.64129       122.000
  23525845.686   -21701468.193 8   -870181.65626        64.000
  22367871.954    29316595.030 8   9075432.50527        80.000
 96  6 11 16  3 30.0010000  0  6G 4G 2G 9G 7G26G27
  23722269.944    -7438023.843 7  -6467647.89026        50.000
  21801726.549    -8693264.122 9   2738320.08629       116.000
  24448661.704    -4691721.865 7  -4017784.08925        48.000
  20713052.332    -2954194.191 9  -2157185.02629       122.000
  23529558.855   -21681938.807 7   -854963.97726        60.000
  22377946.780    29369534.912 8   9116684.31327        78.000
 96  6 11 16  3 45.0010000  0  6G 4G 2G 9G 7G26G27
  23714023.733    -7481348.038 7  -6501406.94726        50.000
  21805100.953    -8675535.003 9   2752134.99029       116.000
  24440858.076    -4732753.303 7  -4049756.64525        48.000
  20715585.968    -2940885.726 9  -2146814.78529       122.000
  23533297.957   -21662302.887 8   -839663.25626        64.000
  22388038.933    29422565.282 8   9158006.68127        78.000
 96  6 11 16  4  0.0010000  0  6G 4G 2G 9G 7G26G27
  23705785.286    -7524648.226 7  -6535147.32726        52.000
  21808487.079    -8657765.619 9   2765981.24029       118.000
  24433058.046    -4773757.973 7  -4081708.34225        48.000
  20718135.523    -2927481.380 9  -2136369.85129       122.000
  23537057.624   -21642557.832 8   -824277.52026        66.000
  22398146.886    29475689.605 8   9199402.21627        76.000
 96  6 11 16  4 15.0010000  0  6G 4G 2G 9G 7G26G27
  23697549.298    -7567922.228 7  -6568867.27326        50.000
  21811874.344    -8639958.057 9   2779857.27829       118.000
  24425256.427    -4814737.104 7  -4113640.12025        48.000
  20720702.586    -2913981.753 9  -2125850.62929       124.000
  23540836.388   -21622706.517 8   -808808.94826        66.000
  22408271.986    29528908.065 8   9240871.15527        74.000
 96  6 11 16  4 30.0010000  0  6G 4G 2G 9G 7G26G27
  23689321.284    -7611171.009 7  -6602567.60426        52.000
  21815271.172    -8622111.766 9   2793763.48029       116.000
  24417464.521    -4855693.500 7  -4145554.21225        50.000
  20723287.007    -2900393.414 9  -2115262.32029       124.000
  23544632.120   -21602749.966 8   -793258.41426        64.000
  22418417.742    29582219.671 8   9282412.65027        76.000
 96  6 11 16  4 45.0010000  0  6G 4G 2G 9G 7G26G27
  23681094.050    -7654393.931 7  -6636247.79626        52.000
  21818672.917    -8604223.683 9   2807702.21729       112.000
  24409672.076    -4896626.208 7  -4177449.80025        48.000
  20725892.773    -2886713.495 9  -2104602.66029       124.000
  23548449.827   -21582685.709 8   -777623.95026        68.000
  22428579.448    29635625.835 8   9324027.81227        76.000
 96  6 11 16  5  0.0010000  0  6G 4G 2G 9G 7G26G27
  23672878.687    -7697589.508 7  -6669906.65226        52.000
  21822084.225    -8586293.003 9   2821674.17029       114.000
  24401888.054    -4937534.622 7  -4209326.46925        50.000
  20728517.156    -2872939.994 9  -2093870.06729       126.000
  23552283.543   -21562513.266 8   -761905.18526        64.000
  22438760.969    29689125.277 8   9365715.66127        76.000
 96  6 11 16  5 15.0010000  0  6G 4G 2G 9G 7G26G27
  23664664.314    -7740762.042 7  -6703547.53126        52.000
  21825508.785    -8568326.500 9   2835674.06629       116.000
  24394104.513    -4978424.818 7  -4241188.90525        46.000
  20731148.794    -2859079.642 9  -2083069.76029       126.000
  23556147.329   -21542237.810 8   -746106.10026        66.000
  22448957.240    29742710.060 8   9407470.06627        76.000
 96  6 11 16  5 30.0010000  0  6G 4G 2G 9G 7G26G27
  23656454.347    -7783908.362 7  -6737168.06926        54.000
  21828932.415    -8550322.821 9   2849702.84829       116.000
  24386326.727    -5019293.872 7  -4273034.95025        46.000
  20733807.084    -2845127.978 9  -2072198.37529       124.000
  23560018.848   -21521852.620 7   -730221.59326        62.000
  22459176.416    29796385.087 8   9449294.68927        78.000
 96  6 11 16  5 45.0010000  0  6G 4G 2G 9G 7G26G27
  23648248.608    -7827026.823 7  -6770766.81126        54.000
  21832360.841    -8532283.878 9   2863759.18229       112.000
  24378553.648    -5060142.943 7  -4304865.39725        48.000
  20736476.976    -2831085.009 9  -2061255.79929       126.000
  23563924.515   -21501354.688 8   -714249.17026        64.000
  22469401.407    29850146.584 8   9491186.77127        74.000
 96  6 11 16  6  0.0010000  0  6G 4G 2G 9G 7G26G27
  23640047.576    -7870112.233 7  -6804339.83826        54.000
  21835805.576    -8514203.650 9   2877847.66429       114.000
  24370792.651    -5100962.080 7  -4336672.50025        50.000
  20739169.772    -2816944.787 9  -2050237.44329       128.000
  23567848.258   -21480739.136 8   -698185.11926        64.000
  22479650.202    29903999.119 8   9533149.75527        74.000
 96  6 11 16  6 15.0010000  0  6G 4G 2G 9G 7G26G27
  23631858.715    -7913166.627 7  -6837888.66026        58.000
  21839247.853    -8496083.268 9   2891967.45329       112.000
  24363024.669    -5141753.815 7  -4368458.22125        48.000
  20741878.876    -2802710.826 9  -2039146.02729       126.000
  23571792.238   -21460009.813 8   -682032.38926        64.000
  22489912.218    29957937.679 8   9575179.80527        72.000
 96  6 11 16  6 30.0010000  0  6G 4G 2G 9G 7G26G27
  23623666.226    -7956190.209 7  -6871413.52226        54.000
  21842707.248    -8477921.814 9   2906119.20329       110.000
  24355267.959    -5182519.699 7  -4400223.88725        48.000
  20744603.300    -2788388.334 9  -2027985.66229       126.000
  23575758.072   -21439167.775 8   -665791.87726        66.000
  22500195.879    30011959.561 8   9617274.73127        76.000
 96  6 11 16  6 45.0010000  0  6G 4G 2G 9G 7G26G27
  23615484.111    -7999193.297 7  -6904922.37826        56.000
  21846170.091    -8459728.004 9   2920296.21529       114.000
  24347514.816    -5223264.178 7  -4431972.78325        48.000
  20747344.003    -2773983.788 9  -2016761.33429       126.000
  23579747.171   -21418218.270 8   -649467.60226        64.000
  22510486.704    30066054.532 8   9659426.65327        74.000
 96  6 11 16  7  0.0010000  0  6G 4G 2G 9G 7G26G27
  23607306.762    -8042162.099 7  -6938404.56126        58.000
  21849640.788    -8441489.291 9   2934508.18029       114.000
  24339769.498    -5263971.796 7  -4463693.01625        50.000
  20750103.053    -2759481.782 9  -2005461.07829       126.000
  23583755.756   -21397148.509 8   -633049.63526        64.000
  22520800.075    30120234.889 8   9701645.10327        76.000
 96  6 11 16  7 15.0010000  0  6G 4G 2G 9G 7G26G27
  23599134.479    -8085092.216 7  -6971856.57626        58.000
  21853120.390    -8423198.557 9   2948760.68729       110.000
  24332029.307    -5304634.302 7  -4495378.08625        50.000
  20752880.780    -2744880.409 9  -1994083.39129       126.000
  23587786.345   -21375956.581 8   -616536.44826        64.000
  22531125.796    30174504.193 8   9743932.83727        76.000
 96  6 11 16  7 30.0010000  0  6G 4G 2G 9G 7G26G27
  23590972.659    -8127996.887 7  -7005288.72326        58.000
  21856606.646    -8404868.912 9   2963043.55129       110.000
  24324297.030    -5345263.082 7  -4527036.85225        48.000
  20755679.282    -2730193.358 9  -1982638.90929       126.000
  23591843.257   -21354656.696 8   -599939.14826        66.000
  22541468.306    30228850.144 8   9786280.34627        76.000
 96  6 11 16  7 45.0010000  0  6G 4G 2G 9G 7G26G27
  23582815.547    -8170873.818 7  -7038699.30526        60.000
  21860104.894    -8386493.759 9   2977361.83329       110.000
  24316572.637    -5385855.610 7  -4558667.35825        46.000
  20758488.278    -2715413.818 9  -1971122.40229       124.000
  23595912.939   -21333246.991 7   -583256.29326        62.000
  22551823.378    30283275.835 8   9828689.93927        76.000
 96  6 11 16  8  0.0010000  0  6G 4G 2G 9G 7G26G27
  23574658.583    -8213724.537 7  -7072089.44826        60.000
  21863613.335    -8368071.533 9   2991716.82029       112.000
  24308856.909    -5426412.496 7  -4590270.12225        46.000
  20761317.269    -2700542.533 9  -1959534.38029       124.000
  23600010.892   -21311733.032 8   -566492.17126        66.000
  22562194.098    30337777.884 8   9871159.07827        74.000
 96  6 11 16  8 15.0010000  0  6G 4G 2G 9G 7G26G27
  23566510.584    -8256540.765 7  -7105452.71726        58.000
  21867126.663    -8349595.862 9   3006113.42929       114.000
  24301146.996    -5466927.864 7  -4621840.54425        46.000
  20764171.413    -2685572.312 9  -1947869.28529       122.000
  23604122.756   -21290107.849 8   -549641.38326        64.000
  22572584.095    30392361.208 8   9913691.50427        74.000
 96  6 11 16  8 30.0010000  0  6G 4G 2G 9G 7G26G27
  23558373.407    -8299325.387 7  -7138791.35726        58.000
  21870654.291    -8331070.534 9   3020548.74629       114.000
  24293444.129    -5507409.257 7  -4653384.46825        46.000
  20767033.082    -2670507.385 9  -1936130.38729       126.000
  23608260.072   -21268375.848 8   -532707.38626        66.000
  22582987.373    30447020.506 8   9956283.14627        72.000
 96  6 11 16  8 45.0010000  0  6G 4G 2G 9G 7G26G27
  23550233.652    -8342070.018 7  -7172098.83326        58.000
  21874190.793    -8312488.341 9   3035028.37629       114.000
  24285748.906    -5547847.211 7  -4684894.54925        46.000
  20769919.784    -2655337.698 9  -1924309.85429       124.000
  23612415.555   -21246530.409 8   -515684.96126        66.000
  22593401.054    30501763.557 8   9998940.06027        70.000
 96  6 11 16  9  0.0010000  0  6G 4G 2G 9G 7G26G27
  23542102.142    -8384784.596 7  -7205382.86826        58.000
  21877736.348    -8293861.256 9   3049542.99129       112.000
  24278061.118    -5588253.460 7  -4716379.91425        44.000
  20772826.182    -2640072.378 9  -1912414.78929       126.000
  23616589.505   -21224582.701 8   -498582.84426        66.000
  22603830.384    30556578.787 8  10041653.21327        70.000
 96  6 11 16  9 15.0010000  0  6G 4G 2G 9G 7G26G27
  23533991.167    -8427469.867 7  -7238644.10626        60.000
  21881285.561    -8275193.187 9   3064089.51829       110.000
  24270377.048    -5628632.070 7  -4747843.74025        46.000
  20775749.998    -2624716.004 9  -1900448.80229       124.000
  23620790.737   -21202539.349 8   -481406.23726        68.000
  22614282.258    30611466.288 8  10084422.66427        72.000
 96  6 11 16  9 30.0010000  0  6G 4G 2G 9G 7G26G27
  23525869.969    -8470120.426 7  -7271878.28126        60.000
  21884845.327    -8256483.333 9   3078668.60829       112.000
  24262702.780    -5668981.505 7  -4779284.84525        48.000
  20778691.291    -2609264.873 9  -1888408.97229       124.000
  23624998.834   -21180397.230 8   -464152.64626        64.000
  22624737.250    30666428.734 8  10127250.49727        70.000
 96  6 11 16  9 45.0010000  0  6G 4G 2G 9G 7G26G27
  23517760.163    -8512734.878 7  -7305084.28126        60.000
  21888411.328    -8237733.358 9   3093279.01229       112.000
  24255023.716    -5709303.875 7  -4810704.85925        48.000
  20781648.894    -2593717.026 9  -1876293.74229       120.000
  23629235.411   -21158155.337 8   -446821.28626        68.000
  22635213.858    30721464.017 8  10170135.16927        72.000
 96  6 11 16 10  0.0010000  0  6G 4G 2G 9G 7G26G27
  23509656.953    -8555310.559 7  -7338260.14326        60.000
  21891989.621    -8218943.921 9   3107920.09929       114.000
  24247358.473    -5749598.093 7  -4842102.95925        46.000
  20784624.694    -2578073.500 9  -1864103.99429       120.000
  23633484.849   -21135812.972 8   -429411.67026        66.000
  22645692.533    30776572.312 8  10213076.65327        70.000
 96  6 11 16 10 15.0010000  0  6G 4G 2G 9G 7G26G27
  23501562.137    -8597842.607 7  -7371401.95426        58.000
  21895574.119    -8200115.118 9   3122591.88729       114.000
  24239696.707    -5789860.895 7  -4873476.56325        44.000
  20787622.978    -2562336.650 9  -1851841.51629       120.000
  23637753.114   -21113367.960 8   -411922.07426        66.000
  22656196.871    30831755.674 8  10256076.65627        72.000
 96  6 11 16 10 30.0010000  0  6G 4G 2G 9G 7G26G27
  23493481.291    -8640332.601 7  -7404511.03926        60.000
  21899162.755    -8181251.076 9   3137291.12529       114.000
  24232044.655    -5830095.009 7  -4904827.78725        48.000
  20790630.226    -2546511.091 9  -1839509.92029       120.000
  23642046.382   -21090821.397 8   -394353.32826        66.000
  22666709.933    30887013.190 8  10299134.44927        68.000
 96  6 11 16 10 45.0010000  0  6G 4G 2G 9G 7G26G27
  23485399.186    -8682781.647 7  -7437588.18326        60.000
  21902757.686    -8162351.769 9   3152017.85629       112.000
  24224387.146    -5870298.159 7  -4936154.88725        46.000
  20793660.378    -2530598.109 9  -1827110.19529       120.000
  23646356.108   -21068175.147 8   -376706.91026        66.000
  22677238.015    30942347.716 8  10342252.24127        70.000
 96  6 11 16 11  0.0010000  0  6G 4G 2G 9G 7G26G27
  23477329.133    -8725184.623 7  -7470629.42726        58.000
  21906360.472    -8143415.928 9   3166773.05529       112.000
  24216743.487    -5910466.551 7  -4967454.90925        46.000
  20796704.591    -2514593.897 9  -1814639.38129       122.000
  23650683.103   -21045424.407 8   -358979.09726        64.000
  22687786.992    30997762.105 8  10385432.26827        66.000
 96  6 11 16 11 15.0010000  0  6G 4G 2G 9G 7G26G27
  23469272.451    -8767544.184 7  -7503636.83526        60.000
  21909975.130    -8124447.168 9   3181553.91429       112.000
  24209108.133    -5950605.364 7  -4998731.85625        48.000
  20799765.142    -2498502.075 9  -1802100.29429       118.000
  23655037.678   -21022570.753 8   -341171.05126        64.000
  22698344.303    31053254.771 8  10428673.29527        66.000
 96  6 11 16 11 30.0010000  0  6G 4G 2G 9G 7G26G27
  23461217.927    -8809854.447 7  -7536605.86926        60.000
  21913591.137    -8105436.911 9   3196367.07229       112.000
  24201472.569    -5990710.032 7  -5029982.27825        48.000
  20802847.938    -2482314.012 9  -1789486.23829       120.000
  23659403.796   -20999608.290 8   -323278.23826        64.000
  22708923.829    31108831.991 8  10471980.18727        66.000
 96  6 11 16 11 45.0010000  0  6G 4G 2G 9G 7G26G27
  23453178.123    -8852123.934 7  -7569543.06526        62.000
  21917215.477    -8086389.388 9   3211209.32129       114.000
  24193844.350    -6030786.744 7  -5061210.84625        50.000
  20805943.445    -2466034.766 9  -1776801.07629       118.000
  23663791.738   -20976540.070 7   -305302.98926        62.000
  22719513.158    31164484.583 8  10515345.85027        66.000
 96  6 11 16 12  0.0010000  0  6G 4G 2G 9G 7G26G27
  23445142.306    -8894352.726 7  -7602448.62626        62.000
  21920845.694    -8067300.314 9   3226083.89529       110.000
  24186224.495    -6070831.734 7  -5092414.72725        52.000
  20809062.126    -2449660.675 9  -1764042.08729       118.000
  23668205.642   -20953361.891 8   -287242.13326        68.000
  22730116.908    31220216.767 8  10558773.46227        68.000
 96  6 11 16 12 15.0010000  0  6G 4G 2G 9G 7G26G27
  23437112.724    -8936546.057 7  -7635326.50426        62.000
  21924487.123    -8048174.124 9   3240987.41229       114.000
  24178613.064    -6110847.930 7  -5123596.15925        50.000
  20812195.527    -2433198.053 9  -1751214.05529       118.000
  23672637.204   -20930077.158 8   -269098.14626        66.000
  22740738.284    31276025.315 8  10602260.63327        68.000
 96  6 11 16 12 30.0010000  0  6G 4G 2G 9G 7G26G27
  23429086.591    -8978699.919 7  -7668173.63426        60.000
  21928133.049    -8029004.400 9   3255924.87429       110.000
  24171001.064    -6150828.588 7  -5154749.90125        50.000
  20815342.538    -2416638.601 9  -1738310.56329       116.000
  23677087.803   -20906677.637 8   -250864.78126        64.000
  22751375.101    31331916.435 8  10645812.17027        70.000
 96  6 11 16 12 45.0010000  0  6G 4G 2G 9G 7G26G27
  23421070.590    -9020821.318 7  -7700995.45226        60.000
  21931791.537    -8009795.496 9   3270892.86229       112.000
  24163402.135    -6190777.231 7  -5185878.65925        50.000
  20818512.454    -2399985.062 9  -1725333.77129       114.000
  23681560.317   -20883169.163 8   -232546.47326        66.000
  22762028.466    31387885.323 8  10689424.27827        70.000
 96  6 11 16 13  0.0010000  0  6G 4G 2G 9G 7G26G27
  23413069.279    -9062909.681 7  -7733791.55426        62.000
  21935454.431    -7990544.252 9   3285893.81229       114.000
  24155807.343    -6230692.317 7  -5216981.32625        52.000
  20821700.567    -2383236.502 9  -1712282.96029       118.000
  23686059.872   -20859551.819 8   -214143.38226        64.000
  22772692.563    31443931.273 8  10733096.43627        70.000
 96  6 11 16 13 15.0010000  0  6G 4G 2G 9G 7G26G27
  23405059.035    -9104962.799 7  -7766560.22026        60.000
  21939126.739    -7971247.363 9   3300930.32529       112.000
  24148217.527    -6270569.839 7  -5248054.71125        54.000
  20824904.029    -2366392.433 9  -1699157.73029       118.000
  23690570.249   -20835823.422 8   -195653.75726        66.000
  22783371.830    31500053.775 8  10776828.20227        68.000
 96  6 11 16 13 30.0010000  0  6G 4G 2G 9G 7G26G27
  23397065.429    -9146979.598 7  -7799300.51226        62.000
  21942805.612    -7951901.117 9   3316005.32529       112.000
  24140641.052    -6310404.647 7  -5279094.80025        50.000
  20828132.764    -2349451.666 9  -1685957.12729       118.000
  23695108.238   -20811986.135 8   -177079.24526        64.000
  22794062.099    31556254.666 8  10820621.09327        68.000
 96  6 11 16 13 45.0010000  0  6G 4G 2G 9G 7G26G27
  23389080.277    -9188968.646 7  -7832019.23726        62.000
  21946495.667    -7932512.610 9   3331113.25529       110.000
  24133068.684    -6350199.496 7  -5310103.76325        52.000
  20831368.364    -2332426.173 9  -1672690.50429       120.000
  23699662.205   -20788046.956 8   -158425.32726        66.000
  22804776.202    31612525.771 8  10864468.70527        68.000
 96  6 11 16 14  0.0010000  0  6G 4G 2G 9G 7G26G27
  23381094.945    -9230922.268 7  -7864710.32526        60.000
  21950193.098    -7913077.921 9   3346257.16229       114.000
  24125501.923    -6389944.358 7  -5341073.74225        52.000
  20834627.198    -2315315.328 9  -1659357.38029       118.000
  23704243.634   -20764001.031 8   -139688.25026        66.000
  22815493.812    31668872.796 8  10908375.45527        68.000
 96  6 11 16 14 15.0010000  0  6G 4G 2G 9G 7G26G27
  23373109.133    -9272835.164 7  -7897369.66726        62.000
  21953905.847    -7893594.336 9   3361439.20029       114.000
  24117948.172    -6429635.711 7  -5372002.02825        52.000
  20837897.664    -2298116.871 9  -1645955.94829       118.000
  23708831.567   -20739848.847 8   -120868.36226        64.000
  22826231.449    31725299.371 8  10952344.23027        68.000
 96  6 11 16 14 30.0010000  0  6G 4G 2G 9G 7G26G27
  23365156.059    -9314706.214 8  -7929996.45726        66.000
  21957617.967    -7874061.005 9   3376659.93529       114.000
  24110404.224    -6469274.561 7  -5402889.43725        50.000
  20841190.614    -2280831.335 9  -1632486.74029       118.000
  23713453.887   -20715594.229 8   -101968.68526        66.000
  22836984.525    31781803.899 8  10996373.67727        66.000
 96  6 11 16 14 45.0010000  0  6G 4G 2G 9G 7G26G27
  23357190.573    -9356532.907 7  -7962588.65926        62.000
  21961348.944    -7854473.576 9   3391922.88229       114.000
  24102874.367    -6508859.515 7  -5433734.82725        50.000
  20844493.368    -2263454.605 9  -1618946.41829       116.000
  23718082.743   -20691238.592 8    -82990.27426        66.000
  22847756.517    31838386.916 8  11040464.34027        70.000
 96  6 11 16 15  0.0010000  0  6G 4G 2G 9G 7G26G27
  23349238.968    -9398320.082 8  -7995150.04226        64.000
  21965084.568    -7834837.527 9   3407223.71129       116.000
  24095343.401    -6548399.037 7  -5464544.82925        48.000
  20847814.259    -2245995.568 9  -1605341.96429       118.000
  23722735.192   -20666791.518 8    -63940.59426        66.000
  22858532.257    31895040.128 8  11084609.70227        66.000
 96  6 11 16 15 15.0010000  0  6G 4G 2G 9G 7G26G27
  23341294.498    -9440061.160 8  -8027675.50226        64.000
  21968829.306    -7815147.420 9   3422566.65029       114.000
  24087837.677    -6587888.153 7  -5495315.51725        50.000
  20851156.465    -2228448.713 9  -1591669.07429       116.000
  23727407.158   -20642247.936 8    -44815.72426        68.000
  22869327.454    31951768.888 8  11128813.90927        70.000
 96  6 11 16 15 30.0010000  0  6G 4G 2G 9G 7G26G27
  23333358.932    -9481754.617 8  -8060163.89426        64.000
  21972588.374    -7795402.587 9   3437952.22229       114.000
  24080329.285    -6627326.463 7  -5526046.65825        50.000
  20854507.425    -2210811.259 9  -1577925.61229       114.000
  23732096.182   -20617606.466 8    -25614.59726        66.000
  22880134.163    32008576.070 8  11173079.22727        68.000
 96  6 11 16 15 45.0010000  0  6G 4G 2G 9G 7G26G27
  23325434.368    -9523406.892 8  -8092620.20026        66.000
  21976351.758    -7775612.553 9   3453373.02029       116.000
  24072830.216    -6666726.952 7  -5556748.32725        46.000
  20857883.808    -2193091.022 9  -1564117.64829       116.000
  23736801.095   -20592876.320 8     -6344.35326        64.000
  22890963.206    32065455.261 8  11217400.64727        70.000
 96  6 11 16 16  0.0010000  0  6G 4G 2G 9G 7G26G27
  23317518.168    -9565015.020 8  -8125042.10926        66.000
  21980128.783    -7755774.886 9   3468830.91029       116.000
  24065339.632    -6706090.404 7  -5587421.14525        48.000
  20861271.013    -2175284.197 9  -1550242.22829       114.000
  23741524.984   -20568054.639 8     12997.16826        66.000
  22901800.793    32122408.714 8  11261779.91427        68.000
 96  6 11 16 16 15.0010000  0  6G 4G 2G 9G 7G26G27
  23309604.187    -9606577.403 8  -8157428.33926        64.000
  21983912.434    -7735888.822 9   3484326.55729       114.000
  24057855.403    -6745421.378 7  -5618068.61625        48.000
  20864677.944    -2157384.308 9  -1536294.23829       116.000
  23746262.065   -20543143.911 7     32408.13226        62.000
  22912653.370    32179435.491 8  11306216.37727        68.000
 96  6 11 16 16 30.0010000  0  6G 4G 2G 9G 7G26G27
  23301709.812    -9648097.329 8  -8189781.51726        68.000
  21987703.879    -7715955.838 9   3499858.72929       116.000
  24050375.252    -6784723.684 7  -5648693.77925        44.000
  20868104.872    -2139393.920 9  -1522275.77129       114.000
  23751024.688   -20518144.255 7     51888.36126        62.000
  22923517.939    32236533.497 8  11350708.28327        64.000
 96  6 11 16 16 45.0010000  0  6G 4G 2G 9G 7G26G27
  23293816.007    -9689570.684 8  -8222098.38626        66.000
  21991508.336    -7695974.098 9   3515428.90329       118.000
  24042903.884    -6823995.350 7  -5679295.09725        44.000
  20871544.810    -2121312.230 9  -1508186.15629       116.000
  23755800.861   -20493049.625 7     71442.59826        62.000
  22934395.009    32293705.429 8  11395257.81927        64.000
 96  6 11 16 17  0.0010000  0  6G 4G 2G 9G 7G26G27
  23285928.077    -9730999.999 8  -8254380.93126        66.000
  21995319.387    -7675950.920 9   3531031.37029       116.000
  24035436.084    -6863240.072 7  -5709875.33726        46.000
  20875001.387    -2103147.344 9  -1494031.68829       114.000
  23760588.727   -20467862.561 7     91068.87626        62.000
  22945286.469    32350947.637 7  11439862.12627        62.000
 96  6 11 16 17 15.0010000  0  6G 4G 2G 9G 7G26G27
  23278056.397    -9772378.954 8  -8286624.22526        68.000
  21999137.874    -7655887.038 9   3546665.58729       114.000
  24027970.592    -6902455.202 7  -5740432.54026        46.000
  20878472.684    -2084895.139 9  -1479809.17129       114.000
  23765405.702   -20442576.755 7    110772.13526        60.000
  22956197.925    32408266.399 7  11484526.10927        62.000
 96  6 11 16 17 30.0010000  0  6G 4G 2G 9G 7G26G27
  23270190.982    -9813708.290 8  -8318828.86826        66.000
  22002964.455    -7635785.153 9   3562329.39129       118.000
  24020520.839    -6941641.539 7  -5770967.35526        46.000
  20881962.208    -2066553.413 9  -1465516.91829       114.000
  23770233.110   -20417191.427 7    130552.88826        62.000
  22967120.593    32465660.261 7  11529248.56226        62.000
 96  6 11 16 17 45.0010000  0  6G 4G 2G 9G 7G26G27
  23262336.569    -9854990.201 8  -8350996.56726        66.000
  22006793.944    -7615648.687 9   3578020.12829       116.000
  24013063.592    -6980802.390 7  -5801482.27526        50.000
  20885468.191    -2048126.790 9  -1451158.50629       112.000
  23775085.701   -20391709.042 7    150409.28226        62.000
  22978055.313    32523125.235 8  11574026.45626        64.000
 96  6 11 16 18  0.0010000  0  6G 4G 2G 9G 7G26G27
  23254492.740    -9896218.437 8  -8383122.45626        68.000
  22010632.276    -7595471.616 9   3593742.51329       116.000
  24005615.098    -7019928.610 7  -5831970.20526        48.000
  20888992.791    -2029610.368 9  -1436730.13329       112.000
  23779949.773   -20366122.476 7    170346.85226        62.000
  22988997.558    32580665.639 7  11618863.10826        62.000
 96  6 11 16 18 15.0010000  0  6G 4G 2G 9G 7G26G27
  23246656.495    -9937392.356 8  -8415205.97726        68.000
  22014479.843    -7575252.189 9   3609497.90129       114.000
  23998178.117    -7059015.051 7  -5862427.15626        50.000
  20892534.929    -2011004.067 9  -1422231.71429       112.000
  23784839.059   -20340427.330 7    190369.03526        60.000
  22999968.103    32638281.199 8  11663758.34426        64.000
 96  6 11 16 18 30.0010000  0  6G 4G 2G 9G 7G26G27
  23238828.764    -9978511.372 8  -8447246.71426        64.000
  22018334.514    -7554991.656 9   3625285.31929       114.000
  23990755.556    -7098058.964 7  -5892850.93826        52.000
  20896088.639    -1992310.437 9  -1407665.25729       110.000
  23789751.518   -20314621.707 7    210477.31926        62.000
  23010945.754    32695972.195 7  11708712.34526        62.000
 96  6 11 16 18 45.0010000  0  6G 4G 2G 9G 7G26G27
  23231015.393   -10019577.325 8  -8479246.11626        66.000
  22022197.340    -7534691.074 9   3641103.95329       116.000
  23983330.686    -7137059.920 7  -5923241.29126        50.000
  20899663.814    -1973533.524 9  -1393033.88329       112.000
  23794682.924   -20288707.437 7    230670.25926        58.000
  23021937.344    32753737.439 8  11753724.20226        64.000
 96  6 11 16 19  0.0010000  0  6G 4G 2G 9G 7G26G27
  23223206.908   -10060595.157 8  -8511208.04726        64.000
  22026070.958    -7514355.351 9   3656949.96329       114.000
  23975919.786    -7176021.226 7  -5953600.72026        54.000
  20903250.711    -1954677.622 9  -1378340.96429       114.000
  23799638.493   -20262693.217 7    250941.06726        62.000
  23032941.406    32811571.187 7  11798789.44226        62.000
 96  6 11 16 19 15.0010000  0  6G 4G 2G 9G 7G26G27
  23215412.904   -10101576.739 8  -8543141.73026        66.000
  22029942.958    -7493994.553 9   3672815.48429       114.000
  23968510.985    -7214950.285 7  -5983935.04126        56.000
  20906853.167    -1935749.761 9  -1363592.01229       112.000
  23804604.135   -20236592.363 7    271279.37326        62.000
  23043956.681    32869463.809 7  11843900.53226        62.000
 96  6 11 16 19 30.0010000  0  6G 4G 2G 9G 7G26G27
  23207612.604   -10142512.608 8  -8575039.75026        64.000
  22033828.418    -7473590.971 9   3688714.41329       114.000
  23961109.919    -7253832.359 7  -6014232.72226        54.000
  20910474.150    -1916736.352 9  -1348776.32929       114.000
  23809583.658   -20210394.074 7    291693.61926        58.000
  23054990.482    32927426.265 7  11889066.11926        62.000
 96  6 11 16 19 45.0010000  0  6G 4G 2G 9G 7G26G27
  23199842.583   -10183400.833 8  -8606900.66826        66.000
  22037720.623    -7453138.166 9   3704651.63929       116.000
  23953718.056    -7292661.086 7  -6044488.86326        56.000
  20914107.575    -1897638.676 9  -1333895.03429       112.000
  23814590.882   -20184095.396 7    312186.08226        58.000
  23066034.057    32985458.417 8  11934285.93626        64.000
 96  6 11 16 20  0.0010000  0  6G 4G 2G 9G 7G26G27
  23192065.667   -10224246.980 8  -8638728.80026        64.000
  22041618.795    -7432641.967 9   3720622.70129       114.000
  23946342.142    -7331441.223 7  -6074707.10926        58.000
  20917755.119    -1878466.083 9  -1318955.33929       112.000
  23819611.746   -20157704.261 7    332750.60626        58.000
  23077085.636    33043555.978 7  11979556.74326        60.000
 96  6 11 16 20 15.0010000  0  6G 4G 2G 9G 7G26G27
  23184301.462   -10265048.936 8  -8670522.50926        66.000
  22045524.401    -7412102.136 9   3736627.74529       112.000
  23938973.843    -7370168.881 7  -6104884.48826        58.000
  20921420.172    -1859216.221 9  -1303955.45929       112.000
  23824653.146   -20131219.260 7    353388.24926        58.000
  23088160.809    33101721.052 8  12024880.15326        64.000
 96  6 11 16 20 30.0010000  0  6G 4G 2G 9G 7G26G27
  23176550.508   -10305810.551 8  -8702284.74426        68.000
  22049441.309    -7391522.217 9   3752664.05329       114.000
  23931605.844    -7408850.174 7  -6135025.72226        58.000
  20925097.307    -1839892.299 9  -1288897.83929       112.000
  23829709.236   -20104648.718 7    374092.57526        60.000
  23099237.271    33159948.521 8  12070252.20426        64.000
 96  6 11 16 20 45.0010000  0  6G 4G 2G 9G 7G26G27
  23168800.153   -10346525.066 8  -8734010.32026        68.000
  22053368.381    -7370893.549 9   3768738.34429       116.000
  23924260.809    -7447479.312 7  -6165126.35126        58.000
  20928787.662    -1820485.781 9  -1273775.86829       114.000
  23834781.004   -20077990.276 7    394865.39126        54.000
  23110330.401    33218243.841 7  12115677.12026        62.000
 96  6 11 16 21  0.0010000  0  6G 4G 2G 9G 7G26G27
  23161054.416   -10387186.299 8  -8765694.36826        68.000
  22057309.332    -7350210.247 9   3784855.17429       114.000
  23916921.140    -7486051.776 7  -6195182.79326        60.000
  20932497.534    -1800990.406 9  -1258584.67029       114.000
  23839870.521   -20051241.446 7    415708.61526        58.000
  23121440.230    33276610.931 7  12161157.96226        62.000
 96  6 11 16 21 15.0010000  0  6G 4G 2G 9G 7G26G27
  23153333.980   -10427789.643 8  -8797333.30426        68.000
  22061254.062    -7329469.899 9   3801016.48029       116.000
  23909589.865    -7524564.055 7  -6225192.35026        58.000
  20936224.853    -1781402.305 9  -1243321.21029       116.000
  23844982.012   -20024398.482 7    436625.19426        58.000
  23132556.864    33335051.521 7  12206696.06526        60.000
 96  6 11 16 21 30.0010000  0  6G 4G 2G 9G 7G26G27
  23145616.753   -10468346.611 8  -8828936.10226        68.000
  22065204.157    -7308686.126 9   3817211.63429       114.000
  23902271.692    -7563033.010 7  -6255168.12126        58.000
  20939970.970    -1761734.825 9  -1227995.89929       120.000
  23850106.545   -19997473.148 7    457605.94926        58.000
  23143694.484    33393550.427 8  12252279.57826        64.000
 96  6 11 16 21 45.0010000  0  6G 4G 2G 9G 7G26G27
  23137908.879   -10508852.473 8  -8860499.10826        68.000
  22069172.210    -7287855.855 9   3833442.98129       116.000
  23894958.944    -7601456.827 7  -6285108.78426        60.000
  20943727.039    -1741986.519 9  -1212607.63329       118.000
  23855243.309   -19970461.209 7    478654.17826        60.000
  23154832.403    33452109.148 7  12297909.70726        62.000
 96  6 11 16 22  0.0010000  0  6G 4G 2G 9G 7G26G27
  23130212.997   -10549303.229 8  -8892019.11826        70.000
  22073144.790    -7266980.262 9   3849709.69729       116.000
  23887650.933    -7639835.638 7  -6315014.28426        56.000
  20947499.928    -1722155.460 9  -1197154.82429       120.000
  23860398.510   -19943361.932 7    499770.53726        58.000
  23165992.987    33510729.076 8  12343587.59626        64.000
 96  6 11 16 22 15.0010000  0  6G 4G 2G 9G 7G26G27
  23122524.250   -10589695.449 8  -8923493.55626        72.000
  22077124.745    -7246054.526 9   3866015.45129       116.000
  23880361.510    -7678166.095 7  -6344882.16626        58.000
  20951294.551    -1702234.500 9  -1181632.00329       120.000
  23865572.688   -19916173.230 7    520956.50926        56.000
  23177155.819    33569414.589 8  12389316.55826        64.000
 96  6 11 16 22 30.0010000  0  6G 4G 2G 9G 7G26G27
  23114853.640   -10630030.569 8  -8954923.50426        70.000
  22081119.269    -7225075.816 9   3882362.46829       116.000
  23873081.170    -7716448.934 7  -6374712.96926        56.000
  20955096.908    -1682221.916 9  -1166037.80429       120.000
  23870769.440   -19888894.083 7    542212.96626        58.000
  23188332.142    33628162.515 7  12435094.11826        62.000
 96  6 11 16 22 45.0010000  0  6G 4G 2G 9G 7G26G27
  23107186.478   -10670309.842 8  -8986309.89126        70.000
  22085119.670    -7204045.101 9   3898750.06329       112.000
  23865799.241    -7754690.094 7  -6404511.23526        56.000
  20958925.258    -1662118.482 9  -1150372.76029       122.000
  23875972.009   -19861526.129 7    563538.66626        58.000
  23199527.951    33686971.136 7  12480919.01526        62.000
 96  6 11 16 23  0.0010000  0  6G 4G 2G 9G 7G26G27
  23099528.639   -10710531.207 8  -9017651.18426        70.000
  22089128.315    -7182964.495 9   3915176.48729       112.000
  23858531.043    -7792887.246 7  -6434275.20726        56.000
  20962768.238    -1641924.900 9  -1134637.50629       122.000
  23881197.421   -19834063.617 7    584938.01026        58.000
  23210735.992    33745841.641 7  12526792.11026        62.000
 96  6 11 16 23 15.0010000  0  6G 4G 2G 9G 7G26G27
  23091888.488   -10750691.334 8  -9048944.76426        72.000
  22093152.339    -7161833.676 9   3931642.08029       114.000
  23851276.125    -7831037.861 7  -6464002.91226        54.000
  20966626.716    -1621641.144 9  -1118831.96529       122.000
  23886443.010   -19806499.921 7    606416.21926        58.000
  23221945.142    33804777.141 7  12572715.87526        60.000
 96  6 11 16 23 30.0010000  0  6G 4G 2G 9G 7G26G27
  23084257.811   -10790792.624 8  -9080192.50026        72.000
  22097180.500    -7140654.969 9   3948144.95429       114.000
  23844015.422    -7869143.753 7  -6493695.80726        54.000
  20970505.221    -1601270.327 9  -1102958.61429       124.000
  23891710.213   -19778834.758 7    627973.49226        58.000
  23233177.886    33863775.201 7  12618688.34726        60.000
 96  6 11 16 23 45.0010000  0  6G 4G 2G 9G 7G26G27
  23076631.450   -10830840.177 8  -9111398.35626        70.000
  22101220.743    -7119429.923 9   3964683.94729       112.000
  23836775.404    -7907206.541 7  -6523355.11326        54.000
  20974394.579    -1580815.312 9  -1087019.64029       124.000
  23896990.008   -19751070.769 7    649607.72626        56.000
  23244409.220    33922833.772 7  12664708.00626        58.000
 96  6 11 16 24  0.0010000  0  6G 4G 2G 9G 7G26G27
  23069029.913   -10870830.973 8  -9142559.97626        72.000
  22105268.781    -7098156.346 9   3981260.75429       114.000
  23829540.722    -7945218.422 7  -6552974.73826        52.000
  20978306.331    -1560273.387 9  -1071012.94429       126.000
  23902295.435   -19723204.824 7    671321.45626        58.000
  23255658.872    33981956.722 7  12710777.79626        58.000
 96  6 11 16 24 15.0010000  0  6G 4G 2G 9G 7G26G27
  23061422.859   -10910768.995 8  -9173680.47326        70.000
  22109324.943    -7076840.157 9   3997870.77329       114.000
  23822317.133    -7983181.447 7  -6582556.27626        52.000
  20982229.835    -1539647.491 9  -1054940.82629       124.000
  23907620.109   -19695240.675 7    693111.70326        58.000
  23266924.803    34041139.443 7  12756894.18426        58.000
 96  6 11 16 24 30.0010000  0  6G 4G 2G 9G 7G26G27
  23053836.461   -10950650.839 8  -9204757.23726        74.000
  22113390.039    -7055481.214 9   4014514.08429       112.000
  23815107.694    -8021092.022 7  -6612096.99026        56.000
  20986169.587    -1518937.259 9  -1038802.98529       124.000
  23912961.032   -19667174.807 7    714981.22326        58.000
  23278199.848    34100384.898 7  12803059.44926        58.000
 96  6 11 16 24 45.0010000  0  6G 4G 2G 9G 7G26G27
  23046257.648   -10990475.685 8  -9235789.53226        72.000
  22117462.509    -7034081.252 9   4031189.37829       112.000
  23807899.364    -8058951.763 7  -6641598.05726        56.000
  20990126.548    -1498147.059 9  -1022602.81729       124.000
  23918323.149   -19639007.997 7    736929.34526        56.000
  23289483.946    34159693.722 7  12849274.10226        56.000
 96  6 11 16 25  0.0020000  0  6G 4G 2G 9G 7G26G27
  23038689.357   -11030249.086 8  -9266781.77926        74.000
  22121545.413    -7012642.477 9   4047894.92929       108.000
  23800702.517    -8096762.900 7  -6671061.24426        56.000
  20994097.958    -1477283.328 9  -1006345.36929       126.000
  23923695.220   -19610742.652 7    758954.27326        58.000
  23300782.434    34219064.734 7  12895537.24226        58.000
 96  6 11 16 25 15.0020000  0  6G 4G 2G 9G 7G26G27
  23031134.527   -11069968.133 8  -9297731.64226        76.000
  22125627.267    -6991168.317 9   4064628.03529       108.000
  23793519.040    -8134517.792 7  -6700480.61426        58.000
  20998081.930    -1456354.074 9   -990036.85629       126.000
  23929094.243   -19582388.653 7    781048.31126        58.000
  23312081.072    34278487.297 7  12941840.48926        54.000
 96  6 11 16 25 30.0020000  0  6G 4G 2G 9G 7G26G27
  23023587.162   -11109628.088 8  -9328635.50826        74.000
  22129724.530    -6969646.001 9   4081398.64629       110.000
  23786347.434    -8172212.693 7  -6729853.27126        60.000
  21002078.614    -1435349.065 9   -973669.32629       124.000
  23934507.265   -19553940.396 7    803215.75926        56.000
  23323417.754    34337973.792 7  12988193.53226        58.000
 96  6 11 16 25 45.0020000  0  6G 4G 2G 9G 7G26G27
  23016053.917   -11149226.979 8  -9359491.72126        76.000
  22133828.869    -6948072.517 9   4098209.18529       108.000
  23779187.371    -8209846.320 7  -6759178.13626        62.000
  21006087.738    -1414265.008 9   -957240.15929       126.000
  23939937.466   -19525399.883 7    825455.14426        54.000
  23334738.667    34397524.444 7  13034596.65426        52.000
 96  6 11 16 26  0.0020000  0  6G 4G 2G 9G 7G26G27
  23008530.716   -11188765.828 8  -9390301.21726        74.000
  22137943.191    -6926451.973 9   4115056.32329       108.000
  23772039.629    -8247419.287 8  -6788455.76926        64.000
  21010116.319    -1393106.195 9   -940752.79429       126.000
  23945388.233   -19496771.843 7    847762.68126        54.000
  23346080.685    34457138.522 7  13081049.13426        54.000
 96  6 11 16 26 15.0020000  0  6G 4G 2G 9G 7G26G27
  23001012.101   -11228244.995 8  -9421064.15626        72.000
  22142064.977    -6904786.982 9   4131938.16429       108.000
  23764894.496    -8284934.869 8  -6817688.64926        64.000
  21014155.693    -1371876.409 9   -924210.08829       126.000
  23950848.383   -19468060.486 7    870135.17426        54.000
  23357442.039    34516812.548 7  13127548.38626        58.000
 96  6 11 16 26 30.0020000  0  6G 4G 2G 9G 7G26G27
  22993507.636   -11267667.763 8  -9451783.17426        72.000
  22146198.546    -6883076.433 9   4148855.47529       108.000
  23757768.339    -8322400.028 8  -6846882.23526        64.000
  21018207.957    -1350578.510 9   -907614.31429       126.000
  23956327.510   -19439268.976 7    892570.10926        54.000
  23368807.171    34576546.457 7  13174094.27726        56.000
 96  6 11 16 26 45.0020000  0  6G 4G 2G 9G 7G26G27
  22986023.167   -11307031.947 8  -9482456.55126        72.000
  22150340.688    -6861313.627 9   4165813.48429       108.000
  23750646.350    -8359816.167 8  -6876037.68226        66.000
  21022275.811    -1329211.808 9   -890964.94629       128.000
  23961820.247   -19410396.927 7    915067.76026        54.000
  23380186.843    34636341.867 7  13220688.06926        54.000
 96  6 11 16 27  0.0020000  0  6G 4G 2G 9G 7G26G27
  22978538.609   -11346334.747 8  -9513082.10326        72.000
  22154489.666    -6839493.751 9   4182815.97229       108.000
  23743534.373    -8397181.046 8  -6905153.13626        64.000
  21026352.419    -1307771.558 9   -874258.27229       126.000
  23967331.602   -19381442.499 7    937629.65126        58.000
  23391576.199    34696199.491 7  13267330.32926        52.000
 96  6 11 16 27 15.0020000  0  6G 4G 2G 9G 7G26G27
  22971077.254   -11385579.858 8  -9543662.65726        74.000
  22158650.755    -6817623.767 9   4199857.53329       106.000
  23736434.239    -8434499.564 8  -6934232.48126        66.000
  21030450.522    -1286258.109 9   -857494.53529       126.000
  23972858.665   -19352409.590 7    960252.70626        58.000
  23402975.117    34756115.944 7  13314018.48226        54.000
 96  6 11 16 27 30.0020000  0  6G 4G 2G 9G 7G26G27
  22963613.141   -11424765.901 8  -9574197.24626        72.000
  22162823.507    -6795705.925 9   4216936.35229       104.000
  23729344.117    -8471775.872 8  -6963278.93626        68.000
  21034555.280    -1264668.274 9   -840671.29429       124.000
  23978396.581   -19323298.683 7    982936.52326        56.000
  23414393.852    34816092.607 7  13360753.50026        54.000
 96  6 11 16 27 45.0020000  0  6G 4G 2G 9G 7G26G27
  22956170.854   -11463889.811 8  -9604683.34726        72.000
  22167007.410    -6773737.969 9   4234054.26729       106.000
  23722257.143    -8509008.264 8  -6992291.15526        70.000
  21038679.435    -1242999.202 9   -823786.27229       126.000
  23983952.665   -19294104.360 7   1005685.35726        58.000
  23425815.975    34876131.823 7  13407537.32926        54.000
 96  6 11 16 28  0.0020000  0  6G 4G 2G 9G 7G26G27
  22948738.069   -11502955.136 8  -9635123.86026        76.000
  22171191.044    -6751726.452 9   4251206.06529       104.000
  23715178.833    -8546198.000 8  -7021270.18126        70.000
  21042819.479    -1221256.344 9   -806843.80629       124.000
  23989526.107   -19264831.452 7   1028495.42026        58.000
  23437251.438    34936227.919 7  13454365.41926        54.000
 96  6 11 16 28 15.0020000  0  6G 4G 2G 9G 7G26G27
  22941315.118   -11541954.575 8  -9665512.99527        74.000
  22175389.637    -6729664.402 9   4268397.28229       104.000
  23708112.695    -8583339.945 8  -7050211.92726        72.000
  21046972.324    -1199432.506 9   -789838.22429       126.000
  23995110.161   -19235472.328 7   1051372.65826        56.000
  23448701.022    34996387.813 7  13501243.22826        52.000
 96  6 11 16 28 30.0020000  0  6G 4G 2G 9G 7G26G27
  22933912.103   -11580888.283 8  -9695850.94227        76.000
  22179597.974    -6707550.759 9   4285628.66529       108.000
  23701051.473    -8620436.571 8  -7079118.38626        70.000
  21051140.069    -1177526.545 9   -772768.65929       122.000
  24000710.374   -19206025.780 7   1074317.98225        56.000
  23460158.700    35056609.993 7  13548169.55626        52.000
 96  6 11 16 28 45.0020000  0  6G 4G 2G 9G 7G26G27
  22926510.317   -11619757.137 8  -9726138.30427        76.000
  22183814.705    -6685388.514 9   4302897.96829       106.000
  23693999.036    -8657488.225 8  -7107989.76126        68.000
  21055323.823    -1155540.380 9   -755636.55629       126.000
  24006333.701   -19176491.189 7   1097331.94825        54.000
  23471632.777    35116892.386 7  13595142.84526        52.000
 96  6 11 16 29  0.0020000  0  6G 4G 2G 9G 7G26G27
  22919130.956   -11658561.818 8  -9756375.67127        78.000
  22188039.680    -6663182.781 9   4320201.15329       104.000
  23686959.129    -8694493.524 8  -7136825.01526        70.000
  21059522.176    -1133475.751 9   -738443.31029       124.000
  24011969.799   -19146870.968 7   1120412.66025        56.000
  23483117.106    35177229.675 7  13642158.89826        54.000
 96  6 11 16 29 15.0020000  0  6G 4G 2G 9G 7G26G27
  22911756.421   -11697295.871 8  -9786558.07627        78.000
  22192275.118    -6640929.823 9   4337541.08329       104.000
  23679928.337    -8731444.014 8  -7165617.62326        68.000
  21063737.468    -1111327.194 9   -721184.73329       124.000
  24017620.317   -19117157.358 7   1143566.08825        54.000
  23494604.254    35237628.366 7  13689222.75826        54.000
 96  6 11 16 29 30.0020000  0  6G 4G 2G 9G 7G26G27
  22904399.005   -11735959.145 8  -9816685.26727        78.000
  22196521.738    -6618628.050 9   4354919.09829       104.000
  23672906.508    -8768337.846 8  -7194366.02726        70.000
  21067968.349    -1089096.456 9   -703862.07129       126.000
  24023295.119   -19087351.399 7   1166791.49025        56.000
  23506112.567    35298087.036 7  13736333.42326        52.000
 96  6 11 16 29 45.0020000  0  6G 4G 2G 9G 7G26G27
  22897052.890   -11774558.940 8  -9846763.01927        80.000
  22200773.634    -6596283.681 9   4372330.28529       104.000
  23665898.529    -8805178.215 8  -7223072.79526        68.000
  21072210.442    -1066792.177 9   -686482.11129       124.000
  24028983.921   -19057460.848 7   1190082.83025        58.000
  23517629.784    35358597.688 7  13783484.54526        56.000
 96  6 11 16 30  0.0020000  0  6G 4G 2G 9G 7G26G27
  22889716.639   -11813093.692 8  -9876790.05427        76.000
  22205031.976    -6573895.583 9   4389775.53629       100.000
  23658897.506    -8841962.554 8  -7251735.90426        70.000
  21076470.163    -1044413.955 9   -669044.52329       124.000
  24034685.853   -19027484.973 7   1213440.67125        58.000
  23529150.478    35419160.569 7  13830676.37326        54.000
 96  6 11 16 30 15.0020000  0  6G 4G 2G 9G 7G26G27
  22882403.861   -11851566.166 8  -9906768.57527        82.000
  22209301.980    -6551466.427 9   4407252.81629       102.000
  23651908.744    -8878692.132 8  -7280356.31526        68.000
  21080739.927    -1021961.340 9   -651548.97729       120.000
  24040409.641   -18997424.531 7   1236864.37325        58.000
  23540688.950    35479775.756 7  13877908.97526        56.000
 96  6 11 16 30 30.0020000  0  6G 4G 2G 9G 7G26G27
  22875088.416   -11889975.481 8  -9936697.93927        78.000
  22213575.162    -6528992.417 9   4424764.99929       102.000
  23644930.685    -8915362.121 8  -7308930.35426        70.000
  21085030.857     -999432.587 9   -633994.14529       122.000
  24046146.829   -18967275.320 7   1260357.17525        58.000
  23552234.497    35540445.856 7  13925184.32926        54.000
 96  6 11 16 30 45.0020000  0  6G 4G 2G 9G 7G26G27
  22867792.067   -11928319.604 8  -9966576.42427        80.000
  22217863.513    -6506469.671 9   4442315.22229       104.000
  23637962.429    -8951966.621 8  -7337453.29026        68.000
  21089329.521     -976826.976 9   -616379.35029       120.000
  24051896.489   -18937036.915 7   1283919.59425        56.000
  23563791.617    35601172.173 7  13972503.56126        54.000
 96  6 11 16 31  0.0020000  0  6G 4G 2G 9G 7G26G27
  22860509.329   -11966597.063 8  -9996402.99727        78.000
  22222160.079    -6483896.356 9   4459904.81129       106.000
  23631014.499    -8988505.808 8  -7365925.38026        68.000
  21093648.241     -954144.387 9   -598704.60329       120.000
  24057667.763   -18906712.958 7   1307548.65425        56.000
  23575350.235    35661952.524 7  14019864.82426        52.000
 96  6 11 16 31 15.0020000  0  6G 4G 2G 9G 7G26G27
  22853229.798   -12004816.368 8 -10026184.23827        76.000
  22226462.790    -6461276.942 9   4477530.31429       104.000
  23624069.987    -9024984.948 8  -7394350.65026        66.000
  21097978.234     -931391.560 9   -580975.12929       120.000
  24063450.460   -18876311.935 7   1331237.75325        54.000
  23586931.997    35722778.930 7  14067262.02026        52.000
 96  6 11 16 31 30.0020000  0  6G 4G 2G 9G 7G26G27
  22845974.641   -12042974.163 8 -10055917.57327        78.000
  22230776.174    -6438605.580 9   4495196.31129       102.000
  23617141.033    -9061398.127 8  -7422724.53226        68.000
  21102323.605     -908560.885 9   -563184.99529       118.000
  24069255.131   -18845831.141 7   1354989.01726        52.000
  23598518.586    35783656.719 7  14114699.22626        52.000
 96  6 11 16 31 45.0020000  0  6G 4G 2G 9G 7G26G27
  22838730.246   -12081062.889 8 -10085597.04927        80.000
  22235100.890    -6415877.979 9   4512906.12729       104.000
  23610228.269    -9097738.673 8  -7451041.81426        68.000
  21106683.157     -885645.489 9   -545328.84429       118.000
  24075074.343   -18815265.568 7   1378806.33325        52.000
  23610105.534    35844593.314 7  14162182.25526        48.000
 96  6 11 16 32  0.0020000  0  6G 4G 2G 9G 7G26G27
  22831489.269   -12119088.420 8 -10115227.31527        80.000
  22239436.998    -6393101.660 9   4530653.90929       104.000
  23603321.680    -9134016.406 8  -7479310.15326        66.000
  21111056.620     -862651.359 9   -527411.33429       116.000
  24080904.707   -18784621.136 7   1402685.09025        54.000
  23621708.402    35905580.815 7  14209704.98026        48.000
 96  6 11 16 32 15.0020000  0  6G 4G 2G 9G 7G26G27
  22824267.269   -12157056.001 8 -10144812.43427        82.000
  22243778.413    -6370278.432 9   4548438.24129       102.000
  23596426.994    -9170237.850 8  -7507534.62726        64.000
  21115447.620     -839582.945 9   -509435.93629       118.000
  24086750.510   -18753905.527 7   1426619.31825        54.000
  23633323.471    35966613.663 7  14257263.01026        48.000
 96  6 11 16 32 30.0020000  0  6G 4G 2G 9G 7G26G27
  22817052.074   -12194954.832 8 -10174343.95827        82.000
  22248136.136    -6347398.521 9   4566266.74929       104.000
  23589551.014    -9206392.836 8  -7535707.32226        64.000
  21119851.751     -816433.009 9   -491397.01929       116.000
  24092605.696   -18723112.378 7   1450613.96626        52.000
  23644955.178    36027701.291 7  14304863.71326        48.000
 96  6 11 16 32 45.0020000  0  6G 4G 2G 9G 7G26G27
  22809855.286   -12232781.407 8 -10203819.18927        80.000
  22252496.287    -6324463.034 9   4584138.53629       102.000
  23582681.599    -9242486.476 8  -7563832.21026        66.000
  21124273.929     -793206.705 9   -473298.60529       118.000
  24098483.217   -18692246.218 7   1474665.50926        56.000
  23656589.014    36088839.096 7  14352503.56026        46.000
 96  6 11 16 33  0.0020000  0  6G 4G 2G 9G 7G26G27
  22802667.432   -12270537.341 8 -10233239.39427        80.000
  22256869.750    -6301476.954 9   4602049.74728       106.000
  23575822.498    -9278526.633 7  -7591915.44626        62.000
  21128709.779     -769906.737 9   -455142.79229       118.000
  24104368.023   -18661312.505 7   1498769.66126        54.000
  23668230.015    36150023.769 7  14400179.89326        46.000
 96  6 11 16 33 15.0020000  0  6G 4G 2G 9G 7G26G27
  22795498.165   -12308222.106 8 -10262604.10527        82.000
  22261255.773    -6278441.559 9   4619999.42628       106.000
  23568977.337    -9314511.181 8  -7619955.31126        64.000
  21133156.210     -746530.669 9   -436927.65629       116.000
  24110263.382   -18630309.038 7   1522928.23926        54.000
  23679884.957    36211258.374 7  14447895.14426        46.000
 96  6 11 16 33 30.0020000  0  6G 4G 2G 9G 7G26G27
  22788343.978   -12345832.991 8 -10291911.27427        82.000
  22265648.932    -6255355.849 9   4637988.28528       104.000
  23562136.163    -9350433.612 7  -7647946.81126        62.000
  21137614.664     -723077.915 9   -418652.78829       116.000
  24116179.187   -18599232.284 7   1547143.87826        54.000
  23691552.609    36272548.838 7  14495653.91926        48.000
 96  6 11 16 33 45.0020000  0  6G 4G 2G 9G 7G26G27
  22781200.943   -12383365.190 8 -10321157.11527        80.000
  22270050.755    -6232221.849 9   4656014.78628       106.000
  23555316.454    -9386296.154 8  -7675891.60826        66.000
  21142096.501     -699550.745 9   -400319.91229       118.000
  24122106.683   -18568081.811 7   1571416.94526        52.000
  23703217.234    36333897.332 7  14543457.92026        44.000
 96  6 11 16 34  0.0020000  0  6G 4G 2G 9G 7G26G27
  22774077.454   -12420823.301 9 -10350345.23027        84.000
  22274460.042    -6209042.645 9   4674076.49028       106.000
  23548501.482    -9422103.600 8  -7703793.49226        66.000
  21146586.883     -675959.544 9   -381937.16529       116.000
  24128048.090   -18536861.267 7   1595744.61226        52.000
  23714905.393    36395297.756 7  14591302.38426        46.000
 96  6 11 16 34 15.0020000  0  6G 4G 2G 9G 7G26G27
  22766955.255   -12458210.964 8 -10379478.46027        80.000
  22278878.383    -6185818.154 9   4692173.50028       106.000
  23541694.544    -9457857.997 8  -7731654.03526        64.000
  21151083.799     -652307.710 9   -363507.16529       118.000
  24134004.217   -18505574.480 7   1620123.91126        54.000
  23726594.121    36456747.156 7  14639184.96026        46.000
 96  6 11 16 34 30.0020000  0  6G 4G 2G 9G 7G26G27
  22759857.099   -12495517.833 8 -10408548.73027        82.000
  22283312.794    -6162541.479 9   4710311.16128       106.000
  23534905.954    -9493548.994 8  -7759465.18626        66.000
  21155599.303     -628588.574 9   -345024.73229       118.000
  24139969.157   -18474212.148 7   1644562.04726        54.000
  23738297.299    36518255.992 7  14687113.93626        44.000
 96  6 11 16 34 45.0020000  0  6G 4G 2G 9G 7G26G27
  22752777.350   -12532746.922 8 -10437558.39227        82.000
  22287745.705    -6139218.060 9   4728485.25128       104.000
  23528121.470    -9529180.194 8  -7787229.74326        64.000
  21160125.780     -604807.685 9   -326494.15529       118.000
  24145950.406   -18442773.778 7   1669059.48026        52.000
  23750013.068    36579817.802 7  14735084.14426        46.000
 96  6 11 16 35  0.0020000  0  6G 4G 2G 9G 7G26G27
  22745706.085   -12569900.185 8 -10466508.96727        82.000
  22292196.334    -6115846.830 9   4746696.58128       108.000
  23521350.448    -9564749.764 8  -7814946.26826        66.000
  21164661.310     -580961.402 9   -307912.64729       118.000
  24151946.166   -18411255.670 7   1693619.02425        52.000
  23761743.287    36641432.930 7  14783095.88726        46.000
 96  6 11 16 35 15.0020000  0  6G 4G 2G 9G 7G26G27
  22738644.894   -12606982.010 8 -10495403.85327        82.000
  22296653.468    -6092430.128 9   4764943.39928       106.000
  23514593.636    -9600255.091 8  -7842612.73326        66.000
  21169211.410     -557050.221 9   -289280.54229       120.000
  24157958.533   -18379657.960 7   1718240.60825        52.000
  23773485.259    36703100.698 7  14831148.68826        46.000
 96  6 11 16 35 30.0020000  0  6G 4G 2G 9G 7G26G27
  22731604.088   -12643989.583 8 -10524240.89827        82.000
  22301116.179    -6068964.120 9   4783228.59528       104.000
  23507855.380    -9635689.873 8  -7870224.22926        70.000
  21173775.780     -533071.681 9   -270595.96029       120.000
  24163992.516   -18347975.986 7   1742927.84425        52.000
  23785225.791    36764824.129 7  14879244.86226        46.000
 96  6 11 16 35 45.0020000  0  6G 4G 2G 9G 7G26G27
  22724576.203   -12680923.586 8 -10553020.61127        82.000
  22305591.840    -6045451.391 9   4801550.19928       106.000
  23501124.620    -9671058.926 8  -7897784.49226        70.000
  21178351.452     -509027.350 9   -251860.10829       120.000
  24170041.878   -18316212.787 7   1767678.39025        54.000
  23796982.302    36826599.352 7  14927381.36426        46.000
 96  6 11 16 36  0.0020000  0  6G 4G 2G 9G 7G26G27
  22717561.659   -12717785.279 8 -10581744.00027        82.000
  22310076.316    -6021891.569 9   4819908.49328       104.000
  23494408.999    -9706364.889 8  -7925295.62926        72.000
  21182939.686     -484912.343 9   -233069.19829       122.000
  24176098.915   -18284366.168 7   1792493.91025        50.000
  23808748.436    36888426.956 7  14975558.69226        46.000
 96  6 11 16 36 15.0020000  0  6G 4G 2G 9G 7G26G27
  22710559.617   -12754578.508 8 -10610414.04427        82.000
  22314566.427    -5998288.763 9   4838300.28928       106.000
  23487699.524    -9741610.188 8  -7952759.48926        72.000
  21187543.119     -460726.127 9   -214222.81129       120.000
  24182176.278   -18252438.863 7   1817372.32825        50.000
  23820512.532    36950304.299 7  15023774.76926        46.000
 96  6 11 16 36 30.0020000  0  6G 4G 2G 9G 7G26G27
  22703572.744   -12791301.142 8 -10639029.04627        82.000
  22319065.892    -5974641.858 9   4856726.45828       104.000
  23481000.452    -9776795.144 8  -7980176.30526        70.000
  21192158.394     -436463.459 9   -195316.82029       122.000
  24188261.465   -18220428.643 7   1842315.34025        46.000
  23832308.586    37012232.306 7  15072030.34526        46.000
 96  6 11 16 36 45.0020000  0  6G 4G 2G 9G 7G26G27
  22696600.800   -12827954.641 8 -10667590.20527        82.000
  22323577.109    -5950952.890 9   4875185.38728       106.000
  23474317.778    -9811920.357 8  -8007546.60026        72.000
  21196789.078     -412125.889 9   -176352.46929       120.000
  24194375.103   -18188334.185 7   1867323.99725        46.000
  23844101.042    37074208.869 7  15120323.77226        46.000
 96  6 11 16 37  0.0020000  0  6G 4G 2G 9G 7G26G27
  22689635.152   -12864539.684 8 -10696098.02327        82.000
  22328090.035    -5927218.341 9   4893679.83328       102.000
  23467651.173    -9846981.840 8  -8034867.22126        74.000
  21201437.180     -387709.576 9   -157326.77229       122.000
  24200492.188   -18156155.302 7   1892398.41125        46.000
  23855900.364    37136236.402 7  15168656.86426        48.000
 96  6 11 16 37 15.0020000  0  6G 4G 2G 9G 7G26G27
  22682688.212   -12901062.592 8 -10724557.40827        82.000
  22332616.961    -5903443.111 9   4912205.99028       104.000
  23460985.198    -9881985.012 8  -8062142.39026        74.000
  21206095.086     -363222.266 9   -138245.75029       120.000
  24206632.867   -18123900.940 7   1917531.67525        48.000
  23867721.450    37198313.395 7  15217028.48625        48.000
 96  6 11 16 37 30.0020000  0  6G 4G 2G 9G 7G26G27
  22675752.004   -12937511.780 9 -10752959.37527        84.000
  22337149.193    -5879615.906 9   4930772.61828       104.000
  23454341.138    -9916919.645 8  -8089364.19226        76.000
  21210771.069     -338655.688 9   -119102.97329       120.000
  24212786.197   -18091562.678 7   1942730.29225        46.000
  23879530.425    37260449.570 7  15265446.25325        46.000
 96  6 11 16 37 45.0020000  0  6G 4G 2G 9G 7G26G27
  22668823.410   -12973894.156 9 -10781309.22527        84.000
  22341696.266    -5855742.728 9   4949375.12228       102.000
  23447700.345    -9951796.143 8  -8116540.63026        74.000
  21215460.302     -314018.334 9    -99905.01129       124.000
  24218956.915   -18059150.173 7   1967986.77725        44.000
  23891374.116    37322634.718 7  15313902.17825        46.000
 96  6 11 16 38  0.0020000  0  6G 4G 2G 9G 7G26G27
  22661921.228   -13010202.036 9 -10809601.06527        86.000
  22346241.749    -5831816.623 9   4968018.84728       100.000
  23441075.261    -9986612.023 8  -8143669.88926        74.000
  21220163.147     -289306.571 9    -80649.09329       120.000
  24225142.323   -18026658.672 7   1993304.84225        46.000
  23903215.138    37384872.411 7  15362399.08925        44.000
 96  6 11 16 38 15.0020000  0  6G 4G 2G 9G 7G26G27
  22655019.167   -13046434.578 8 -10837834.18627        82.000
  22350810.316    -5807833.763 9   4986706.79528       102.000
  23434466.726   -10021363.058 8  -8170748.57626        74.000
  21224877.503     -264524.110 9    -61338.07229       120.000
  24231337.864   -17994087.968 7   2018684.58925        44.000
  23915071.870    37447161.131 7  15410935.75925        46.000
 96  6 11 16 38 30.0020000  0  6G 4G 2G 9G 7G26G27
  22648142.257   -13082589.847 9 -10866007.12627        84.000
  22355383.110    -5783791.450 9   5005441.04328       102.000
  23427863.827   -10056046.920 8  -8197774.97226        76.000
  21229607.299     -239674.847 9    -41975.03229       122.000
  24237552.172   -17961440.845 7   2044123.87925        46.000
  23926932.979    37509495.950 7  15459508.28426        44.000
 96  6 11 16 38 45.0020000  0  6G 4G 2G 9G 7G26G27
  22641277.100   -13118664.512 8 -10894117.23327        82.000
  22359971.644    -5759682.974 9   5024226.87528       102.000
  23421279.546   -10090657.946 8  -8224744.56726        74.000
  21234346.957     -214759.861 9    -22560.74629       122.000
  24243772.476   -17928715.942 7   2069623.78825        46.000
  23938802.482    37571878.052 6  15508117.67226        40.000
 96  6 11 16 39  0.0020000  0  6G 4G 2G 9G 7G26G27
  22634430.080   -13154663.707 9 -10922168.55527        84.000
  22364568.661    -5735517.754 9   5043056.88828       102.000
  23414707.315   -10125202.129 8  -8251662.11726        74.000
  21239099.627     -189790.469 9     -3104.09729       122.000
  24250016.253   -17895926.255 7   2095174.14725        46.000
  23950676.811    37634298.686 7  15556757.07826        42.000
 96  6 11 16 39 15.0020000  0  6G 4G 2G 9G 7G26G27
  22627593.883   -13190579.586 9 -10950154.90227        86.000
  22369179.679    -5711290.325 9   5061935.44928       102.000
  23408139.942   -10159676.978 8  -8278525.56726        70.000
  21243863.150     -164761.295 9     16399.19329       124.000
  24256265.277   -17863069.670 7   2120776.67825        44.000
  23962569.308    37696761.623 7  15605429.48026        42.000
 96  6 11 16 39 30.0020000  0  6G 4G 2G 9G 7G26G27
  22620772.435   -13226407.782 9 -10978072.98127        86.000
  22373802.869    -5687001.494 9   5080861.79928       104.000
  23401595.233   -10194083.678 8  -8305335.98626        70.000
  21248637.554     -139672.053 9     35949.23229       126.000
  24262541.672   -17830147.252 7   2146430.50525        44.000
  23974457.698    37759261.563 6  15654130.70926        40.000
 96  6 11 16 39 45.0020000  0  6G 4G 2G 9G 7G26G27
  22613977.159   -13262147.223 9 -11005921.85528        86.000
  22378436.851    -5662652.150 9   5099835.32128       100.000
  23395063.355   -10228423.607 8  -8332094.36126        68.000
  21253424.101     -114520.369 9     55547.98029       124.000
  24268810.152   -17797157.883 7   2172136.48025        46.000
  23986357.480    37821792.943 7  15702856.41226        44.000
 96  6 11 16 40  0.0020000  0  7G 4G 2G 9G 7G26G27G24
  22607184.852   -13297799.863 9 -11033703.11328        84.000
  22383080.936    -5638247.873 9   5118851.65528       102.000
  23388540.890   -10262699.259 8  -8358802.62126        70.000
  21258221.140      -89310.882 9     75191.74129       126.000
  24275100.428   -17764106.326 7   2197890.93225        46.000
  23998258.791    37884351.862 7  15751603.64226        42.000
  24824561.963    -4040901.384 7  -3490167.04625        42.000
 96  6 11 16 40 15.0020000  0  7G 4G 2G 9G 7G26G27G24
  22600423.482   -13333371.061 9 -11061420.93628        88.000
  22387735.094    -5613795.568 9   5137905.37828       102.000
  23382029.967   -10296912.525 8  -8385462.32126        68.000
  21263025.854      -64048.541 9     94876.66429       126.000
  24281396.369   -17730996.784 7   2223690.51925        48.000
  24010165.588    37946934.939 6  15800369.58126        38.000
  24815534.073    -4088324.422 6  -3527120.05225        40.000
 96  6 11 16 40 30.0020000  0  7G 4G 2G 9G 7G26G27G24
  22593665.981   -13368852.984 9 -11089069.15528        88.000
  22392398.005    -5589285.965 9   5157003.79928        98.000
  23375531.336   -10331051.504 8  -8412064.07526        70.000
  21267845.977      -38721.036 9    114612.40029       126.000
  24287712.247   -17697820.183 7   2249542.40525        48.000
  24022094.000    38009553.522 7  15849163.28026        42.000
  24806518.625    -4135747.174 7  -3564072.75425        44.000
 96  6 11 16 40 45.0020000  0  7G 4G 2G 9G 7G26G27G24
  22586930.064   -13404259.989 9 -11116659.03928        90.000
  22397067.543    -5564737.291 9   5176132.59228        98.000
  23369041.939   -10365134.292 8  -8438622.09826        70.000
  21272676.413      -13341.937 9    134388.29729       126.000
  24294037.778   -17664591.791 7   2275434.62125        48.000
  24034005.564    38072196.448 7  15897975.88725        42.000
  24797490.884    -4183180.341 7  -3601033.62325        42.000
 96  6 11 16 41  0.0020000  0  7G 4G 2G 9G 7G26G27G24
  22580210.126   -13439583.280 9 -11144183.64728        88.000
  22401749.911    -5540145.250 9   5195295.22328        98.000
  23362572.058   -10399153.040 8  -8465130.19326        72.000
  21277515.033       12099.058 9    154212.46729       126.000
  24300375.780   -17631301.340 7   2301375.19525        48.000
  24045933.017    38134874.838 6  15946816.11825        40.000
  24788462.634    -4230610.315 6  -3637991.96625        38.000
 96  6 11 16 41 15.0020000  0  7G 4G 2G 9G 7G26G27G24
  22573504.608   -13474822.206 9 -11171642.52228        88.000
  22406435.398    -5515511.106 9   5214490.69528        98.000
  23356110.421   -10433107.012 8  -8491587.78926        72.000
  21282372.930       37607.417 9    174089.13029       124.000
  24306720.498   -17597944.301 7   2327367.71425        48.000
  24057866.645    38197590.839 6  15995685.77025        40.000
  24779442.419    -4278037.197 6  -3674947.89225        38.000
 96  6 11 16 41 30.0020000  0  7G 4G 2G 9G 7G26G27G24
  22566814.859   -13509978.103 9 -11199036.72328        88.000
  22411131.467    -5490831.107 9   5233721.83028        98.000
  23349664.044   -10466994.569 8  -8517993.68026        72.000
  21287239.851       63187.086 9    194021.32029       126.000
  24313083.592   -17564514.995 7   2353416.48025        50.000
  24069815.983    38260347.642 7  16044587.13725        42.000
  24770414.589    -4325458.744 6  -3711899.70325        36.000
 96  6 11 16 41 45.0020000  0  7G 4G 2G 9G 7G26G27G24
  22560137.941   -13545053.840 9 -11226368.43828        86.000
  22415837.219    -5466107.168 9   5252987.25928        96.000
  23343229.628   -10500814.738 8  -8544347.03826        74.000
  21292118.523       88837.646 9    214008.79229       124.000
  24319462.546   -17531014.201 7   2379521.00125        50.000
  24081755.248    38323145.814 6  16093520.75325        40.000
  24761385.200    -4372875.733 6  -3748847.94425        36.000
 96  6 11 16 42  0.0020000  0  7G 4G 2G 9G 7G26G27G24
  22553481.739   -13580054.106 9 -11253641.35628        88.000
  22420548.337    -5441341.410 9   5272285.23928        98.000
  23336807.115   -10534567.203 8  -8570647.65826        72.000
  21297014.224      114556.283 9    234049.28429       126.000
  24325844.618   -17497443.764 7   2405679.72525        48.000
  24093727.250    38385988.529 7  16142489.07025        44.000
  24752364.205    -4420287.408 6  -3785792.02325        36.000
 96  6 11 16 42 15.0020000  0  7G 4G 2G 9G 7G26G27G24
  22546829.045   -13614979.518 9 -11280855.96528        86.000
  22425272.107    -5416533.212 9   5291616.27628        96.000
  23330390.687   -10568252.674 8  -8596896.08026        70.000
  21301920.088      140342.354 9    254142.30829       126.000
  24332252.352   -17463804.734 7   2431891.94025        50.000
  24105686.810    38448877.558 7  16191493.41325        44.000
  24743347.257    -4467693.295 6  -3822731.64125        36.000
 96  6 11 16 42 30.0020000  0  7G 4G 2G 9G 7G26G27G24
  22540198.805   -13649822.680 9 -11308006.43928        88.000
  22430001.723    -5391673.023 9   5310987.86228        96.000
  23323998.152   -10601864.894 8  -8623087.37126        74.000
  21306844.688      166206.889 9    274296.51229       128.000
  24338660.386   -17430089.936 7   2458163.20025        48.000
  24117665.977    38511821.911 7  16240540.94825        42.000
  24734319.457    -4515085.473 6  -3859660.50925        30.000
 96  6 11 16 42 45.0020000  0  7G 4G 2G 9G 7G26G27G24
  22533586.822   -13684580.680 9 -11335090.57828        88.000
  22434743.180    -5366761.177 9   5330399.69328        98.000
  23317616.110   -10635405.739 8  -8649223.06626        74.000
  21311777.713      192150.150 9    294512.05029       126.000
  24345091.264   -17396298.429 7   2484494.25725        48.000
  24129652.249    38574820.848 7  16289631.01825        44.000
  24725307.756    -4562463.582 6  -3896578.46125        34.000
 96  6 11 16 43  0.0020000  0  7G 4G 2G 9G 7G26G27G24
  22526990.339   -13719245.713 9 -11362102.28128        90.000
  22439496.180    -5341790.572 9   5349857.33128        96.000
  23311249.628   -10668866.188 8  -8675296.12926        74.000
  21316733.433      218179.512 9    314794.69129       126.000
  24351544.626   -17362421.696 7   2510891.71825        48.000
  24141657.678    38637879.216 7  16338767.41725        44.000
  24716298.902    -4609819.432 6  -3933479.05125        36.000
 96  6 11 16 43 15.0020000  0  7G 4G 2G 9G 7G26G27G24
  22520405.488   -13753828.377 9 -11389049.79428        86.000
  22444254.036    -5316770.474 9   5369353.50928        96.000
  23304892.948   -10702254.977 8  -8701313.33527        78.000
  21321701.743      244283.591 9    335135.53729       126.000
  24357991.094   -17328470.405 7   2537347.23625        48.000
  24153657.951    38700982.228 7  16387938.55125        42.000
  24707288.310    -4657168.010 6  -3970373.97825        38.000
 96  6 11 16 43 30.0020000  0  7G 4G 2G 9G 7G26G27G24
  22513848.007   -13788328.567 9 -11415933.03828        92.000
  22449025.203    -5291697.777 9   5388890.65928        94.000
  23298555.546   -10735573.612 8  -8727275.90527        82.000
  21326683.814      270460.365 9    355533.02429       126.000
  24364475.305   -17294448.201 7   2563858.06125        46.000
  24165685.264    38764129.654 7  16437144.32525        44.000
  24698281.046    -4704512.661 6  -4007265.89825        38.000
 96  6 11 16 43 45.0020000  0  7G 4G 2G 9G 7G26G27G24
  22507293.375   -13822745.114 9 -11442751.10528        88.000
  22453810.101    -5266572.469 9   5408468.82028        96.000
  23292224.648   -10768821.304 8  -8753183.18927        82.000
  21331676.048      296704.962 9    375983.35429       124.000
  24370960.865   -17260359.465 7   2590420.65125        48.000
  24177706.222    38827319.637 7  16486383.21625        46.000
  24689271.473    -4751852.236 6  -4044153.82025        40.000
 96  6 11 16 44  0.0020000  0  7G 4G 2G 9G 7G26G27G24
  22500759.308   -13857072.287 9 -11469499.56428        90.000
  22458602.403    -5241389.094 9   5428092.21528        98.000
  23285914.557   -10801990.876 9  -8779029.60427        84.000
  21336685.910      323019.753 9    396488.38329       124.000
  24377461.145   -17226200.623 7   2617037.90125        48.000
  24189740.011    38890554.733 7  16535657.24025        42.000
  24680270.564    -4799180.902 7  -4081033.27225        42.000
 96  6 11 16 44 15.0020000  0  7G 4G 2G 9G 7G26G27G24
  22494247.636   -13891312.700 9 -11496180.36928        90.000
  22463402.890    -5216149.341 9   5447759.57228        96.000
  23279619.964   -10835084.262 9  -8804816.63427        86.000
  21341703.326      349400.299 9    417044.66129       122.000
  24383975.155   -17191974.139 7   2643707.88325        50.000
  24201776.049    38953831.419 6  16584963.75725        40.000
  24671256.794    -4846501.630 7  -4117906.53125        44.000
 96  6 11 16 44 30.0020000  0  7G 4G 2G 9G 7G26G27G24
  22487747.716   -13925464.133 9 -11522791.87328        92.000
  22468214.199    -5190855.169 9   5467469.32728        96.000
  23273336.824   -10868103.244 9  -8830545.68827        86.000
  21346735.523      375845.317 9    437651.19629       120.000
  24390504.065   -17157682.437 7   2670428.69925        48.000
  24213827.706    39017145.810 7  16634299.60025        42.000
  24662253.277    -4893817.831 7  -4154776.24425        44.000
 96  6 11 16 44 45.0020000  0  7G 4G 2G 9G 7G26G27G24
  22481262.546   -13959529.061 9 -11549335.94128        90.000
  22473039.568    -5165511.747 9   5487217.43728        96.000
  23267066.605   -10901045.931 9  -8856215.29627        84.000
  21351779.770      402348.178 9    458302.77829       122.000
  24397042.179   -17123326.309 7   2697199.70425        48.000
  24225881.791    39080493.608 6  16683661.54825        40.000
  24653256.476    -4941131.737 7  -4191644.20725        46.000
 96  6 11 16 45  0.0020000  0  7G 4G 2G 9G 7G26G27G24
  22474799.050   -13993504.351 9 -11575810.19028        92.000
  22477870.904    -5140114.909 9   5507007.18328        94.000
  23260814.253   -10933905.650 9  -8881820.25127        86.000
  21356836.160      428911.432 9    479001.43229       122.000
  24403589.736   -17088900.163 7   2724025.26225        46.000
  24237940.973    39143876.031 6  16733050.37325        38.000
  24644247.922    -4988437.484 7  -4228505.75625        44.000
 96  6 11 16 45 15.0020000  0  7G 4G 2G 9G 7G26G27G24
  22468355.371   -14027391.771 9 -11602215.92928        94.000
  22482714.651    -5114662.800 9   5526840.01428        94.000
  23254575.872   -10966682.368 9  -8907360.51227        86.000
  21361900.944      455533.472 9    499745.91229       122.000
  24410147.217   -17054409.310 7   2750901.21925        44.000
  24250013.555    39207290.862 6  16782464.49225        40.000
  24635258.735    -5035735.904 7  -4265361.60325        46.000
 96  6 11 16 45 30.0020000  0  7G 4G 2G 9G 7G26G27G24
  22461920.416   -14061197.289 9 -11628557.91728        92.000
  22487564.603    -5089163.080 9   5546709.87728        94.000
  23248351.191   -10999385.577 9  -8932843.54627        86.000
  21366977.509      482206.585 9    520530.11329       120.000
  24416720.556   -17019864.163 7   2777819.45825        44.000
  24262083.649    39270732.498 6  16831899.46525        40.000
  24626248.263    -5083034.499 7  -4302217.64125        46.000
 96  6 11 16 45 45.0020000  0  7G 4G 2G 9G 7G26G27G24
  22455505.847   -14094913.648 9 -11654830.36128        94.000
  22492429.845    -5063606.925 9   5566623.79228        92.000
  23242144.528   -11032006.972 9  -8958262.77927        86.000
  21372064.538      508940.847 9    541362.03229       122.000
  24423311.164   -16985256.979 7   2804786.12725        46.000
  24274162.197    39334209.164 6  16881361.80625        36.000
  24617256.078    -5130321.016 7  -4339064.22025        46.000
 96  6 11 16 46  0.0020000  0  7G 4G 2G 9G 7G26G27G24
  22449104.678   -14128547.336 9 -11681038.43028        90.000
  22497306.839    -5038001.261 9   5586576.25128        96.000
  23235953.394   -11064550.819 9  -8983621.61427        86.000
  21377160.650      535731.575 9    562237.91129       122.000
  24429909.086   -16950592.662 7   2831797.26725        46.000
  24286245.362    39397712.225 6  16930844.65225        38.000
  24608255.769    -5177599.924 7  -4375904.89125        42.000
 96  6 11 16 46 15.0020000  0  7G 4G 2G 9G 7G26G27G24
  22442720.238   -14162096.509 9 -11707180.62328        92.000
  22502185.541    -5012346.552 9   5606566.94528        96.000
  23229772.213   -11097017.607 9  -9008920.38027        84.000
  21382271.481      562580.763 9    583159.38029       124.000
  24436519.420   -16915869.789 7   2858854.04525        46.000
  24298335.602    39461243.630 6  16980349.65525        36.000
  24599255.939    -5224870.784 6  -4412739.31025        40.000
 96  6 11 16 46 30.0020000  0  7G 4G 2G 9G 7G26G27G24
  22436355.254   -14195548.903 9 -11733247.41528        92.000
  22507074.856    -4986636.715 9   5626600.57428        96.000
  23223612.108   -11129401.735 9  -9034154.75527        84.000
  21387392.776      589494.999 9    604131.51529       122.000
  24443128.644   -16881080.426 7   2885962.60925        42.000
  24310432.828    39524812.900 6  17029884.07625        36.000
  24590262.076    -5272125.420 6  -4449561.04825        40.000
 96  6 11 16 46 45.0020000  0  7G 4G 2G 9G 7G26G27G24
  22430004.271   -14228911.047 9 -11759243.86328        92.000
  22511979.461    -4960880.361 9   5646670.46028        96.000
  23217462.195   -11161710.652 8  -9059330.51927        80.000
  21392523.874      616463.179 9    625145.68629       122.000
  24449772.435   -16846233.817 7   2913115.79725        46.000
  24322537.578    39588410.424 6  17079440.56925        36.000
  24581273.009    -5319372.051 7  -4486376.59725        42.000
 96  6 11 16 47  0.0020000  0  7G 4G 2G 9G 7G26G27G24
  22423670.016   -14262183.713 9 -11785170.63028        90.000
  22516890.601    -4935072.875 9   5666780.18928        94.000
  23211329.431   -11193945.753 9  -9084448.75527        84.000
  21397666.754      643486.428 9    646202.76629       122.000
  24456409.510   -16811331.270 7   2940312.54525        44.000
  24334644.007    39652038.269 6  17129020.63625        38.000
  24572292.606    -5366608.243 7  -4523183.93425        42.000
 96  6 11 16 47 15.0020000  0  7G 4G 2G 9G 7G26G27G24
  22417359.955   -14295358.290 9 -11811020.92028        92.000
  22521814.332    -4909205.718 9   5686936.42728        96.000
  23205212.466   -11226103.948 8  -9109507.06227        82.000
  21402820.576      670573.586 9    667309.65429       120.000
  24463061.125   -16776371.662 7   2967553.78225        46.000
  24346759.309    39715706.097 6  17178631.90625        38.000
  24563302.430    -5413828.236 6  -4559978.66825        40.000
 96  6 11 16 47 30.0020000  0  7G 4G 2G 9G 7G26G27G24
  22411062.964   -14328436.668 9 -11836796.25328        90.000
  22526746.038    -4883283.547 9   5707135.53528        96.000
  23199101.376   -11258188.192 8  -9134507.75427        80.000
  21407986.299      697720.014 9    688462.73929       122.000
  24469722.813   -16741358.071 7   2994837.12625        44.000
  24358874.942    39779413.582 6  17228274.11925        36.000
  24554310.425    -5461035.764 6  -4596763.67925        38.000
 96  6 11 16 47 45.0020000  0  7G 4G 2G 9G 7G26G27G24
  22404791.636   -14361419.173 9 -11862496.90528        94.000
  22531687.637    -4857309.919 9   5727374.71828        96.000
  23193012.981   -11290197.058 8  -9159449.72427        80.000
  21413162.606      724923.344 9    709660.13929       120.000
  24476392.356   -16706288.754 7   3022163.82725        42.000
  24371014.588    39843161.057 6  17277947.39725        38.000
  24545337.187    -5508230.749 6  -4633538.97725        40.000
 96  6 11 16 48  0.0020000  0  7G 4G 2G 9G 7G26G27G24
  22398529.990   -14394311.532 9 -11888127.29428        94.000
  22536639.249    -4831289.333 9   5747650.52528        94.000
  23186935.439   -11322133.755 8  -9184335.42027        80.000
  21418348.806      752175.156 9    730895.32729       120.000
  24483081.835   -16671166.714 6   3049531.65725        40.000
  24383154.204    39906942.379 6  17327647.10425        38.000
  24536357.893    -5555417.261 6  -4670307.58825        40.000
 96  6 11 16 48 15.0020000  0  7G 4G 2G 9G 7G26G27G24
  22392284.744   -14427107.487 9 -11913682.56828        92.000
  22541603.543    -4805216.433 9   5767967.05928        94.000
  23180870.817   -11353992.776 8  -9209160.62727        78.000
  21423542.680      779477.643 9    752169.99029       120.000
  24489777.400   -16635984.426 7   3076946.38225        42.000
  24395298.256    39970765.108 6  17377379.06125        38.000
  24527383.126    -5602591.825 7  -4707066.97325        42.000
 96  6 11 16 48 30.0020000  0  7G 4G 2G 9G 7G26G27G24
  22386062.641   -14459805.647 9 -11939161.65628        92.000
  22546573.052    -4779090.147 9   5788325.19628        94.000
  23174827.481   -11385772.132 8  -9233923.74727        78.000
  21428751.124      806832.076 9    773485.11729       120.000
  24496482.318   -16600740.488 7   3104409.14225        42.000
  24407451.033    40034632.972 6  17427146.15925        38.000
  24518414.985    -5649750.730 7  -4743814.14625        42.000
 96  6 11 16 48 45.0020000  0  7G 4G 2G 9G 7G26G27G24
  22379859.606   -14492409.443 9 -11964567.18728        94.000
  22551554.823    -4752908.639 9   5808726.38728        94.000
  23168794.697   -11417474.080 8  -9258626.53227        78.000
  21433964.815      834241.728 9    794843.31029       120.000
  24503196.500   -16565436.115 7   3131919.06725        42.000
  24419599.403    40098543.184 6  17476946.30125        34.000
  24509435.961    -5696893.457 7  -4780548.62125        44.000
 96  6 11 16 49  0.0020000  0  7G 4G 2G 9G 7G26G27G24
  22373676.776   -14524926.048 9 -11989904.79428        94.000
  22556549.786    -4726671.813 9   5829170.65928        98.000
  23162772.826   -11449100.726 8  -9283270.64827        78.000
  21439193.225      861709.982 9    816247.13629       118.000
  24509932.507   -16530072.449 6   3159475.16225        40.000
  24431775.564    40162493.818 6  17526777.96025        36.000
  24500461.374    -5744019.881 7  -4817270.47725        42.000
 96  6 11 16 49 15.0020000  0  7G 4G 2G 9G 7G26G27G24
  22367501.201   -14557358.406 9 -12015176.74028        92.000
  22561551.163    -4700380.725 9   5849657.23128        96.000
  23156770.471   -11480654.068 8  -9307857.65427        80.000
  21444432.338      889239.620 9    837698.81129       118.000
  24516672.441   -16494649.218 6   3187077.68625        40.000
  24443959.579    40226481.647 6  17576638.58525        40.000
  24491500.667    -5791128.887 6  -4853978.78525        40.000
 96  6 11 16 49 30.0020000  0  7G 4G 2G 9G 7G26G27G24
  22361348.590   -14589706.326 9 -12040382.89028        94.000
  22566563.783    -4674038.441 9   5870183.67328        96.000
  23150776.931   -11512131.223 8  -9332385.30127        78.000
  21449682.993      916831.186 9    859198.73329       118.000
  24523424.307   -16459163.166 7   3214729.12825        44.000
  24456138.318    40290504.019 6  17626526.05725        40.000
  24482543.708    -5838218.738 7  -4890672.13825        46.000
 96  6 11 16 49 45.0020000  0  7G 4G 2G 9G 7G26G27G24
  22355206.023   -14621967.596 9 -12065521.55428        92.000
  22571584.677    -4647643.459 9   5890751.17828        94.000
  23144805.425   -11543530.984 8  -9356852.62127        82.000
  21454943.092      944484.287 9    880746.60529       118.000
  24530182.378   -16423611.879 6   3242431.40925        40.000
  24468329.678    40354557.143 7  17676437.54725        42.000
  24473590.586    -5885288.410 7  -4927349.73625        48.000
 96  6 11 16 50  0.0020000  0  7G 4G 2G 9G 7G26G27G24
  22349086.210   -14654148.991 9 -12090597.93628        96.000
  22576618.162    -4621199.420 9   5911356.93828        94.000
  23138841.743   -11574862.042 8  -9381266.42427        82.000
  21460216.711      972193.699 9    902338.35029       116.000
  24536967.311   -16388003.000 7   3270178.55525        42.000
  24480521.757    40418632.615 6  17726366.45725        40.000
  24464636.565    -5932343.206 7  -4964015.77825        48.000
 96  6 11 16 50 15.0020000  0  7G 4G 2G 9G 7G26G27G24
  22342974.191   -14686243.110 9 -12115606.32928        94.000
  22581658.303    -4594699.356 9   5932006.35728        94.000
  23132896.229   -11606121.445 9  -9405624.38027        86.000
  21465502.232      999966.981 9    923979.87929       118.000
  24543754.342   -16352332.623 6   3297973.62625        40.000
  24492712.278    40482735.310 6  17776316.57925        36.000
  24455678.106    -5979377.906 7  -5000666.14825        48.000
 96  6 11 16 50 30.0020000  0  7G 4G 2G 9G 7G26G27G24
  22336888.824   -14718242.556 9 -12140540.98928        94.000
  22586711.605    -4568139.963 9   5952701.92628        94.000
  23126963.247   -11637304.731 8  -9429923.05727        82.000
  21470801.573     1027814.019 9    945678.81429       118.000
  24550551.687   -16316599.745 6   3325817.37625        38.000
  24504925.703    40546869.420 6  17826291.12725        40.000
  24446733.109    -6026386.721 7  -5037296.39725        46.000
 96  6 11 16 50 45.0020000  0  7G 4G 2G 9G 7G26G27G24
  22330816.348   -14750152.116 9 -12165405.52728        96.000
  22591778.157    -4541526.727 9   5973439.55828        92.000
  23121038.808   -11668419.975 8  -9454168.65827        82.000
  21476111.737     1055727.332 9    967429.50529       116.000
  24557360.303   -16280816.693 6   3353700.29425        40.000
  24517136.729    40611026.270 7  17876283.49225        42.000
  24437792.848    -6073378.682 7  -5073913.42625        50.000
 96  6 11 16 51  0.0020000  0  7G 4G 2G 9G 7G26G27G24
  22324761.050   -14781966.036 9 -12190195.57928        96.000
  22596857.901    -4514856.569 9   5994221.50927        94.000
  23115135.175   -11699463.908 9  -9478358.71227        84.000
  21481437.190     1083706.673 9    989231.59029       120.000
  24564178.543   -16244980.731 6   3381624.41325        36.000
  24529342.390    40675205.597 6  17926293.35925        40.000
  24428855.165    -6120354.147 7  -5110517.63825        50.000
 96  6 11 16 51 15.0020000  0  7G 4G 2G 9G 7G26G27G24
  22318722.960   -14813684.981 9 -12214911.62928        94.000
  22601941.272    -4488135.610 9   6015043.04327        92.000
  23109237.268   -11730437.026 9  -9502493.59927        84.000
  21486771.458     1111744.669 9   1011079.37329       118.000
  24571008.265   -16209095.191 6   3409587.12825        40.000
  24541559.712    40739404.461 6  17976318.41725        38.000
  24419918.082    -6167318.447 7  -5147113.13825        50.000
 96  6 11 16 51 30.0020000  0  7G 4G 2G 9G 7G26G27G24
  22312710.832   -14845296.404 9 -12239543.88228        98.000
  22607033.157    -4461357.003 9   6035909.50027        92.000
  23103358.338   -11761329.300 8  -9526565.48127        82.000
  21492120.505     1139844.449 9   1032975.32629       120.000
  24577850.188   -16173153.991 6   3437593.28925        40.000
  24553788.186    40803631.916 6  18026365.76925        38.000
  24410982.708    -6214265.251 7  -5183695.03025        48.000
 96  6 11 16 51 45.0020000  0  7G 4G 2G 9G 7G26G27G24
  22306713.124   -14876799.763 9 -12264091.93828        96.000
  22612141.380    -4434521.890 9   6056819.96827        92.000
  23097496.136   -11792140.515 9  -9550574.19327        84.000
  21497478.605     1168002.901 9   1054916.96929       120.000
  24584690.373   -16137161.595 6   3465639.24925        38.000
  24566008.446    40867889.007 6  18076436.15225        36.000
  24402055.069    -6261196.741 7  -5220265.00025        50.000
 96  6 11 16 52  0.0020000  0  7G 4G 2G 9G 7G26G27G24
  22300740.838   -14908194.067 9 -12288555.03528        98.000
  22617259.197    -4407628.056 9   6077776.19627        92.000
  23091646.046   -11822868.511 8  -9574518.08527        82.000
  21502849.117     1196220.972 9   1076905.08229       124.000
  24591556.879   -16101116.190 6   3493726.59425        36.000
  24578245.195    40932179.277 6  18126532.47325        34.000
  24393127.669    -6308113.098 7  -5256823.17225        50.000
 96  6 11 16 52 15.0020000  0  7G 4G 2G 9G 7G26G27G24
  22294783.782   -14939483.091 9 -12312936.08828        96.000
  22622387.477    -4380677.548 9   6098776.59627        92.000
  23085817.571   -11853514.104 9  -9598397.76827        86.000
  21508230.452     1224497.179 9   1098938.48729       122.000
  24598422.846   -16065018.727 6   3521854.44425        36.000
  24590489.738    40996503.119 6  18176654.89825        32.000
  24384196.072    -6355015.047 7  -5293370.10825        44.000
 96  6 11 16 52 30.0020000  0  7G 4G 2G 9G 7G26G27G24
  22288856.106   -14970664.068 9 -12337232.93028       100.000
  22627528.318    -4353669.050 9   6119822.19727        92.000
  23080000.428   -11884072.367 9  -9622209.35827        84.000
  21513618.892     1252833.752 9   1121018.94129       122.000
  24605308.180   -16028865.778 6   3550025.55825        40.000
  24602740.847    41060863.132 6  18226805.56525        30.000
  24375275.238    -6401899.451 7  -5329903.36125        46.000
 96  6 11 16 52 45.0020000  0  7G 4G 2G 9G 7G26G27G24
  22282942.790   -15001738.208 9 -12361446.54128       100.000
  22632679.592    -4326600.657 9   6140914.41727        92.000
  23074204.870   -11914541.349 9  -9645951.45327        86.000
  21519022.531     1281228.056 9   1143144.35429       124.000
  24612198.909   -15992653.718 7   3578242.72425        42.000
  24614993.605    41125259.600 6  18276984.51325        30.000
  24366358.421    -6448766.695 7  -5366423.24425        44.000
 96  6 11 16 53  0.0020000  0  7G 4G 2G 9G 7G26G27G24
  22277044.613   -15032708.314 9 -12385579.06728       100.000
  22637842.018    -4299473.563 9   6162052.43027        90.000
  23068420.795   -11944921.171 9  -9669624.01427        86.000
  21524437.352     1309678.369 9   1165313.44129       122.000
  24619102.920   -15956378.676 7   3606509.01725        42.000
  24627251.249    41189689.045 6  18327189.24925        30.000
  24357438.666    -6495616.197 7  -5402929.31225        42.000
 96  6 11 16 53 15.0020000  0  7G 4G 2G 9G 7G26G27G24
  22271168.711   -15063581.752 9 -12409636.27928        98.000
  22643013.678    -4272292.602 9   6183232.39627        90.000
  23062659.083   -11975212.566 9  -9693227.68427        88.000
  21529864.195     1338181.814 9   1187523.92329       128.000
  24626013.496   -15920041.870 6   3634823.35225        40.000
  24639516.508    41254146.939 6  18377416.11125        26.000
  24348520.050    -6542447.905 7  -5439421.51725        42.000
 96  6 11 16 53 30.0020000  0  7G 4G 2G 9G 7G26G27G24
  22265313.344   -15094353.450 9 -12433614.21028       100.000
  22648195.081    -4245049.253 9   6204460.96727        88.000
  23056911.223   -12005406.422 9  -9716755.35627        88.000
  21535297.094     1366744.721 9   1209780.72529       124.000
  24632947.875   -15883638.807 7   3663189.37025        42.000
  24651788.302    41318641.689 6  18427671.69925        28.000
  24339633.602    -6589251.147 7  -5475891.54025        42.000
 96  6 11 16 53 45.0020000  0  7G 4G 2G 9G 7G26G27G24
  22259477.764   -15125030.171 9 -12457518.15128        96.000
  22653386.887    -4217748.901 9   6225733.95627        86.000
  23051184.677   -12035509.179 9  -9740212.04727        92.000
  21540745.282     1395361.570 9   1232079.55629       126.000
  24639879.376   -15847176.995 6   3691601.12925        40.000
  24664072.088    41383164.443 6  18477949.13525        30.000
  24330733.724    -6636029.926 7  -5512342.53025        42.000
 96  6 11 16 54  0.0020000  0  7G 4G 2G 9G 7G26G27G24
  22253655.945   -15155614.857 9 -12481350.33228        98.000
  22658598.838    -4190391.576 9   6247051.36927        88.000
  23045472.851   -12065523.495 9  -9763599.80127        92.000
  21546199.227     1424031.830 9   1254420.03729       126.000
  24646829.315   -15810656.900 6   3720058.34325        40.000
  24676344.182    41447713.884 6  18528247.36225        30.000
  24321828.149    -6682785.961 7  -5548775.75425        42.000
 96  6 11 16 54 15.0020000  0  7G 4G 2G 9G 7G26G27G24
  22247855.050   -15186113.093 9 -12505115.19028       100.000
  22663813.488    -4162982.141 9   6268409.35127        86.000
  23039776.854   -12095455.525 9  -9786923.47127        94.000
  21551663.124     1452748.384 9   1276796.55429       126.000
  24653790.616   -15774084.708 7   3748556.15525        42.000
  24688640.380    41512284.066 6  18578561.74525        32.000
  24312928.420    -6729523.323 7  -5585194.44525        42.000
 96  6 11 16 54 30.0020000  0  7G 4G 2G 9G 7G26G27G24
  22242064.349   -15216515.212 9 -12528805.10828        98.000
  22669043.907    -4135512.295 9   6289814.45827        88.000
  23034100.134   -12125294.997 9  -9810174.96327        96.000
  21557139.553     1481520.819 9   1299216.66329       124.000
  24660760.221   -15737454.048 7   3777099.53525        42.000
  24700933.460    41576883.591 6  18628898.98725        34.000
  24304042.272    -6776232.027 7  -5621590.76925        44.000
 96  6 11 16 54 45.0020000  0  6G 4G 2G 9G 7G26G24
  22236302.038   -15246822.792 9 -12552421.40228       100.000
  22674279.093    -4107986.192 9   6311263.35327        88.000
  23028438.524   -12155042.649 9  -9833354.93427        92.000
  21562622.817     1510344.674 9   1321676.81829       124.000
  24667742.747   -15700770.270 7   3805684.24825        42.000
  24295159.931    -6822915.779 7  -5657967.66125        48.000
 96  6 11 16 55  0.0020000  0  6G 4G 2G 9G 7G26G24
  22230552.289   -15277041.206 9 -12575968.22028        98.000
  22679525.731    -4080408.258 9   6332752.61527        86.000
  23022797.749   -12184701.169 9  -9856465.48027        96.000
  21568117.323     1539215.991 9   1344173.92629       124.000
  24674734.147   -15664041.119 7   3834304.27325        44.000
  24286285.834    -6869579.153 7  -5694328.70925        46.000
 96  6 11 16 55 15.0020000  0  6G 4G 2G 9G 7G26G24
  22224818.069   -15307168.164 9 -12599443.74128       100.000
  22684782.472    -4052775.124 9   6354284.93827        88.000
  23017165.998   -12214268.123 9  -9879504.64027        92.000
  21573620.313     1568138.193 9   1366710.72229       124.000
  24681721.620   -15627269.182 7   3862957.77125        42.000
  24277402.534    -6916218.620 7  -5730671.12125        44.000
 96  6 11 16 55 30.0020000  0  6G 4G 2G 9G 7G26G24
  22219101.746   -15337200.229 9 -12622845.35228       100.000
  22690054.622    -4025083.719 9   6375862.65227        90.000
  23011560.028   -12243742.033 9  -9902471.30727        90.000
  21579133.647     1597112.336 9   1389287.97329       122.000
  24688731.547   -15590454.426 7   3891644.58025        44.000
  24268530.926    -6962832.191 7  -5766993.36525        46.000
 96  6 11 16 55 45.0020000  0  6G 4G 2G 9G 7G26G24
  22213403.980   -15367135.667 9 -12646171.60928        98.000
  22695335.826    -3997334.579 9   6397485.38727        88.000
  23005967.670   -12273125.936 9  -9925367.81827        88.000
  21584659.002     1626139.167 9   1411906.31829       124.000
  24695759.042   -15553596.338 7   3920365.18925        50.000
  24259666.422    -7009421.548 7  -5803296.69025        50.000
 96  6 11 16 56  0.0020000  0  6G 4G 2G 9G 7G26G24
  22207729.449   -15396976.130 9 -12669423.92028       102.000
  22700625.364    -3969531.958 9   6419149.75727        92.000
  23000391.111   -12302424.742 9  -9948198.05027        84.000
  21590192.781     1655218.025 9   1434565.14829       124.000
  24702771.187   -15516694.680 7   3949119.70425        48.000
  24250806.296    -7055992.096 7  -5839585.44025        48.000
 96  6 11 16 56 15.0020000  0  6G 4G 2G 9G 7G26G24
  22202068.528   -15426715.731 9 -12692597.62628       100.000
  22705931.331    -3941669.493 9   6440860.77727        92.000
  22994833.768   -12331630.798 9  -9970956.01127        84.000
  21595734.624     1684355.496 9   1457269.67729       124.000
  24709801.081   -15479743.723 7   3977912.64525        46.000
  24241945.870    -7102537.389 7  -5875854.44725        44.000
 96  6 11 16 56 30.0020000  0  6G 4G 2G 9G 7G26G24
  22196428.502   -15456357.709 9 -12715695.25029       102.000
  22711241.854    -3913752.462 9   6462614.29827        90.000
  22989292.014   -12360743.547 8  -9993641.24527        82.000
  21601292.866     1713549.859 9   1480018.54029       126.000
  24716846.683   -15442745.681 7   4006742.24425        46.000
  24233092.519    -7149058.154 7  -5912104.35225        46.000
 96  6 11 16 56 45.0020000  0  6G 4G 2G 9G 7G26G24
  22190805.415   -15485899.018 9 -12738714.43029       102.000
  22716562.181    -3885779.660 9   6484411.26127        90.000
  22983772.715   -12389763.179 8 -10016253.94327        82.000
  21606860.432     1742803.281 9   1502813.41629       126.000
  24723896.093   -15405697.530 7   4035610.88025        48.000
  24224244.774    -7195551.960 7  -5948333.27825        46.000
 96  6 11 16 57  0.0020000  0  6G 4G 2G 9G 7G26G24
  22185205.022   -15515343.921 9 -12761658.50929       102.000
  22721895.069    -3857753.453 9   6506249.86527        90.000
  22978267.446   -12418695.320 8 -10038798.44927        82.000
  21612436.482     1772112.223 9   1525651.54329       124.000
  24730958.034   -15368601.075 7   4064517.17225        46.000
  24215401.376    -7242022.322 7  -5984543.91225        46.000
 96  6 11 16 57 15.0020000  0  6G 4G 2G 9G 7G26G24
  22179622.467   -15544691.714 9 -12784526.91429       102.000
  22727242.947    -3829673.784 9   6528130.10427        90.000
  22972774.559   -12447542.806 8 -10061277.02927        80.000
  21618026.652     1801476.879 9   1548533.08229       126.000
  24738021.084   -15331453.652 7   4093463.22925        44.000
  24206569.970    -7288467.117 7  -6020734.63725        48.000
 96  6 11 16 57 30.0020000  0  6G 4G 2G 9G 7G26G24
  22174055.141   -15573934.794 9 -12807313.69029       104.000
  22732594.213    -3801538.022 9   6550054.10727        88.000
  22967302.297   -12476302.881 9 -10083687.44027        84.000
  21623624.017     1830900.337 9   1571460.48029       124.000
  24745097.176   -15294249.128 7   4122453.80325        44.000
  24197737.545    -7334881.390 7  -6056901.55925        48.000
 96  6 11 16 57 45.0020000  0  6G 4G 2G 9G 7G26G24
  22168511.529   -15603069.920 9 -12830016.38129       102.000
  22737963.046    -3773347.736 9   6572020.54427        92.000
  22961850.632   -12504972.833 9 -10106027.66427        88.000
  21629231.305     1860380.711 9   1594432.18729       122.000
  24752198.959   -15256986.166 7   4151489.81025        46.000
  24188910.426    -7381264.318 7  -6093044.11125        50.000
 96  6 11 16 58  0.0020000  0  6G 4G 2G 9G 7G26G24
  22162987.073   -15632097.384 9 -12852635.16329       102.000
  22743330.620    -3745106.496 9   6594026.71127        90.000
  22956413.895   -12533552.333 9 -10128297.38327        88.000
  21634854.542     1889917.934 9   1617448.22629       124.000
  24759296.636   -15219667.952 7   4180568.96825        44.000
  24180097.847    -7427618.116 7  -6129163.91625        48.000
 96  6 11 16 58 15.0020000  0  6G 4G 2G 9G 7G26G24
  22157481.205   -15661021.020 9 -12875173.03629       100.000
  22748717.920    -3716822.213 9   6616066.42227        94.000
  22950987.712   -12562046.056 9 -10150500.27127        90.000
  21640485.514     1919502.004 9   1640500.74929       120.000
  24766403.815   -15182305.041 6   4209682.84025        40.000
  24171272.226    -7473948.785 7  -6165265.70026        50.000
 96  6 11 16 58 30.0020000  0  6G 4G 2G 9G 7G26G24
  22151998.690   -15689842.352 9 -12897631.20729       104.000
  22754104.321    -3688494.829 9   6638139.69127        90.000
  22945583.863   -12590454.849 9 -10172636.96627        88.000
  21646122.032     1949129.776 9   1663587.32029       122.000
  24773521.338   -15144901.053 7   4238828.81525        44.000
  24162460.007    -7520255.599 7  -6201348.89126        52.000
 96  6 11 16 58 45.0020000  0  6G 4G 2G 9G 7G26G24
  22146532.005   -15718554.499 9 -12920004.29729       102.000
  22759503.254    -3660119.176 9   6660250.57927        92.000
  22940194.164   -12618776.310 9 -10194705.64627        90.000
  21651769.312     1978802.549 9   1686708.95429       122.000
  24780634.724   -15107451.792 7   4268010.03725        42.000
  24153650.246    -7566535.484 7  -6237411.13226        50.000
 96  6 11 16 59  0.0020000  0  6G 4G 2G 9G 7G26G24
  22141093.410   -15747152.120 9 -12942288.16229       106.000
  22764914.118    -3631693.523 9   6682400.42327        90.000
  22934820.894   -12647009.969 9 -10216705.88427        90.000
  21657423.008     2008521.292 9   1709866.41529       118.000
  24787782.615   -15069956.716 7   4297226.97225        42.000
  24144851.727    -7612788.957 7  -6273452.75326        50.000
 96  6 11 16 59 15.0020000  0  6G 4G 2G 9G 7G26G24
  22135671.394   -15775632.723 9 -12964480.81829       102.000
  22770337.963    -3603216.280 9   6704590.48727        94.000
  22929462.823   -12675152.602 9 -10238635.20127        90.000
  21663088.666     2038287.148 9   1733060.58829       120.000
  24794925.111   -15032414.955 7   4326480.26625        44.000
  24136056.236    -7659015.590 7  -6309473.49926        52.000
 96  6 11 16 59 30.0020000  0  6G 4G 2G 9G 7G26G24
  22130274.800   -15803996.434 9 -12986582.39529       104.000
  22775761.598    -3574688.150 9   6726820.20127        92.000
  22924124.779   -12703204.908 9 -10260494.12227        92.000
  21668760.649     2068098.107 9   1756289.91429       118.000
  24802079.478   -14994830.684 6   4355766.69225        38.000
  24127264.882    -7705216.136 7  -6345473.90125        54.000
 96  6 11 16 59 45.0020000  0  6G 4G 2G 9G 7G26G24
  22124900.600   -15832243.862 9 -13008593.36729       104.000
  22781201.932    -3546108.751 9   6749089.84927        94.000
  22918807.240   -12731166.266 9 -10282282.18727        94.000
  21674443.095     2097955.363 9   1779555.31029       118.000
  24809230.667   -14957206.775 6   4385083.98025        36.000
  24118474.128    -7751392.736 7  -6381455.65725        50.000
 96  6 11 17  0  0.0020000  0  6G 4G 2G 9G 7G26G24
  22119545.138   -15860375.211 9 -13030513.86329       102.000
  22786650.810    -3517473.942 9   6771402.68327        94.000
  22913500.344   -12759034.811 9 -10303997.91427        90.000
  21680133.516     2127861.746 9   1802859.00229       118.000
  24816398.885   -14919543.025 6   4414432.35425        36.000
  24109693.267    -7797544.157 7  -6417417.76325        52.000
 96  6 11 17  0 15.0020000  0  6G 4G 2G 9G 7G26G24
  22114214.168   -15888394.672 9 -13052347.15829       104.000
  22792109.701    -3488783.704 9   6793758.76027        92.000
  22908216.022   -12786815.869 9 -10325645.43527        90.000
  21685835.688     2157816.844 9   1826200.68129       116.000
  24823584.820   -14881841.953 7   4443809.84125        44.000
  24100921.969    -7843670.521 7  -6453360.32625        50.000
 96  6 11 17  0 30.0020000  0  6G 4G 2G 9G 7G26G24
  22108903.974   -15916305.635 9 -13074095.99829       104.000
  22797584.331    -3460034.792 9   6816160.45827        92.000
  22902943.692   -12814512.625 9 -10347227.37627        88.000
  21691544.276     2187818.248 9   1849578.34629       118.000
  24830765.719   -14844103.039 7   4473216.70225        42.000
  24092144.495    -7889771.816 7  -6489283.41725        52.000
 96  6 11 17  0 45.0020000  0  6G 4G 2G 9G 7G26G24
  22103611.168   -15944109.693 9 -13095761.46729       104.000
  22803064.447    -3431223.374 9   6838610.92027        92.000
  22897688.720   -12842124.123 9 -10368742.80427        90.000
  21697259.940     2217869.383 9   1872994.82729       114.000
  24837948.476   -14806323.870 6   4502655.04725        38.000
  24083369.240    -7935846.935 7  -6525186.08425        50.000
 96  6 11 17  1  0.0020000  0  6G 4G 2G 9G 7G26G24
  22098343.275   -15971806.219 9 -13117343.15829       104.000
  22808560.182    -3402348.922 9   6861110.48327        92.000
  22892455.933   -12869647.800 9 -10390189.82127        92.000
  21702989.213     2247974.330 9   1896453.22329       112.000
  24845139.718   -14768502.626 6   4532126.12425        32.000
  24074612.752    -7981893.470 7  -6561066.48925        48.000
 96  6 11 17  1 15.0020000  0  6G 4G 2G 9G 7G26G24
  22093094.059   -15999397.324 9 -13138842.70729       106.000
  22814064.192    -3373408.494 9   6883661.46127        90.000
  22887232.858   -12897080.920 9 -10411566.26928        92.000
  21708729.879     2278136.656 9   1919956.33129       112.000
  24852354.223   -14730640.978 6   4561628.66125        32.000
  24065854.855    -8027908.967 7  -6596922.70625        50.000
 96  6 11 17  1 30.0020000  0  6G 4G 2G 9G 7G26G24
  22087859.413   -16026889.111 9 -13160264.86829       106.000
  22819586.369    -3344402.457 9   6906263.56427        92.000
  22882027.502   -12924424.795 9 -10432873.16928        94.000
  21714477.200     2308353.030 9   1943501.56329       112.000
  24859559.495   -14692743.774 6   4591158.90725        30.000
  24057097.468    -8073893.596 7  -6632754.87825        50.000
 96  6 11 17  1 45.0020000  0  6G 4G 2G 9G 7G26G24
  22082649.380   -16054274.886 9 -13181604.39429       106.000
  22825120.388    -3315325.308 9   6928921.11127        90.000
  22876843.521   -12951671.333 9 -10454104.19928        94.000
  21720238.852     2338629.943 9   1967093.98029       112.000
  24866777.178   -14654805.526 6   4620721.12225        34.000
  24048362.835    -8119840.479 7  -6668557.58325        50.000
 96  6 11 17  2  0.0020000  0  6G 4G 2G 9G 7G26G24
  22077455.236   -16081558.792 9 -13202864.59029       106.000
  22830664.570    -3286181.204 9   6951630.75627        88.000
  22871679.656   -12978822.119 9 -10475260.68728        96.000
  21726011.026     2368961.696 9   1990729.07929       110.000
  24874021.633   -14616830.020 6   4650312.36525        38.000
  24039624.934    -8165753.551 7  -6704334.00525        52.000
 96  6 11 17  2 15.0020000  0  6G 4G 2G 9G 7G26G24
  22072279.919   -16108741.171 9 -13224045.66129       106.000
  22836223.112    -3256971.470 9   6974391.56727        90.000
  22866532.039   -13005877.698 9 -10496342.96128        98.000
  21731795.611     2399345.246 9   2014404.55429       112.000
  24881238.087   -14578818.542 6   4679931.63025        36.000
  24030894.528    -8211631.570 7  -6740083.10225        52.000
 96  6 11 17  2 30.0020000  0  6G 4G 2G 9G 7G26G24
  22067131.882   -16135820.507 9 -13245146.39429       108.000
  22841792.866    -3227697.157 9   6997202.75727        86.000
  22861401.811   -13032834.020 9 -10517347.83428       100.000
  21737587.751     2429779.809 9   2038119.84429       112.000
  24888486.859   -14540769.324 6   4709580.43925        32.000
  24022175.154    -8257474.635 7  -6775804.90425        52.000
 96  6 11 17  2 45.0020000  0  6G 4G 2G 9G 7G26G24
  22061997.787   -16162799.101 9 -13266168.65029       108.000
  22847378.089    -3198362.349 9   7020061.04827        88.000
  22856291.459   -13059690.284 9 -10538274.78928       102.000
  21743387.446     2460261.849 9   2061872.07629       112.000
  24895731.104   -14502684.005 6   4739257.24825        32.000
  24013453.892    -8303285.479 7  -6811501.64525        54.000
 96  6 11 17  3  0.0020000  0  6G 4G 2G 9G 7G26G24
  22056882.638   -16189670.954 9 -13287107.76129       106.000
  22852969.309    -3168967.916 9   7042965.76827        86.000
  22851197.115   -13086442.359 9 -10559120.56728       100.000
  21749197.994     2490796.337 9   2085665.16129       114.000
  24902981.585   -14464559.552 6   4768964.53725        34.000
  24004741.983    -8349059.793 7  -6847169.94725        54.000
 96  6 11 17  3 15.0020000  0  6G 4G 2G 9G 7G26G24
  22051788.954   -16216449.955 9 -13307974.48129       108.000
  22858569.821    -3139531.199 9   7065903.49427        86.000
  22846124.927   -13113108.501 9 -10579899.33728       100.000
  21755018.674     2521363.293 9   2109483.58929       112.000
  24910244.117   -14426414.036 6   4798688.34225        40.000
  23996034.901    -8394814.560 7  -6882822.99425        54.000
 96  6 11 17  3 30.0020000  0  6G 4G 2G 9G 7G26G24
  22046713.708   -16243121.016 9 -13328757.11829       108.000
  22864182.386    -3110039.657 9   7088883.89927        84.000
  22841069.527   -13139677.260 9 -10600602.27128       102.000
  21760839.564     2551972.754 9   2133335.10529       114.000
  24917504.670   -14388234.335 6   4828438.75325        38.000
  23987340.560    -8440536.661 7  -6918450.56925        58.000
 96  6 11 17  3 45.0020000  0  6G 4G 2G 9G 7G26G24
  22041659.746   -16269678.131 9 -13349450.96029       106.000
  22869805.713    -3080492.114 9   7111907.94927        84.000
  22836028.786   -13166147.980 9 -10621228.79828        98.000
  21766671.907     2582627.646 9   2157222.02829       114.000
  24924786.539   -14350013.979 6   4858220.83225        36.000
  23978640.463    -8486223.749 7  -6954050.87626        54.000
 96  6 11 17  4  0.0020000  0  6G 4G 2G 9G 7G26G24
  22036628.150   -16296116.791 9 -13370052.50729       106.000
  22875439.443    -3050887.910 9   7134976.13727        86.000
  22831009.391   -13192519.904 9 -10641778.37228        98.000
  21772516.780     2613331.411 9   2181147.01729       116.000
  24932069.068   -14311750.451 6   4888036.53825        36.000
  23969954.456    -8531873.671 7  -6989622.22726        54.000
 96  6 11 17  4 15.0020000  0  6G 4G 2G 9G 7G26G24
  22031617.569   -16322442.472 9 -13390566.00929       106.000
  22881082.047    -3021227.962 9   7158087.79927        84.000
  22826010.682   -13218800.157 9 -10662256.45028        94.000
  21778367.410     2644080.395 9   2205107.28129       114.000
  24939359.001   -14273445.771 6   4917884.30425        36.000
  23961279.361    -8577488.233 7  -7025166.00826        60.000
 96  6 11 17  4 30.0020000  0  6G 4G 2G 9G 7G26G24
  22026633.339   -16348651.917 9 -13410988.94429       102.000
  22886738.950    -2991510.712 9   7181244.07627        84.000
  22821021.805   -13244988.829 9 -10682663.22228        92.000
  21784227.393     2674878.765 9   2229105.99529       116.000
  24946668.541   -14235097.480 6   4947766.02425        38.000
  23952605.017    -8623064.894 7  -7060680.30026        52.000
 96  6 11 17  4 45.0020000  0  6G 4G 2G 9G 7G26G24
  22021665.808   -16374744.374 9 -13431320.68429       110.000
  22892402.150    -2961735.549 8   7204445.52027        80.000
  22816060.000   -13271087.331 9 -10702999.68128        98.000
  21790097.210     2705726.074 9   2253142.88029       116.000
  24953959.973   -14196704.559 6   4977682.54025        40.000
  23943930.702    -8668605.031 7  -7096166.07826        52.000
 96  6 11 17  5  0.0020000  0  6G 4G 2G 9G 7G26G24
  22016723.010   -16400720.646 9 -13451561.93629       108.000
  22898078.510    -2931904.033 8   7227690.83727        82.000
  22811109.468   -13297100.159 9 -10723269.41528        96.000
  21795980.427     2736622.061 9   2277217.65129       118.000
  24961273.770   -14158271.032 7   5007630.72525        42.000
  23935272.666    -8714110.118 7  -7131624.56726        52.000
 96  6 11 17  5 15.0020000  0  6G 4G 2G 9G 7G26G24
  22011805.244   -16426564.473 9 -13471699.95929       110.000
  22903769.830    -2902000.627 8   7250992.18527        82.000
  22806177.522   -13323011.787 9 -10743460.29228        94.000
  21801868.620     2767579.816 9   2301340.59329       118.000
  24968593.532   -14119786.130 6   5037618.98925        40.000
  23926623.593    -8759566.827 7  -7167045.35326        50.000
 96  6 11 17  5 30.0020000  0  6G 4G 2G 9G 7G26G24
  22006908.974   -16452289.640 9 -13491745.52729       110.000
  22909473.082    -2872038.048 8   7274339.66827        82.000
  22801266.801   -13348831.700 9 -10763579.68828        96.000
  21807766.857     2798584.362 9   2325499.98429       118.000
  24975924.088   -14081264.505 6   5067635.83625        38.000
  23917986.063    -8804988.978 7  -7202439.18826        54.000
 96  6 11 17  5 45.0020000  0  6G 4G 2G 9G 7G26G24
  22002036.117   -16477905.707 9 -13511706.08829       110.000
  22915185.267    -2842025.252 8   7297726.26727        82.000
  22796368.702   -13374563.336 9 -10783630.29728        94.000
  21813674.597     2829628.794 9   2349690.44029       118.000
  24983259.289   -14042712.844 6   5097676.02725        38.000
  23909345.684    -8850383.626 7  -7237811.61226        54.000
 96  6 11 17  6  0.0020000  0  6G 4G 2G 9G 7G26G24
  21997180.229   -16503402.568 9 -13531573.76729       110.000
  22920906.417    -2811951.720 8   7321160.16527        80.000
  22791494.017   -13400193.814 9 -10803602.11128        94.000
  21819591.631     2860723.592 9   2373920.15129       118.000
  24990600.757   -14004121.678 6   5127747.00025        40.000
  23900712.531    -8895739.738 7  -7273154.01826        50.000
 96  6 11 17  6 15.0020000  0  6G 4G 2G 9G 7G26G24
  21992350.063   -16528790.471 9 -13551356.52829       108.000
  22926641.746    -2781825.030 8   7344635.51527        80.000
  22786631.833   -13425729.542 9 -10823500.05728        92.000
  21825515.470     2891857.217 9   2398180.12029       118.000
  24997954.516   -13965500.835 7   5157841.13225        44.000
  23892090.260    -8941062.825 7  -7308470.66726        56.000
 96  6 11 17  6 30.0020000  0  6G 4G 2G 9G 7G26G24
  21987543.550   -16554056.128 9 -13571044.04729       110.000
  22932383.341    -2751636.126 8   7368159.29627        78.000
  22781798.189   -13451156.575 9 -10843313.34628        94.000
  21831450.761     2923038.916 9   2422477.52229       120.000
  25005307.676   -13926838.879 7   5187967.28125        42.000
  23883471.677    -8986343.970 7  -7343754.66226        54.000
 96  6 11 17  6 45.0020000  0  6G 4G 2G 9G 7G26G24
  21982753.257   -16579205.663 9 -13590641.06629       108.000
  22938141.635    -2721395.074 8   7391723.75827        80.000
  22776975.848   -13476477.557 9 -10863043.95328        92.000
  21837392.678     2954261.945 9   2446807.16429       120.000
  25012675.345   -13888143.929 7   5218119.19725        44.000
  23874860.828    -9031590.271 7  -7379011.47926        58.000
 96  6 11 17  7  0.0020000  0  6G 4G 2G 9G 7G26G24
  21977996.300   -16604241.476 9 -13610149.48429       112.000
  22943905.175    -2691105.047 8   7415326.37227        76.000
  22772176.620   -13501694.014 9 -10882693.15128        92.000
  21843340.470     2985521.697 9   2471165.40229       120.000
  25020044.753   -13849419.677 7   5248293.90725        44.000
  23866256.814    -9076800.819 7  -7414240.46926        56.000
 96  6 11 17  7 15.0020000  0  6G 4G 2G 9G 7G26G24
  21973249.806   -16629155.912 9 -13629563.29829       110.000
  22949675.550    -2660758.519 8   7438973.02627        80.000
  22767403.984   -13526797.387 9 -10902254.18228        94.000
  21849297.856     3016825.501 9   2495557.98729       120.000
  25027418.419   -13810659.598 6   5278496.55825        40.000
  23857666.231    -9121964.971 7  -7449433.27226        58.000
 96  6 11 17  7 30.0020000  0  6G 4G 2G 9G 7G26G24
  21968533.711   -16653949.379 9 -13648882.88529       110.000
  22955462.204    -2630357.435 8   7462662.16927        76.000
  22762645.768   -13551789.199 9 -10921728.32128        94.000
  21855261.387     3048170.086 9   2519982.31729       122.000
  25034802.847   -13771862.786 6   5308727.77025        38.000
  23849079.426    -9167081.148 7  -7484588.71326        58.000
 96  6 11 17  7 45.0020000  0  6G 4G 2G 9G 7G26G24
  21963836.832   -16678626.297 9 -13668111.63129       110.000
  22961258.571    -2599906.092 8   7486390.48727        78.000
  22757908.418   -13576676.969 9 -10941121.39428        92.000
  21861235.292     3079553.488 9   2544436.92329       122.000
  25042188.414   -13733030.497 6   5338986.67725        36.000
  23840503.503    -9212150.299 7  -7519707.49326        58.000
 96  6 11 17  8  0.0020000  0  6G 4G 2G 9G 7G26G24
  21959165.346   -16703184.117 9 -13687247.59129       110.000
  22967060.545    -2569400.340 8   7510161.18427        76.000
  22753192.682   -13601460.334 9 -10960433.10128        92.000
  21867215.132     3110979.307 9   2568924.56329       122.000
  25049592.928   -13694156.924 6   5369277.73325        38.000
  23831935.734    -9257168.799 7  -7554786.83526        60.000
 96  6 11 17  8 15.0020000  0  6G 4G 2G 9G 7G26G24
  21954511.008   -16727630.681 9 -13706296.84129       110.000
  22972875.769    -2538848.855 8   7533967.54127        78.000
  22748494.545   -13626150.940 9 -10979672.51128        94.000
  21873200.638     3142440.697 9   2593439.93629       120.000
  25056993.035   -13655251.458 6   5399593.67025        38.000
  23823380.497    -9302143.552 7  -7589832.04926        60.000
 96  6 11 17  8 30.0020000  0  6G 4G 2G 9G 7G26G24
  21949882.932   -16751961.979 9 -13725256.27229       110.000
  22978698.218    -2508247.686 8   7557812.58927        76.000
  22743813.376   -13650743.916 9 -10998835.86928        90.000
  21879196.188     3173941.072 9   2617985.68829       122.000
  25064403.245   -13616310.190 6   5429937.52925        40.000
  23814831.435    -9347071.134 7  -7624840.53726        62.000
 96  6 11 17  8 45.0020000  0  6G 4G 2G 9G 7G26G24
  21945272.814   -16776176.875 9 -13744125.02229       108.000
  22984535.447    -2477595.359 8   7581697.51827        78.000
  22739154.541   -13675238.319 9 -11017922.39428        94.000
  21885198.243     3205483.273 9   2642564.02529       122.000
  25071826.706   -13577333.865 6   5460308.68325        40.000
  23806287.740    -9391950.480 7  -7659811.42926        58.000
 96  6 11 17  9  0.0020000  0  6G 4G 2G 9G 7G26G24
  21940687.968   -16800274.622 9 -13762902.45829       110.000
  22990376.214    -2446883.350 8   7605628.94927        78.000
  22734508.777   -13699633.422 9 -11036931.57128        90.000
  21891209.711     3237069.889 9   2667176.96729       120.000
  25079240.453   -13538319.578 6   5490709.39325        36.000
  23797757.265    -9436774.667 7  -7694739.30726        60.000
 96  6 11 17  9 15.0020000  0  6G 4G 2G 9G 7G26G24
  21936124.977   -16824260.076 9 -13781592.42629       110.000
  22996237.906    -2416112.761 8   7629606.00427        78.000
  22729887.686   -13723934.976 9 -11055867.85628        94.000
  21897227.085     3268695.726 9   2691820.45729       118.000
  25086682.501   -13499272.816 6   5521135.41625        40.000
  23789239.652    -9481549.901 7  -7729629.09626        62.000
 96  6 11 17  9 30.0020000  0  6G 4G 2G 9G 7G26G24
  21931580.273   -16848126.569 9 -13800189.67329       108.000
  23002099.898    -2385274.224 8   7653636.06427        78.000
  22725283.773   -13748131.751 9 -11074722.45428        96.000
  21903255.522     3300369.452 9   2716501.29929       118.000
  25094111.868   -13460186.144 7   5551592.53525        42.000
  23780727.675    -9526273.039 7  -7764478.23826        60.000
 96  6 11 17  9 45.0020000  0  6G 4G 2G 9G 7G26G24
  21927063.000   -16871879.038 9 -13818698.08529       110.000
  23007982.485    -2354370.451 8   7677716.89527        78.000
  22720699.587   -13772225.539 9 -11093496.84228        94.000
  21909287.856     3332091.023 9   2741219.39529       116.000
  25101550.588   -13421063.361 6   5582077.82925        36.000
  23772227.599    -9570948.612 7  -7799290.35526        60.000
 96  6 11 17 10  0.0020000  0  6G 4G 2G 9G 7G26G24
  21922566.743   -16895513.485 9 -13837114.52329       110.000
  23013875.086    -2323394.278 8   7701854.15327        80.000
  22716130.600   -13796210.730 9 -11112186.59828        96.000
  21915336.918     3363864.036 9   2765977.58229       116.000
  25109012.602   -13381900.631 6   5612594.21625        34.000
  23763727.374    -9615574.458 7  -7834063.72426        60.000
 96  6 11 17 10 15.0020000  0  6G 4G 2G 9G 7G26G24
  21918089.852   -16919031.207 9 -13855439.98729       112.000
  23019786.244    -2292349.298 8   7726045.08827        82.000
  22711589.674   -13820089.215 9 -11130793.17628        98.000
  21921391.197     3395683.469 9   2790771.96729       112.000
  25116470.000   -13342705.068 6   5643136.18625        34.000
  23755253.380    -9660154.891 7  -7868801.65926        60.000
 96  6 11 17 10 30.0020000  0  6G 4G 2G 9G 7G26G24
  21913633.137   -16942430.130 9 -13873672.92029       112.000
  23025702.888    -2261234.485 8   7750290.36127        80.000
  22707067.634   -13843858.989 9 -11149315.08628        98.000
  21927456.927     3427547.534 9   2815601.09429       114.000
  25123931.984   -13303481.812 6   5673699.71025        34.000
  23746775.310    -9704689.656 7  -7903504.07226        60.000
 96  6 11 17 10 45.0020000  0  6G 4G 2G 9G 7G26G24
  21909204.154   -16965708.617 9 -13891812.02129       112.000
  23031639.228    -2230049.171 8   7774590.57027        80.000
  22702566.041   -13867519.702 9 -11167752.04828        98.000
  21933526.406     3459454.302 9   2840463.46429       112.000
  25131397.925   -13264232.708 6   5704283.39025        34.000
  23738311.269    -9749180.855 7  -7938172.54626        62.000
 96  6 11 17 11  0.0020000  0  6G 4G 2G 9G 7G26G24
  21904803.170   -16988865.027 9 -13909855.93729       112.000
  23037584.952    -2198792.687 8   7798946.29027        80.000
  22698082.524   -13891072.158 9 -11186104.56728        96.000
  21939607.995     3491406.680 9   2865361.45729       112.000
  25138878.976   -13224958.158 6   5734886.95325        36.000
  23729848.877    -9793628.357 7  -7972806.88826        60.000
 96  6 11 17 11 15.0020000  0  6G 4G 2G 9G 7G26G24
  21900423.652   -17011893.477 9 -13927800.19329       112.000
  23043552.321    -2167464.634 8   7823357.74627        82.000
  22693618.855   -13914512.484 9 -11204369.76128        98.000
  21945695.461     3523407.940 9   2890297.48729       112.000
  25146345.577   -13185655.941 6   5765512.02925        34.000
  23721400.396    -9838029.768 7  -8007405.39026        62.000
 96  6 11 17 11 30.0020000  0  6G 4G 2G 9G 7G26G24
  21896060.982   -17034793.573 9 -13945644.37529       114.000
  23049519.510    -2136071.686 8   7847819.80027        82.000
  22689183.545   -13937840.344 9 -11222547.27128       100.000
  21951799.086     3555458.187 9   2915271.73629       112.000
  25153828.817   -13146328.198 6   5796157.07625        32.000
  23712957.011    -9882388.581 7  -8041970.62426        62.000
 96  6 11 17 11 45.0020000  0  6G 4G 2G 9G 7G26G24
  21891726.973   -17057565.940 9 -13963389.10029       112.000
  23055504.656    -2104621.359 8   7872326.51327        82.000
  22684762.805   -13961060.100 9 -11240640.62328       100.000
  21957904.239     3587555.144 9   2940282.31529       110.000
  25161334.241   -13106978.190 6   5826819.37025        28.000
  23704525.768    -9926704.486 7  -8076502.51526        62.000
 96  6 11 17 12  0.0020000  0  6G 4G 2G 9G 7G26G24
  21887420.814   -17080211.364 9 -13981034.88929       114.000
  23061502.994    -2073118.807 8   7896873.94927        82.000
  22680362.782   -13984178.505 9 -11258654.95828       100.000
  21964016.588     3619692.711 9   2965324.57029       106.000
  25168813.793   -13067611.516 6   5857494.66425        28.000
  23696103.669    -9970978.784 8  -8111001.94926        64.000
 96  6 11 17 12 15.0020000  0  6G 4G 2G 9G 7G26G24
  21883135.550   -17102727.388 9 -13998579.82429       112.000
  23067508.646    -2041566.498 9   7921460.16627        86.000
  22675984.523   -14007196.000 9 -11276590.65128       100.000
  21970142.517     3651867.158 9   2990395.56929       108.000
  25176305.816   -13028229.003 6   5888182.30525        26.000
  23687690.233   -10015210.518 8  -8145468.19526        66.000
 96  6 11 17 12 30.0020000  0  6G 4G 2G 9G 7G26G24
  21878871.093   -17125121.202 9 -14016029.54629       112.000
  23073522.603    -2009968.931 9   7946081.63027        84.000
  22671623.712   -14030116.049 9 -11294450.43528       100.000
  21976272.073     3684075.917 9   3015493.29329       110.000
  25183813.579   -12988837.294 6   5918877.06625        26.000
  23679275.299   -10059403.494 8  -8179904.25926        64.000
 96  6 11 17 12 45.0020000  0  6G 4G 2G 9G 7G26G24
  21874634.875   -17147384.959 9 -14033377.90829       112.000
  23079540.457    -1978316.247 9   7970746.06227        84.000
  22667278.999   -14052929.552 9 -11312227.17328       102.000
  21982410.744     3716328.777 9   3040625.40229       110.000
  25191308.450   -12949424.234 6   5949588.49925        24.000
  23670873.046   -10103548.183 8  -8214302.67326        64.000
 96  6 11 17 13  0.0020000  0  6G 4G 2G 9G 7G26G24
  21870425.130   -17169521.562 9 -14050627.18129       114.000
  23085573.930    -1946611.056 9   7995451.41627        84.000
  22662959.170   -14075638.751 9 -11329922.61828       102.000
  21988554.720     3748624.108 9   3065790.60229       108.000
  25198811.656   -12909989.370 6   5980316.96325        26.000
  23662480.026   -10147645.829 7  -8248664.43226        62.000
 96  6 11 17 13 15.0020000  0  6G 4G 2G 9G 7G26G24
  21866234.961   -17191536.823 9 -14067781.94029       114.000
  23091619.425    -1914856.905 9   8020194.88727        84.000
  22658655.289   -14098246.947 9 -11347539.43128        98.000
  21994706.791     3780958.250 9   3090986.02329       108.000
  25206327.662   -12870533.716 6   6011061.60125        28.000
  23654096.420   -10191697.536 8  -8282990.43026        64.000
 96  6 11 17 13 30.0020000  0  6G 4G 2G 9G 7G26G24
  21862069.914   -17213429.302 9 -14084840.99929       112.000
  23097671.065    -1883049.427 9   8044979.93727        84.000
  22654376.022   -14120749.181 9 -11365073.61828       104.000
  22000868.636     3813331.126 9   3116211.63629       108.000
  25213830.628   -12831053.257 6   6041825.57525        30.000
  23645725.405   -10235698.644 8  -8317276.96726        64.000
 96  6 11 17 13 45.0020000  0  6G 4G 2G 9G 7G26G24
  21857922.975   -17235202.918 9 -14101807.44529       112.000
  23103735.687    -1851188.065 9   8069806.96327        84.000
  22650113.962   -14143149.586 9 -11382528.47728       104.000
  22007033.328     3845739.259 9   3141464.72129       108.000
  25221349.483   -12791549.190 6   6072607.93025        28.000
  23637359.756   -10279650.925 7  -8351525.46326        60.000
 96  6 11 17 14  0.0020000  0  6G 4G 2G 9G 7G26G24
  21853802.297   -17256865.910 9 -14118687.70929       112.000
  23109804.265    -1819276.852 8   8094672.82827        82.000
  22645866.893   -14165458.046 9 -11399911.70328       104.000
  22013209.652     3878173.389 9   3166738.04329       110.000
  25228871.486   -12752030.633 6   6103401.54125        32.000
  23629006.010   -10323560.786 8  -8385740.94326        64.000
 96  6 11 17 14 15.0020000  0  6G 4G 2G 9G 7G26G24
  21849699.188   -17278408.931 9 -14135474.45929       110.000
  23115890.712    -1787300.772 8   8119589.23827        82.000
  22641647.314   -14187663.262 9 -11417214.45828       106.000
  22019384.507     3910642.512 9   3192038.66929       106.000
  25236391.120   -12712485.825 6   6134215.68825        30.000
  23620661.077   -10367421.004 7  -8419917.72326        62.000
 96  6 11 17 14 30.0020000  0  6G 4G 2G 9G 7G26G24
  21845627.497   -17299840.124 9 -14152174.09829       110.000
  23121988.820    -1755259.036 8   8144556.80027        82.000
  22637436.429   -14209768.695 9 -11434439.47528       106.000
  22025569.675     3943144.789 9   3217365.10829       108.000
  25243916.510   -12672916.884 6   6165048.60025        30.000
  23612324.988   -10411235.582 8  -8454058.92026        64.000
 96  6 11 17 14 45.0020000  0  6G 4G 2G 9G 7G26G24
  21841568.127   -17321152.927 9 -14168781.46229       108.000
  23128103.567    -1723143.851 8   8169581.63827        80.000
  22633252.855   -14231767.371 9 -11451581.28928       108.000
  22031761.169     3975686.378 9   3242722.18929       106.000
  25251456.381   -12633317.683 6   6195905.06025        32.000
  23603994.984   -10454999.310 8  -8488160.48026        64.000
 96  6 11 17 15  0.0020000  0  6G 4G 2G 9G 7G26G24
  21837534.539   -17342352.815 9 -14185300.83829       110.000
  23134222.541    -1690966.604 8   8194654.82527        78.000
  22629082.712   -14253667.828 9 -11468646.55728       106.000
  22037960.397     4008256.641 9   3268101.61629       108.000
  25258995.231   -12593695.737 6   6226779.30325        34.000
  23595675.384   -10498719.745 8  -8522228.31226        64.000
 96  6 11 17 15 15.0020000  0  6G 4G 2G 9G 7G26G24
  21833524.665   -17363431.029 9 -14201725.40729       108.000
  23140361.181    -1658719.254 8   8219782.62527        78.000
  22624936.432   -14275457.992 9 -11485625.91128       106.000
  22044167.900     4040867.290 9   3293512.51829       110.000
  25266553.149   -12554042.305 6   6257678.05325        36.000
  23587367.955   -10542385.667 7  -8556253.66526        62.000
 96  6 11 17 15 30.0020000  0  6G 4G 2G 9G 7G26G24
  21829536.886   -17384390.767 9 -14218057.65829       110.000
  23146510.944    -1626405.955 8   8244961.79127        80.000
  22620808.290   -14297140.492 9 -11502521.36728       104.000
  22050378.670     4073514.639 9   3318951.99529       110.000
  25274096.347   -12514362.540 6   6288597.28325        34.000
  23579066.762   -10586000.242 8  -8590239.03626        64.000
 96  6 11 17 15 45.0020000  0  6G 4G 2G 9G 7G26G24
  21825568.833   -17405230.124 9 -14234296.10329       108.000
  23152671.649    -1594024.418 8   8270194.15026        76.000
  22616700.774   -14318713.525 9 -11519331.51928       104.000
  22056599.634     4106199.940 9   3344421.05829       110.000
  25281655.374   -12474658.334 7   6319535.64925        42.000
  23570780.438   -10629565.241 8  -8624185.77426        66.000
 96  6 11 17 16  0.0020000  0  5G 4G 2G 9G 7G24
  21821626.802   -17425948.820 9 -14250440.54029       110.000
  23158846.804    -1561575.759 8   8295478.81126        78.000
  22612619.279   -14340176.890 9 -11536056.22228       102.000
  22062826.983     4138923.882 9   3369920.23329       112.000
  23562496.183   -10673081.767 8  -8658094.73926        64.000
 96  6 11 17 16 15.0020000  0  5G 4G 2G 9G 7G24
  21817709.084   -17446547.739 9 -14266491.63529       108.000
  23165029.724    -1529060.315 8   8320815.51126        74.000
  22608557.751   -14361526.524 9 -11552692.29028       104.000
  22069061.347     4171685.571 9   3395448.82529       112.000
  23554222.421   -10716548.396 8  -8691964.81826        66.000
 96  6 11 17 16 30.0020000  0  5G 4G 2G 9G 7G24
  21813808.455   -17467031.021 9 -14282452.63229       108.000
  23171231.650    -1496482.228 8   8346201.02726        74.000
  22604517.808   -14382762.159 9 -11569239.54428       106.000
  22075302.396     4204482.740 9   3421005.05329       114.000
  23545959.511   -10759966.916 8  -8725797.40326        66.000
 96  6 11 17 16 45.0020000  0  5G 4G 2G 9G 7G24
  21809933.517   -17487395.688 9 -14298321.19429       108.000
  23177444.039    -1463846.007 8   8371631.84926        76.000
  22600494.623   -14403881.491 9 -11585696.16828       102.000
  22081553.009     4237316.872 9   3446590.07829       116.000
  23537711.471   -10803335.305 8  -8759590.92726        68.000
 96  6 11 17 17  0.0020000  0  5G 4G 2G 9G 7G24
  21806079.805   -17507636.168 9 -14314092.98229       106.000
  23183666.562    -1431154.126 8   8397106.02126        74.000
  22596500.368   -14424882.990 9 -11602060.97129       104.000
  22087806.380     4270189.299 9   3472204.96629       116.000
  23529464.241   -10846650.093 8  -8793342.70026        66.000
 96  6 11 17 17 15.0020000  0  5G 4G 2G 9G 7G24
  21802255.473   -17527756.857 9 -14329771.44029       110.000
  23189895.290    -1398411.438 8   8422619.79726        74.000
  22592521.972   -14445772.702 9 -11618338.66429       104.000
  22094069.734     4303096.521 9   3497846.94229       118.000
  23521236.557   -10889914.462 8  -8827055.17226        68.000
 96  6 11 17 17 30.0020000  0  5G 4G 2G 9G 7G24
  21798449.278   -17547755.585 9 -14345354.85129       112.000
  23196143.504    -1365610.676 8   8448178.83026        74.000
  22588572.147   -14466548.112 9 -11634527.28329       104.000
  22100337.675     4336043.757 9   3523520.11729       116.000
  23513008.243   -10933125.318 8  -8860725.94826        68.000
 96  6 11 17 17 45.0020000  0  5G 4G 2G 9G 7G24
  21794665.477   -17567631.506 9 -14360842.57829       114.000
  23202389.470    -1332752.094 8   8473782.89926        72.000
  22584640.399   -14487213.610 9 -11650630.26829       106.000
  22106611.851     4369028.819 9   3549222.75929       114.000
  23504798.696   -10976286.527 8  -8894358.03926        66.000
 96  6 11 17 18  0.0020000  0  5G 4G 2G 9G 7G24
  21790905.360   -17587380.587 9 -14376231.44829       112.000
  23208655.522    -1299831.507 8   8499435.29626        70.000
  22580730.775   -14507766.309 9 -11666645.34229       106.000
  22112897.719     4402055.971 9   3574958.21229       116.000
  23496598.653   -11019391.942 8  -8927946.64126        68.000
 96  6 11 17 18 15.0020000  0  5G 4G 2G 9G 7G24
  21787173.244   -17607004.546 9 -14391522.85129       114.000
  23214928.739    -1266854.264 8   8525131.83726        68.000
  22576836.831   -14528212.831 9 -11682577.70129       104.000
  22119190.783     4435120.084 9   3600722.44129       118.000
  23488408.383   -11062443.317 8  -8961493.14826        70.000
 96  6 11 17 18 30.0020000  0  5G 4G 2G 9G 7G24
  21783461.064   -17626502.542 9 -14406716.09329       114.000
  23221211.400    -1233821.224 8   8550871.85526        70.000
  22572968.339   -14548553.861 9 -11698427.84829       106.000
  22125489.063     4468221.338 9   3626515.61729       114.000
  23480221.441   -11105440.541 8  -8994997.46726        68.000
 96  6 11 17 18 45.0020000  0  5G 4G 2G 9G 7G24
  21779778.353   -17645862.516 9 -14421801.77129       116.000
  23227506.712    -1200722.103 8   8576663.38526        66.000
  22569118.225   -14568780.294 9 -11714188.68129       100.000
  22131800.204     4501372.213 9   3652347.48029       116.000
  23472048.139   -11148373.553 8  -9028451.70626        66.000
 96  6 11 17 19  0.0020000  0  6G 4G 2G 9G 5G 7G24
  21776120.855   -17665085.670 9 -14436780.87429       116.000
  23233822.200    -1167559.196 8   8602504.57726        68.000
  22565291.404   -14588896.275 9 -11729863.50229       102.000
  25064409.510    -3670519.751 6  -3484432.25124        38.000
  22138114.043     4534570.326 9   3678216.09829       116.000
  23463891.926   -11191243.788 8  -9061857.09926        66.000
 96  6 11 17 19 15.0020000  0  6G 4G 2G 9G 5G 7G24
  21772488.330   -17684175.964 9 -14451656.41829       116.000
  23240149.140    -1134331.387 8   8628396.35826        72.000
  22561482.661   -14608902.832 9 -11745453.01529       100.000
  25057666.488    -3705960.071 6  -3512048.04025        40.000
  22144440.953     4567813.485 9   3704119.86929       114.000
  23455745.425   -11234053.486 8  -9095215.26926        68.000
 96  6 11 17 19 30.0020000  0  6G 4G 2G 9G 5G 7G24
  21768878.229   -17703140.755 9 -14466434.16429       116.000
  23246482.465    -1101043.824 8   8654334.71026        72.000
  22557696.911   -14628804.297 9 -11760960.65129       102.000
  25050922.387    -3741418.429 6  -3539677.85425        40.000
  22150775.417     4601096.539 9   3730054.71729       112.000
  23447614.364   -11276809.343 8  -9128531.52426        70.000
 96  6 11 17 19 45.0020000  0  6G 4G 2G 9G 5G 7G24
  21765293.821   -17721974.511 9 -14481109.81129       116.000
  23252827.572    -1067690.839 8   8680324.02026        68.000
  22553929.090   -14648593.771 9 -11776381.02029       100.000
  25044167.164    -3776889.773 6  -3567317.86125        40.000
  22157120.435     4634424.071 9   3756024.21629       118.000
  23439484.533   -11319507.823 8  -9161803.05126        66.000
 96  6 11 17 20  0.0020000  0  6G 4G 2G 9G 5G 7G24
  21761736.243   -17740671.392 9 -14495678.80329       116.000
  23259189.019    -1034268.772 8   8706367.19626        70.000
  22550188.369   -14668265.396 9 -11791709.53929       104.000
  25037419.585    -3812369.830 6  -3594964.58925        38.000
  22163469.439     4667796.911 9   3782029.04329       114.000
  23431375.746   -11362143.996 8  -9195025.98726        68.000
 96  6 11 17 20 15.0020000  0  6G 4G 2G 9G 5G 7G24
  21758206.097   -17759236.477 9 -14510145.10129       116.000
  23265561.107    -1000783.544 8   8732459.57726        70.000
  22546466.656   -14687821.241 9 -11806947.85229       104.000
  25030658.606    -3847861.501 6  -3622620.38725        40.000
  22169826.149     4701206.532 9   3808062.51129       114.000
  23423265.611   -11404723.680 8  -9228204.91926        66.000
 96  6 11 17 20 30.0020000  0  6G 4G 2G 9G 5G 7G24
  21754696.277   -17777670.155 9 -14524509.01229       116.000
  23271944.498     -967236.333 8   8758600.24626        74.000
  22542767.907   -14707257.467 9 -11822092.97729       102.000
  25023903.562    -3883367.801 6  -3650287.61325        36.000
  22176186.156     4734650.655 9   3834122.83929       110.000
  23415174.002   -11447248.246 8  -9261340.94826        68.000
 96  6 11 17 20 45.0020000  0  6G 4G 2G 9G 5G 7G24
  21751214.158   -17795973.565 9 -14538771.39629       116.000
  23278341.020     -933629.383 8   8784787.46026        72.000
  22539094.130   -14726573.404 9 -11837144.35329       104.000
  25017151.816    -3918891.609 6  -3677968.46825        38.000
  22182560.013     4768129.656 9   3860210.37529       108.000
  23407093.336   -11489718.835 8  -9294434.90726        70.000
 96  6 11 17 21  0.0020000  0  6G 4G 2G 9G 5G 7G24
  21747755.362   -17814141.215 9 -14552927.99629       114.000
  23284749.174     -899958.942 8   8811024.14826        74.000
  22535438.790   -14745767.465 9 -11852100.77629       106.000
  25010387.689    -3954426.337 6  -3705657.83225        36.000
  22188937.558     4801646.975 9   3886327.75129       110.000
  23399022.294   -11532131.443 8  -9327483.66826        72.000
 96  6 11 17 21 15.0020000  0  6G 4G 2G 9G 5G 7G24
  21744320.430   -17832173.938 9 -14566979.45929       112.000
  23291168.330     -866227.885 8   8837308.07126        76.000
  22531810.522   -14764842.214 9 -11866964.20829       106.000
  25003620.024    -3989974.788 6  -3733357.87625        36.000
  22195322.598     4835197.145 9   3912470.73629       110.000
  23390961.624   -11574488.471 8  -9360489.14326        72.000
 96  6 11 17 21 30.0020000  0  6G 4G 2G 9G 5G 7G24
  21740922.253   -17850074.268 9 -14580927.75929       114.000
  23297597.169     -832438.185 8   8863637.71126        76.000
  22528204.169   -14783798.377 9 -11881735.22029       104.000
  24996856.616    -4025537.023 6  -3761068.68025        36.000
  22201716.811     4868777.202 9   3938637.00529       108.000
  23382914.145   -11616789.038 8  -9393450.62126        72.000
 96  6 11 17 21 45.0020000  0  6G 4G 2G 9G 5G 7G24
  21737536.966   -17867845.514 9 -14594775.50829       112.000
  23304037.491     -798595.084 8   8890008.91126        76.000
  22524614.514   -14802640.771 9 -11896417.64329       106.000
  24990075.970    -4061112.657 6  -3788789.91725        30.000
  22208107.217     4902381.074 9   3964821.82729       108.000
  23374875.810   -11659035.213 8  -9426369.70226        72.000
 96  6 11 17 22  0.0020000  0  6G 4G 2G 9G 5G 7G24
  21734179.591   -17885488.860 9 -14608523.51929       116.000
  23310487.975     -764699.611 8   8916420.99426        76.000
  22521053.339   -14821371.027 9 -11911012.62329       102.000
  24983312.892    -4096703.338 6  -3816522.82925        32.000
  22214507.816     4936005.196 9   3991022.46429       106.000
  23366845.210   -11701227.843 8  -9459247.02026        72.000
 96  6 11 17 22 15.0020000  0  6G 4G 2G 9G 5G 7G24
  21730848.447   -17903000.194 9 -14622168.69629       118.000
  23316946.914     -730748.337 8   8942876.52426        74.000
  22517508.893   -14839982.662 9 -11925515.18029       102.000
  24976537.703    -4132304.689 6  -3844264.09325        32.000
  22220906.916     4969654.210 9   4017242.47429       104.000
  23358828.939   -11743357.959 8  -9492075.67226        72.000
 96  6 11 17 22 30.0020000  0  6G 4G 2G 9G 5G 7G24
  21727538.798   -17920379.052 9 -14635710.66129       116.000
  23323419.822     -696743.988 8   8969373.42026        74.000
  22513989.509   -14858477.112 9 -11939926.44428       104.000
  24969764.132    -4167917.961 6  -3872014.66725        34.000
  22227316.749     5003331.140 9   4043484.21729       106.000
  23350823.341   -11785423.841 8  -9524854.24826        72.000
 96  6 11 17 22 45.0020000  0  6G 4G 2G 9G 5G 7G24
  21724257.989   -17937634.904 9 -14649156.79729       116.000
  23329901.156     -662697.589 8   8995903.04526        78.000
  22510490.722   -14876867.674 9 -11954256.77728       104.000
  24962973.263    -4203552.810 6  -3899782.04325        32.000
  22233732.068     5037026.716 9   4069740.49029       106.000
  23342826.827   -11827433.265 8  -9557588.87326        70.000
 96  6 11 17 23  0.0020000  0  6G 4G 2G 9G 5G 7G24
  21720997.506   -17954758.262 9 -14662499.65129       114.000
  23336388.964     -628598.660 8   9022473.62726        78.000
  22507014.808   -14895147.834 9 -11968501.03328       106.000
  24956190.759    -4239195.937 6  -3927555.87025        32.000
  22240149.245     5070751.603 9   4096019.64329       106.000
  23334847.701   -11869376.485 8  -9590271.88126        72.000
 96  6 11 17 23 15.0020000  0  6G 4G 2G 9G 5G 7G24
  21717765.564   -17971748.865 9 -14675739.08929       114.000
  23342890.353     -594443.893 8   9049087.70726        78.000
  22503555.773   -14913313.027 9 -11982655.74928       104.000
  24949406.995    -4274844.770 6  -3955334.17025        34.000
  22246570.440     5104506.162 9   4122321.86829       106.000
  23326878.168   -11911250.700 8  -9622901.14726        72.000
 96  6 11 17 23 30.0020000  0  6G 4G 2G 9G 5G 7G24
  21714557.904   -17988609.060 9 -14688876.89029       114.000
  23349394.920     -560234.876 8   9075744.08526        76.000
  22500120.721   -14931360.020 9 -11996718.32528       106.000
  24942620.983    -4310506.473 6  -3983122.44125        32.000
  22252998.740     5138290.389 9   4148647.24429       104.000
  23318923.835   -11953055.182 8  -9655476.01426        74.000
 96  6 11 17 23 45.0020000  0  6G 4G 2G 9G 5G 7G24
  21711375.817   -18005336.148 9 -14701910.97029       114.000
  23355914.057     -525966.011 8   9102447.08826        76.000
  22496710.791   -14949284.985 9 -12010685.82329       108.000
  24935838.238    -4346175.706 6  -4010916.55825        34.000
  22259432.585     5172109.338 9   4174999.67029       102.000
  23310980.234   -11994789.009 8  -9687995.84926        70.000
 96  6 11 17 24  0.0020000  0  6G 4G 2G 9G 5G 7G24
  21708213.786   -18021932.347 9 -14714843.07129       114.000
  23362447.914     -491639.052 8   9129195.33226        76.000
  22493321.308   -14967091.573 9 -12024561.09128       108.000
  24929050.787    -4381857.800 6  -4038720.77125        34.000
  22265879.802     5205959.587 9   4201376.48029       104.000
  23303055.610   -12036459.537 8  -9720466.39426        74.000
 96  6 11 17 24 15.0020000  0  6G 4G 2G 9G 5G 7G24
  21705082.424   -18038393.725 9 -14727670.12429       114.000
  23368991.424     -457250.666 8   9155991.45326        76.000
  22489959.225   -14984777.900 9 -12038342.65029       106.000
  24922257.880    -4417549.874 6  -4066532.77525        36.000
  22272327.768     5239845.998 9   4227781.46229       106.000
  23295138.091   -12078064.532 8  -9752885.84126        74.000
 96  6 11 17 24 30.0020000  0  6G 4G 2G 9G 5G 7G24
  21701979.962   -18054712.915 9 -14740386.38529       114.000
  23375548.904     -422797.269 8   9182838.26326        76.000
  22486616.899   -15002338.683 9 -12052026.36929       108.000
  24915465.872    -4453244.822 6  -4094346.99025        36.000
  22278782.570     5273774.472 9   4254219.21929       104.000
  23287231.545   -12119600.137 8  -9785251.24926        74.000
 96  6 11 17 24 45.0020000  0  6G 4G 2G 9G 5G 7G24
  21698900.524   -18070886.217 9 -14752988.94629       112.000
  23382119.845     -388273.010 8   9209740.25826        76.000
  22483298.466   -15019772.186 9 -12065610.92329       112.000
  24908666.639    -4488937.170 6  -4122159.11625        34.000
  22285247.714     5307748.539 9   4280692.51929       104.000
  23279341.008   -12161064.804 8  -9817561.36126        74.000
 96  6 11 17 25  0.0020000  0  6G 4G 2G 9G 5G 7G24
  21695845.998   -18086923.746 9 -14765485.70929       110.000
  23388702.958     -353681.490 8   9236694.65826        76.000
  22480001.559   -15037085.431 9 -12079101.75929       110.000
  24901877.389    -4524631.849 6  -4149973.11625        38.000
  22291714.657     5341760.799 9   4307195.57529       102.000
  23271464.231   -12202466.787 8  -9849822.62226        74.000
 96  6 11 17 25 15.0020000  0  6G 4G 2G 9G 5G 7G24
  21692820.043   -18102831.439 9 -14777881.28429       110.000
  23395294.405     -319022.923 8   9263701.36126        74.000
  22476730.253   -15054277.970 9 -12092498.53029       108.000
  24895086.880    -4560333.556 6  -4177792.59425        38.000
  22298197.909     5375810.418 9   4333727.74829       104.000
  23263596.177   -12243809.725 8  -9882037.87726        74.000
 96  6 11 17 25 30.0020000  0  6G 4G 2G 9G 5G 7G24
  21689819.720   -18118603.925 9 -14790171.55129       110.000
  23401906.028     -284291.351 8   9290764.85226        74.000
  22473484.670   -15071344.429 9 -12105797.09729       114.000
  24888288.187    -4596039.837 6  -4205615.67325        38.000
  22304686.017     5409900.637 9   4360291.51829       102.000
  23255744.403   -12285089.458 8  -9914203.90026        74.000
 96  6 11 17 25 45.0020000  0  6G 4G 2G 9G 5G 7G24
  21686843.081   -18134243.475 9 -14802358.19129       110.000
  23408528.683     -249488.354 8   9317884.08026        72.000
  22470259.233   -15088288.894 9 -12119000.56229       110.000
  24881501.095    -4631749.772 6  -4233441.51925        40.000
  22311181.081     5444027.403 9   4386883.81129       108.000
  23247897.695   -12326309.127 8  -9946323.10926        76.000
 96  6 11 17 26  0.0020000  0  6G 4G 2G 9G 5G 7G24
  21683890.725   -18149747.203 9 -14814438.98429       108.000
  23415167.707     -214610.956 8   9345061.29826        72.000
  22467058.379   -15105111.399 9 -12132108.97229       110.000
  24874706.329    -4667456.680 6  -4261265.04225        40.000
  22317681.271     5478191.811 9   4413505.46129       106.000
  23240059.382   -12367465.981 8  -9978393.34226        72.000
 96  6 11 17 26 15.0020000  0  6G 4G 2G 9G 5G 7G24
  21680968.498   -18165115.867 9 -14826414.56929       108.000
  23421813.746     -179664.632 8   9372292.16726        70.000
  22463881.988   -15121814.898 9 -12145124.70129       110.000
  24867905.957    -4703164.782 7  -4289089.51325        42.000
  22324186.287     5512392.197 9   4440155.08629       102.000
  23232243.852   -12408558.284 8 -10010413.31526        74.000
 96  6 11 17 26 30.0030000  0  6G 4G 2G 9G 5G 7G24
  21678070.554   -18180351.888 9 -14838286.78729       110.000
  23428478.672     -144650.567 8   9399575.82726        66.000
  22460722.925   -15138402.054 9 -12158049.75829       110.000
  24861107.144    -4738879.376 6  -4316919.00925        40.000
  22330704.495     5546628.517 9   4466832.73529       104.000
  23224435.518   -12449589.352 8 -10042385.56926        72.000
 96  6 11 17 26 45.0030000  0  6G 4G 2G 9G 5G 7G24
  21675196.564   -18195451.206 9 -14850052.49129       110.000
  23435156.189     -109568.556 8   9426912.45326        68.000
  22457588.205   -15154867.138 9 -12170879.68929       108.000
  24854314.716    -4774591.476 7  -4344746.58925        42.000
  22337223.452     5580898.444 9   4493536.57529       104.000
  23216643.192   -12490548.089 8 -10074301.42526        74.000
 96  6 11 17 27  0.0030000  0  6G 4G 2G 9G 5G 7G24
  21672346.167   -18210421.162 9 -14861717.37329       108.000
  23441844.349      -74419.953 8   9454300.96626        68.000
  22454476.180   -15171216.886 9 -12183619.74829       108.000
  24847513.504    -4810309.798 7  -4372579.04325        42.000
  22343753.681     5615198.363 9   4520263.78829       106.000
  23208866.156   -12531440.693 8 -10106165.77226        76.000
 96  6 11 17 27 15.0030000  0  6G 4G 2G 9G 5G 7G24
  21669523.591   -18225260.673 9 -14873280.64829       106.000
  23448542.192      -39205.901 8   9481740.44426        68.000
  22451389.726   -15187448.316 9 -12196267.64929       110.000
  24840723.055    -4846037.632 7  -4400418.87125        44.000
  22350288.317     5649526.384 9   4547012.86129       106.000
  23201091.998   -12572267.707 8 -10137979.03326        76.000
